<?xml version="1.0" encoding="UTF-8" standalone="no" ?>
<gpx xmlns="http://www.topografix.com/GPX/1/1" xmlns:xsi="http://www.w3.org/2001/XMLSchema-instance" xsi:schemaLocation="http://www.topografix.com/GPX/1/1 http://www.topografix.com/GPX/1/1/gpx.xsd" version="1.1" creator="VisuGPX - https://www.visugpx.com">
  <metadata>
    <name>Course à pied le midi</name>
  </metadata>
  <trk>
    <name><![CDATA[Course à pied le midi_1]]></name>
    <trkseg>
      <trkpt lat="43.64745" lon="1.37643">
        <ele>156</ele>
        <time>2023-11-12T11:22:11Z</time>
      </trkpt>
      <trkpt lat="43.64746" lon="1.37642">
        <ele>156</ele>
        <time>2023-11-12T11:22:12Z</time>
      </trkpt>
      <trkpt lat="43.64748" lon="1.3764">
        <ele>156</ele>
        <time>2023-11-12T11:22:13Z</time>
      </trkpt>
      <trkpt lat="43.64749" lon="1.37639">
        <ele>156</ele>
        <time>2023-11-12T11:22:14Z</time>
      </trkpt>
      <trkpt lat="43.6475" lon="1.37637">
        <ele>156</ele>
        <time>2023-11-12T11:22:15Z</time>
      </trkpt>
      <trkpt lat="43.64752" lon="1.37636">
        <ele>156</ele>
        <time>2023-11-12T11:22:16Z</time>
      </trkpt>
      <trkpt lat="43.64753" lon="1.37634">
        <ele>156</ele>
        <time>2023-11-12T11:22:17Z</time>
      </trkpt>
      <trkpt lat="43.64754" lon="1.37632">
        <ele>156</ele>
        <time>2023-11-12T11:22:18Z</time>
      </trkpt>
      <trkpt lat="43.64755" lon="1.37631">
        <ele>156</ele>
        <time>2023-11-12T11:22:19Z</time>
      </trkpt>
      <trkpt lat="43.64757" lon="1.37629">
        <ele>156</ele>
        <time>2023-11-12T11:22:20Z</time>
      </trkpt>
      <trkpt lat="43.64758" lon="1.37627">
        <ele>156</ele>
        <time>2023-11-12T11:22:21Z</time>
      </trkpt>
      <trkpt lat="43.64759" lon="1.37626">
        <ele>156</ele>
        <time>2023-11-12T11:22:22Z</time>
      </trkpt>
      <trkpt lat="43.6476" lon="1.37624">
        <ele>156</ele>
        <time>2023-11-12T11:22:23Z</time>
      </trkpt>
      <trkpt lat="43.64761" lon="1.37623">
        <ele>156</ele>
        <time>2023-11-12T11:22:24Z</time>
      </trkpt>
      <trkpt lat="43.64762" lon="1.37622">
        <ele>157</ele>
        <time>2023-11-12T11:22:25Z</time>
      </trkpt>
      <trkpt lat="43.64763" lon="1.37621">
        <ele>157</ele>
        <time>2023-11-12T11:22:26Z</time>
      </trkpt>
      <trkpt lat="43.64764" lon="1.3762">
        <ele>157</ele>
        <time>2023-11-12T11:22:27Z</time>
      </trkpt>
      <trkpt lat="43.64766" lon="1.37619">
        <ele>157</ele>
        <time>2023-11-12T11:22:28Z</time>
      </trkpt>
      <trkpt lat="43.64767" lon="1.37618">
        <ele>157</ele>
        <time>2023-11-12T11:22:29Z</time>
      </trkpt>
      <trkpt lat="43.64768" lon="1.37617">
        <ele>157</ele>
        <time>2023-11-12T11:22:30Z</time>
      </trkpt>
      <trkpt lat="43.64769" lon="1.37616">
        <ele>157</ele>
        <time>2023-11-12T11:22:31Z</time>
      </trkpt>
      <trkpt lat="43.6477" lon="1.37614">
        <ele>157</ele>
        <time>2023-11-12T11:22:32Z</time>
      </trkpt>
      <trkpt lat="43.64772" lon="1.37613">
        <ele>157</ele>
        <time>2023-11-12T11:22:33Z</time>
      </trkpt>
      <trkpt lat="43.64773" lon="1.37612">
        <ele>157</ele>
        <time>2023-11-12T11:22:34Z</time>
      </trkpt>
      <trkpt lat="43.64774" lon="1.3761">
        <ele>157</ele>
        <time>2023-11-12T11:22:35Z</time>
      </trkpt>
      <trkpt lat="43.64776" lon="1.37609">
        <ele>157</ele>
        <time>2023-11-12T11:22:36Z</time>
      </trkpt>
      <trkpt lat="43.64778" lon="1.37608">
        <ele>156</ele>
        <time>2023-11-12T11:22:37Z</time>
      </trkpt>
      <trkpt lat="43.6478" lon="1.37608">
        <ele>155</ele>
        <time>2023-11-12T11:22:38Z</time>
      </trkpt>
      <trkpt lat="43.64783" lon="1.37607">
        <ele>156</ele>
        <time>2023-11-12T11:22:39Z</time>
      </trkpt>
      <trkpt lat="43.64785" lon="1.37606">
        <ele>156</ele>
        <time>2023-11-12T11:22:40Z</time>
      </trkpt>
      <trkpt lat="43.64787" lon="1.37606">
        <ele>156</ele>
        <time>2023-11-12T11:22:41Z</time>
      </trkpt>
      <trkpt lat="43.6479" lon="1.37605">
        <ele>155</ele>
        <time>2023-11-12T11:22:42Z</time>
      </trkpt>
      <trkpt lat="43.64792" lon="1.37605">
        <ele>155</ele>
        <time>2023-11-12T11:22:43Z</time>
      </trkpt>
      <trkpt lat="43.64794" lon="1.37604">
        <ele>155</ele>
        <time>2023-11-12T11:22:44Z</time>
      </trkpt>
      <trkpt lat="43.64796" lon="1.37604">
        <ele>154</ele>
        <time>2023-11-12T11:22:45Z</time>
      </trkpt>
      <trkpt lat="43.64797" lon="1.37603">
        <ele>155</ele>
        <time>2023-11-12T11:22:46Z</time>
      </trkpt>
      <trkpt lat="43.64798" lon="1.37603">
        <ele>155</ele>
        <time>2023-11-12T11:22:47Z</time>
      </trkpt>
      <trkpt lat="43.64799" lon="1.37603">
        <ele>155</ele>
        <time>2023-11-12T11:22:48Z</time>
      </trkpt>
      <trkpt lat="43.64807" lon="1.37602">
        <ele>155</ele>
        <time>2023-11-12T11:22:49Z</time>
      </trkpt>
      <trkpt lat="43.6481" lon="1.37603">
        <ele>155</ele>
        <time>2023-11-12T11:22:50Z</time>
      </trkpt>
      <trkpt lat="43.64812" lon="1.37603">
        <ele>155</ele>
        <time>2023-11-12T11:22:51Z</time>
      </trkpt>
      <trkpt lat="43.64815" lon="1.37604">
        <ele>155</ele>
        <time>2023-11-12T11:22:52Z</time>
      </trkpt>
      <trkpt lat="43.64815" lon="1.37604">
        <ele>154</ele>
        <time>2023-11-12T11:22:53Z</time>
      </trkpt>
      <trkpt lat="43.64816" lon="1.37605">
        <ele>154</ele>
        <time>2023-11-12T11:22:54Z</time>
      </trkpt>
      <trkpt lat="43.64817" lon="1.37606">
        <ele>154</ele>
        <time>2023-11-12T11:22:55Z</time>
      </trkpt>
      <trkpt lat="43.64818" lon="1.37607">
        <ele>154</ele>
        <time>2023-11-12T11:22:56Z</time>
      </trkpt>
      <trkpt lat="43.64819" lon="1.37608">
        <ele>154</ele>
        <time>2023-11-12T11:22:57Z</time>
      </trkpt>
      <trkpt lat="43.64826" lon="1.37614">
        <ele>154</ele>
        <time>2023-11-12T11:22:58Z</time>
      </trkpt>
      <trkpt lat="43.64828" lon="1.37616">
        <ele>155</ele>
        <time>2023-11-12T11:22:59Z</time>
      </trkpt>
      <trkpt lat="43.6483" lon="1.37617">
        <ele>155</ele>
        <time>2023-11-12T11:23:00Z</time>
      </trkpt>
      <trkpt lat="43.64832" lon="1.37619">
        <ele>156</ele>
        <time>2023-11-12T11:23:01Z</time>
      </trkpt>
      <trkpt lat="43.64833" lon="1.3762">
        <ele>156</ele>
        <time>2023-11-12T11:23:02Z</time>
      </trkpt>
      <trkpt lat="43.64834" lon="1.37622">
        <ele>156</ele>
        <time>2023-11-12T11:23:03Z</time>
      </trkpt>
      <trkpt lat="43.64835" lon="1.37623">
        <ele>156</ele>
        <time>2023-11-12T11:23:04Z</time>
      </trkpt>
      <trkpt lat="43.64836" lon="1.37624">
        <ele>156</ele>
        <time>2023-11-12T11:23:05Z</time>
      </trkpt>
      <trkpt lat="43.64842" lon="1.3763">
        <ele>156</ele>
        <time>2023-11-12T11:23:06Z</time>
      </trkpt>
      <trkpt lat="43.64844" lon="1.37631">
        <ele>155</ele>
        <time>2023-11-12T11:23:07Z</time>
      </trkpt>
      <trkpt lat="43.64846" lon="1.37631">
        <ele>155</ele>
        <time>2023-11-12T11:23:08Z</time>
      </trkpt>
      <trkpt lat="43.64848" lon="1.37632">
        <ele>155</ele>
        <time>2023-11-12T11:23:09Z</time>
      </trkpt>
      <trkpt lat="43.64849" lon="1.37633">
        <ele>155</ele>
        <time>2023-11-12T11:23:10Z</time>
      </trkpt>
      <trkpt lat="43.6485" lon="1.37634">
        <ele>155</ele>
        <time>2023-11-12T11:23:11Z</time>
      </trkpt>
      <trkpt lat="43.64851" lon="1.37634">
        <ele>155</ele>
        <time>2023-11-12T11:23:12Z</time>
      </trkpt>
      <trkpt lat="43.64852" lon="1.37635">
        <ele>155</ele>
        <time>2023-11-12T11:23:13Z</time>
      </trkpt>
      <trkpt lat="43.64853" lon="1.37635">
        <ele>155</ele>
        <time>2023-11-12T11:23:14Z</time>
      </trkpt>
      <trkpt lat="43.64854" lon="1.37636">
        <ele>155</ele>
        <time>2023-11-12T11:23:15Z</time>
      </trkpt>
      <trkpt lat="43.64861" lon="1.37641">
        <ele>155</ele>
        <time>2023-11-12T11:23:16Z</time>
      </trkpt>
      <trkpt lat="43.64863" lon="1.37642">
        <ele>155</ele>
        <time>2023-11-12T11:23:17Z</time>
      </trkpt>
      <trkpt lat="43.64865" lon="1.37644">
        <ele>155</ele>
        <time>2023-11-12T11:23:18Z</time>
      </trkpt>
      <trkpt lat="43.64867" lon="1.37645">
        <ele>155</ele>
        <time>2023-11-12T11:23:19Z</time>
      </trkpt>
      <trkpt lat="43.64868" lon="1.37646">
        <ele>154</ele>
        <time>2023-11-12T11:23:20Z</time>
      </trkpt>
      <trkpt lat="43.64869" lon="1.37647">
        <ele>155</ele>
        <time>2023-11-12T11:23:21Z</time>
      </trkpt>
      <trkpt lat="43.6487" lon="1.37647">
        <ele>155</ele>
        <time>2023-11-12T11:23:22Z</time>
      </trkpt>
      <trkpt lat="43.64871" lon="1.37648">
        <ele>156</ele>
        <time>2023-11-12T11:23:23Z</time>
      </trkpt>
      <trkpt lat="43.64872" lon="1.37648">
        <ele>156</ele>
        <time>2023-11-12T11:23:24Z</time>
      </trkpt>
      <trkpt lat="43.64878" lon="1.37652">
        <ele>156</ele>
        <time>2023-11-12T11:23:25Z</time>
      </trkpt>
      <trkpt lat="43.64879" lon="1.37653">
        <ele>155</ele>
        <time>2023-11-12T11:23:26Z</time>
      </trkpt>
      <trkpt lat="43.6488" lon="1.37654">
        <ele>155</ele>
        <time>2023-11-12T11:23:27Z</time>
      </trkpt>
      <trkpt lat="43.64881" lon="1.37655">
        <ele>155</ele>
        <time>2023-11-12T11:23:28Z</time>
      </trkpt>
      <trkpt lat="43.64887" lon="1.37662">
        <ele>155</ele>
        <time>2023-11-12T11:23:29Z</time>
      </trkpt>
      <trkpt lat="43.64888" lon="1.37665">
        <ele>154</ele>
        <time>2023-11-12T11:23:30Z</time>
      </trkpt>
      <trkpt lat="43.64889" lon="1.37668">
        <ele>154</ele>
        <time>2023-11-12T11:23:31Z</time>
      </trkpt>
      <trkpt lat="43.6489" lon="1.37671">
        <ele>154</ele>
        <time>2023-11-12T11:23:32Z</time>
      </trkpt>
      <trkpt lat="43.6489" lon="1.37674">
        <ele>154</ele>
        <time>2023-11-12T11:23:33Z</time>
      </trkpt>
      <trkpt lat="43.6489" lon="1.37677">
        <ele>154</ele>
        <time>2023-11-12T11:23:34Z</time>
      </trkpt>
      <trkpt lat="43.64891" lon="1.3768">
        <ele>154</ele>
        <time>2023-11-12T11:23:35Z</time>
      </trkpt>
      <trkpt lat="43.64891" lon="1.37683">
        <ele>154</ele>
        <time>2023-11-12T11:23:36Z</time>
      </trkpt>
      <trkpt lat="43.64891" lon="1.37686">
        <ele>154</ele>
        <time>2023-11-12T11:23:37Z</time>
      </trkpt>
      <trkpt lat="43.64891" lon="1.37689">
        <ele>154</ele>
        <time>2023-11-12T11:23:38Z</time>
      </trkpt>
      <trkpt lat="43.64892" lon="1.37692">
        <ele>154</ele>
        <time>2023-11-12T11:23:39Z</time>
      </trkpt>
      <trkpt lat="43.64893" lon="1.37695">
        <ele>154</ele>
        <time>2023-11-12T11:23:40Z</time>
      </trkpt>
      <trkpt lat="43.64893" lon="1.37698">
        <ele>154</ele>
        <time>2023-11-12T11:23:41Z</time>
      </trkpt>
      <trkpt lat="43.64894" lon="1.377">
        <ele>154</ele>
        <time>2023-11-12T11:23:42Z</time>
      </trkpt>
      <trkpt lat="43.64894" lon="1.37701">
        <ele>154</ele>
        <time>2023-11-12T11:23:43Z</time>
      </trkpt>
      <trkpt lat="43.64895" lon="1.37703">
        <ele>154</ele>
        <time>2023-11-12T11:23:44Z</time>
      </trkpt>
      <trkpt lat="43.64895" lon="1.37705">
        <ele>154</ele>
        <time>2023-11-12T11:23:45Z</time>
      </trkpt>
      <trkpt lat="43.64897" lon="1.37713">
        <ele>154</ele>
        <time>2023-11-12T11:23:46Z</time>
      </trkpt>
      <trkpt lat="43.64898" lon="1.37715">
        <ele>154</ele>
        <time>2023-11-12T11:23:47Z</time>
      </trkpt>
      <trkpt lat="43.64899" lon="1.37717">
        <ele>154</ele>
        <time>2023-11-12T11:23:48Z</time>
      </trkpt>
      <trkpt lat="43.64899" lon="1.37718">
        <ele>154</ele>
        <time>2023-11-12T11:23:49Z</time>
      </trkpt>
      <trkpt lat="43.64902" lon="1.37727">
        <ele>154</ele>
        <time>2023-11-12T11:23:50Z</time>
      </trkpt>
      <trkpt lat="43.64902" lon="1.3773">
        <ele>154</ele>
        <time>2023-11-12T11:23:51Z</time>
      </trkpt>
      <trkpt lat="43.64903" lon="1.37733">
        <ele>154</ele>
        <time>2023-11-12T11:23:52Z</time>
      </trkpt>
      <trkpt lat="43.64903" lon="1.37735">
        <ele>155</ele>
        <time>2023-11-12T11:23:53Z</time>
      </trkpt>
      <trkpt lat="43.64903" lon="1.37738">
        <ele>155</ele>
        <time>2023-11-12T11:23:54Z</time>
      </trkpt>
      <trkpt lat="43.64904" lon="1.37741">
        <ele>155</ele>
        <time>2023-11-12T11:23:55Z</time>
      </trkpt>
      <trkpt lat="43.64905" lon="1.37744">
        <ele>154</ele>
        <time>2023-11-12T11:23:56Z</time>
      </trkpt>
      <trkpt lat="43.64906" lon="1.37747">
        <ele>154</ele>
        <time>2023-11-12T11:23:57Z</time>
      </trkpt>
      <trkpt lat="43.64906" lon="1.3775">
        <ele>154</ele>
        <time>2023-11-12T11:23:58Z</time>
      </trkpt>
      <trkpt lat="43.64907" lon="1.37752">
        <ele>154</ele>
        <time>2023-11-12T11:23:59Z</time>
      </trkpt>
      <trkpt lat="43.64907" lon="1.37753">
        <ele>154</ele>
        <time>2023-11-12T11:24:00Z</time>
      </trkpt>
      <trkpt lat="43.64907" lon="1.37755">
        <ele>154</ele>
        <time>2023-11-12T11:24:01Z</time>
      </trkpt>
      <trkpt lat="43.64907" lon="1.37756">
        <ele>155</ele>
        <time>2023-11-12T11:24:02Z</time>
      </trkpt>
      <trkpt lat="43.64908" lon="1.37758">
        <ele>155</ele>
        <time>2023-11-12T11:24:03Z</time>
      </trkpt>
      <trkpt lat="43.6491" lon="1.37768">
        <ele>155</ele>
        <time>2023-11-12T11:24:04Z</time>
      </trkpt>
      <trkpt lat="43.6491" lon="1.37771">
        <ele>154</ele>
        <time>2023-11-12T11:24:05Z</time>
      </trkpt>
      <trkpt lat="43.64911" lon="1.37775">
        <ele>154</ele>
        <time>2023-11-12T11:24:06Z</time>
      </trkpt>
      <trkpt lat="43.64912" lon="1.37778">
        <ele>155</ele>
        <time>2023-11-12T11:24:07Z</time>
      </trkpt>
      <trkpt lat="43.64912" lon="1.37781">
        <ele>155</ele>
        <time>2023-11-12T11:24:08Z</time>
      </trkpt>
      <trkpt lat="43.64913" lon="1.37784">
        <ele>155</ele>
        <time>2023-11-12T11:24:09Z</time>
      </trkpt>
      <trkpt lat="43.64914" lon="1.37787">
        <ele>155</ele>
        <time>2023-11-12T11:24:10Z</time>
      </trkpt>
      <trkpt lat="43.64915" lon="1.3779">
        <ele>155</ele>
        <time>2023-11-12T11:24:11Z</time>
      </trkpt>
      <trkpt lat="43.64916" lon="1.37793">
        <ele>154</ele>
        <time>2023-11-12T11:24:12Z</time>
      </trkpt>
      <trkpt lat="43.64917" lon="1.37797">
        <ele>154</ele>
        <time>2023-11-12T11:24:13Z</time>
      </trkpt>
      <trkpt lat="43.64918" lon="1.378">
        <ele>154</ele>
        <time>2023-11-12T11:24:14Z</time>
      </trkpt>
      <trkpt lat="43.64919" lon="1.37803">
        <ele>154</ele>
        <time>2023-11-12T11:24:15Z</time>
      </trkpt>
      <trkpt lat="43.6492" lon="1.37806">
        <ele>154</ele>
        <time>2023-11-12T11:24:16Z</time>
      </trkpt>
      <trkpt lat="43.6492" lon="1.37809">
        <ele>153</ele>
        <time>2023-11-12T11:24:17Z</time>
      </trkpt>
      <trkpt lat="43.64921" lon="1.37812">
        <ele>153</ele>
        <time>2023-11-12T11:24:18Z</time>
      </trkpt>
      <trkpt lat="43.64921" lon="1.37815">
        <ele>153</ele>
        <time>2023-11-12T11:24:19Z</time>
      </trkpt>
      <trkpt lat="43.64922" lon="1.37818">
        <ele>153</ele>
        <time>2023-11-12T11:24:20Z</time>
      </trkpt>
      <trkpt lat="43.64922" lon="1.3782">
        <ele>153</ele>
        <time>2023-11-12T11:24:21Z</time>
      </trkpt>
      <trkpt lat="43.64923" lon="1.37823">
        <ele>153</ele>
        <time>2023-11-12T11:24:22Z</time>
      </trkpt>
      <trkpt lat="43.64924" lon="1.37825">
        <ele>153</ele>
        <time>2023-11-12T11:24:23Z</time>
      </trkpt>
      <trkpt lat="43.64924" lon="1.37828">
        <ele>153</ele>
        <time>2023-11-12T11:24:24Z</time>
      </trkpt>
      <trkpt lat="43.64925" lon="1.3783">
        <ele>154</ele>
        <time>2023-11-12T11:24:25Z</time>
      </trkpt>
      <trkpt lat="43.64926" lon="1.37832">
        <ele>154</ele>
        <time>2023-11-12T11:24:26Z</time>
      </trkpt>
      <trkpt lat="43.64927" lon="1.37835">
        <ele>154</ele>
        <time>2023-11-12T11:24:27Z</time>
      </trkpt>
      <trkpt lat="43.64927" lon="1.37837">
        <ele>154</ele>
        <time>2023-11-12T11:24:28Z</time>
      </trkpt>
      <trkpt lat="43.64928" lon="1.37839">
        <ele>154</ele>
        <time>2023-11-12T11:24:29Z</time>
      </trkpt>
      <trkpt lat="43.64929" lon="1.3784">
        <ele>154</ele>
        <time>2023-11-12T11:24:30Z</time>
      </trkpt>
      <trkpt lat="43.64929" lon="1.37842">
        <ele>154</ele>
        <time>2023-11-12T11:24:31Z</time>
      </trkpt>
      <trkpt lat="43.64929" lon="1.37843">
        <ele>154</ele>
        <time>2023-11-12T11:24:32Z</time>
      </trkpt>
      <trkpt lat="43.64929" lon="1.37844">
        <ele>154</ele>
        <time>2023-11-12T11:24:33Z</time>
      </trkpt>
      <trkpt lat="43.6493" lon="1.37845">
        <ele>153</ele>
        <time>2023-11-12T11:24:34Z</time>
      </trkpt>
      <trkpt lat="43.6493" lon="1.37846">
        <ele>153</ele>
        <time>2023-11-12T11:24:35Z</time>
      </trkpt>
      <trkpt lat="43.64932" lon="1.37856">
        <ele>153</ele>
        <time>2023-11-12T11:24:36Z</time>
      </trkpt>
      <trkpt lat="43.64933" lon="1.37859">
        <ele>153</ele>
        <time>2023-11-12T11:24:37Z</time>
      </trkpt>
      <trkpt lat="43.64934" lon="1.37862">
        <ele>153</ele>
        <time>2023-11-12T11:24:38Z</time>
      </trkpt>
      <trkpt lat="43.64935" lon="1.37865">
        <ele>153</ele>
        <time>2023-11-12T11:24:39Z</time>
      </trkpt>
      <trkpt lat="43.64936" lon="1.37868">
        <ele>153</ele>
        <time>2023-11-12T11:24:40Z</time>
      </trkpt>
      <trkpt lat="43.64938" lon="1.3787">
        <ele>153</ele>
        <time>2023-11-12T11:24:41Z</time>
      </trkpt>
      <trkpt lat="43.64939" lon="1.37873">
        <ele>153</ele>
        <time>2023-11-12T11:24:42Z</time>
      </trkpt>
      <trkpt lat="43.64941" lon="1.37876">
        <ele>153</ele>
        <time>2023-11-12T11:24:43Z</time>
      </trkpt>
      <trkpt lat="43.64943" lon="1.37879">
        <ele>153</ele>
        <time>2023-11-12T11:24:44Z</time>
      </trkpt>
      <trkpt lat="43.64945" lon="1.37882">
        <ele>153</ele>
        <time>2023-11-12T11:24:45Z</time>
      </trkpt>
      <trkpt lat="43.64947" lon="1.37885">
        <ele>153</ele>
        <time>2023-11-12T11:24:46Z</time>
      </trkpt>
      <trkpt lat="43.64948" lon="1.37886">
        <ele>153</ele>
        <time>2023-11-12T11:24:47Z</time>
      </trkpt>
      <trkpt lat="43.64948" lon="1.37888">
        <ele>153</ele>
        <time>2023-11-12T11:24:48Z</time>
      </trkpt>
      <trkpt lat="43.64949" lon="1.3789">
        <ele>153</ele>
        <time>2023-11-12T11:24:49Z</time>
      </trkpt>
      <trkpt lat="43.64949" lon="1.37892">
        <ele>153</ele>
        <time>2023-11-12T11:24:50Z</time>
      </trkpt>
      <trkpt lat="43.64952" lon="1.37902">
        <ele>153</ele>
        <time>2023-11-12T11:24:51Z</time>
      </trkpt>
      <trkpt lat="43.64953" lon="1.37905">
        <ele>153</ele>
        <time>2023-11-12T11:24:52Z</time>
      </trkpt>
      <trkpt lat="43.64953" lon="1.37908">
        <ele>153</ele>
        <time>2023-11-12T11:24:53Z</time>
      </trkpt>
      <trkpt lat="43.64954" lon="1.37912">
        <ele>153</ele>
        <time>2023-11-12T11:24:54Z</time>
      </trkpt>
      <trkpt lat="43.64955" lon="1.37914">
        <ele>153</ele>
        <time>2023-11-12T11:24:55Z</time>
      </trkpt>
      <trkpt lat="43.64955" lon="1.37917">
        <ele>153</ele>
        <time>2023-11-12T11:24:56Z</time>
      </trkpt>
      <trkpt lat="43.64956" lon="1.3792">
        <ele>153</ele>
        <time>2023-11-12T11:24:57Z</time>
      </trkpt>
      <trkpt lat="43.64957" lon="1.37922">
        <ele>153</ele>
        <time>2023-11-12T11:24:58Z</time>
      </trkpt>
      <trkpt lat="43.64957" lon="1.37925">
        <ele>153</ele>
        <time>2023-11-12T11:24:59Z</time>
      </trkpt>
      <trkpt lat="43.64959" lon="1.37928">
        <ele>153</ele>
        <time>2023-11-12T11:25:00Z</time>
      </trkpt>
      <trkpt lat="43.6496" lon="1.3793">
        <ele>153</ele>
        <time>2023-11-12T11:25:01Z</time>
      </trkpt>
      <trkpt lat="43.64961" lon="1.37933">
        <ele>153</ele>
        <time>2023-11-12T11:25:02Z</time>
      </trkpt>
      <trkpt lat="43.64963" lon="1.37936">
        <ele>153</ele>
        <time>2023-11-12T11:25:03Z</time>
      </trkpt>
      <trkpt lat="43.64965" lon="1.37938">
        <ele>153</ele>
        <time>2023-11-12T11:25:04Z</time>
      </trkpt>
      <trkpt lat="43.64966" lon="1.37941">
        <ele>153</ele>
        <time>2023-11-12T11:25:05Z</time>
      </trkpt>
      <trkpt lat="43.64968" lon="1.37943">
        <ele>152</ele>
        <time>2023-11-12T11:25:06Z</time>
      </trkpt>
      <trkpt lat="43.6497" lon="1.37945">
        <ele>152</ele>
        <time>2023-11-12T11:25:07Z</time>
      </trkpt>
      <trkpt lat="43.64972" lon="1.37948">
        <ele>152</ele>
        <time>2023-11-12T11:25:08Z</time>
      </trkpt>
      <trkpt lat="43.64973" lon="1.3795">
        <ele>153</ele>
        <time>2023-11-12T11:25:09Z</time>
      </trkpt>
      <trkpt lat="43.64975" lon="1.37953">
        <ele>153</ele>
        <time>2023-11-12T11:25:10Z</time>
      </trkpt>
      <trkpt lat="43.64977" lon="1.37955">
        <ele>153</ele>
        <time>2023-11-12T11:25:11Z</time>
      </trkpt>
      <trkpt lat="43.64979" lon="1.37958">
        <ele>152</ele>
        <time>2023-11-12T11:25:12Z</time>
      </trkpt>
      <trkpt lat="43.6498" lon="1.3796">
        <ele>152</ele>
        <time>2023-11-12T11:25:13Z</time>
      </trkpt>
      <trkpt lat="43.64982" lon="1.37963">
        <ele>152</ele>
        <time>2023-11-12T11:25:14Z</time>
      </trkpt>
      <trkpt lat="43.64984" lon="1.37965">
        <ele>152</ele>
        <time>2023-11-12T11:25:15Z</time>
      </trkpt>
      <trkpt lat="43.64986" lon="1.37968">
        <ele>152</ele>
        <time>2023-11-12T11:25:16Z</time>
      </trkpt>
      <trkpt lat="43.64987" lon="1.3797">
        <ele>152</ele>
        <time>2023-11-12T11:25:17Z</time>
      </trkpt>
      <trkpt lat="43.64989" lon="1.37973">
        <ele>152</ele>
        <time>2023-11-12T11:25:18Z</time>
      </trkpt>
      <trkpt lat="43.64991" lon="1.37975">
        <ele>152</ele>
        <time>2023-11-12T11:25:19Z</time>
      </trkpt>
      <trkpt lat="43.64992" lon="1.37977">
        <ele>152</ele>
        <time>2023-11-12T11:25:20Z</time>
      </trkpt>
      <trkpt lat="43.64993" lon="1.37978">
        <ele>152</ele>
        <time>2023-11-12T11:25:21Z</time>
      </trkpt>
      <trkpt lat="43.64993" lon="1.37979">
        <ele>152</ele>
        <time>2023-11-12T11:25:22Z</time>
      </trkpt>
      <trkpt lat="43.64994" lon="1.37981">
        <ele>152</ele>
        <time>2023-11-12T11:25:23Z</time>
      </trkpt>
      <trkpt lat="43.64998" lon="1.37987">
        <ele>152</ele>
        <time>2023-11-12T11:25:24Z</time>
      </trkpt>
      <trkpt lat="43.64999" lon="1.37989">
        <ele>152</ele>
        <time>2023-11-12T11:25:25Z</time>
      </trkpt>
      <trkpt lat="43.65" lon="1.3799">
        <ele>152</ele>
        <time>2023-11-12T11:25:26Z</time>
      </trkpt>
      <trkpt lat="43.65" lon="1.37991">
        <ele>152</ele>
        <time>2023-11-12T11:25:27Z</time>
      </trkpt>
      <trkpt lat="43.65001" lon="1.37992">
        <ele>152</ele>
        <time>2023-11-12T11:25:28Z</time>
      </trkpt>
      <trkpt lat="43.65007" lon="1.38">
        <ele>152</ele>
        <time>2023-11-12T11:25:29Z</time>
      </trkpt>
      <trkpt lat="43.65008" lon="1.38003">
        <ele>152</ele>
        <time>2023-11-12T11:25:30Z</time>
      </trkpt>
      <trkpt lat="43.6501" lon="1.38005">
        <ele>152</ele>
        <time>2023-11-12T11:25:31Z</time>
      </trkpt>
      <trkpt lat="43.65012" lon="1.38008">
        <ele>152</ele>
        <time>2023-11-12T11:25:32Z</time>
      </trkpt>
      <trkpt lat="43.65013" lon="1.3801">
        <ele>152</ele>
        <time>2023-11-12T11:25:33Z</time>
      </trkpt>
      <trkpt lat="43.65014" lon="1.38012">
        <ele>152</ele>
        <time>2023-11-12T11:25:34Z</time>
      </trkpt>
      <trkpt lat="43.65015" lon="1.38014">
        <ele>151</ele>
        <time>2023-11-12T11:25:35Z</time>
      </trkpt>
      <trkpt lat="43.65016" lon="1.38017">
        <ele>151</ele>
        <time>2023-11-12T11:25:36Z</time>
      </trkpt>
      <trkpt lat="43.65018" lon="1.38019">
        <ele>151</ele>
        <time>2023-11-12T11:25:37Z</time>
      </trkpt>
      <trkpt lat="43.65018" lon="1.3802">
        <ele>151</ele>
        <time>2023-11-12T11:25:38Z</time>
      </trkpt>
      <trkpt lat="43.65019" lon="1.38022">
        <ele>151</ele>
        <time>2023-11-12T11:25:39Z</time>
      </trkpt>
      <trkpt lat="43.6502" lon="1.38023">
        <ele>151</ele>
        <time>2023-11-12T11:25:40Z</time>
      </trkpt>
      <trkpt lat="43.65021" lon="1.38025">
        <ele>151</ele>
        <time>2023-11-12T11:25:41Z</time>
      </trkpt>
      <trkpt lat="43.65026" lon="1.38033">
        <ele>151</ele>
        <time>2023-11-12T11:25:42Z</time>
      </trkpt>
      <trkpt lat="43.65028" lon="1.38036">
        <ele>151</ele>
        <time>2023-11-12T11:25:43Z</time>
      </trkpt>
      <trkpt lat="43.65029" lon="1.38038">
        <ele>151</ele>
        <time>2023-11-12T11:25:44Z</time>
      </trkpt>
      <trkpt lat="43.6503" lon="1.38041">
        <ele>151</ele>
        <time>2023-11-12T11:25:45Z</time>
      </trkpt>
      <trkpt lat="43.65031" lon="1.38043">
        <ele>151</ele>
        <time>2023-11-12T11:25:46Z</time>
      </trkpt>
      <trkpt lat="43.65032" lon="1.38044">
        <ele>152</ele>
        <time>2023-11-12T11:25:47Z</time>
      </trkpt>
      <trkpt lat="43.65033" lon="1.38046">
        <ele>152</ele>
        <time>2023-11-12T11:25:48Z</time>
      </trkpt>
      <trkpt lat="43.65033" lon="1.38048">
        <ele>151</ele>
        <time>2023-11-12T11:25:49Z</time>
      </trkpt>
      <trkpt lat="43.65038" lon="1.38057">
        <ele>151</ele>
        <time>2023-11-12T11:25:50Z</time>
      </trkpt>
      <trkpt lat="43.65039" lon="1.3806">
        <ele>151</ele>
        <time>2023-11-12T11:25:51Z</time>
      </trkpt>
      <trkpt lat="43.6504" lon="1.38062">
        <ele>152</ele>
        <time>2023-11-12T11:25:52Z</time>
      </trkpt>
      <trkpt lat="43.65041" lon="1.38065">
        <ele>152</ele>
        <time>2023-11-12T11:25:53Z</time>
      </trkpt>
      <trkpt lat="43.65042" lon="1.38066">
        <ele>151</ele>
        <time>2023-11-12T11:25:54Z</time>
      </trkpt>
      <trkpt lat="43.65042" lon="1.38068">
        <ele>151</ele>
        <time>2023-11-12T11:25:55Z</time>
      </trkpt>
      <trkpt lat="43.65043" lon="1.38069">
        <ele>151</ele>
        <time>2023-11-12T11:25:56Z</time>
      </trkpt>
      <trkpt lat="43.65044" lon="1.3807">
        <ele>151</ele>
        <time>2023-11-12T11:25:57Z</time>
      </trkpt>
      <trkpt lat="43.65045" lon="1.38071">
        <ele>151</ele>
        <time>2023-11-12T11:25:58Z</time>
      </trkpt>
      <trkpt lat="43.65049" lon="1.38079">
        <ele>151</ele>
        <time>2023-11-12T11:25:59Z</time>
      </trkpt>
      <trkpt lat="43.65049" lon="1.3808">
        <ele>151</ele>
        <time>2023-11-12T11:26:00Z</time>
      </trkpt>
      <trkpt lat="43.6505" lon="1.38081">
        <ele>151</ele>
        <time>2023-11-12T11:26:01Z</time>
      </trkpt>
      <trkpt lat="43.65051" lon="1.38083">
        <ele>151</ele>
        <time>2023-11-12T11:26:02Z</time>
      </trkpt>
      <trkpt lat="43.65051" lon="1.38084">
        <ele>151</ele>
        <time>2023-11-12T11:26:03Z</time>
      </trkpt>
      <trkpt lat="43.65055" lon="1.38093">
        <ele>151</ele>
        <time>2023-11-12T11:26:04Z</time>
      </trkpt>
      <trkpt lat="43.65056" lon="1.38095">
        <ele>151</ele>
        <time>2023-11-12T11:26:05Z</time>
      </trkpt>
      <trkpt lat="43.65057" lon="1.38097">
        <ele>152</ele>
        <time>2023-11-12T11:26:06Z</time>
      </trkpt>
      <trkpt lat="43.65057" lon="1.381">
        <ele>152</ele>
        <time>2023-11-12T11:26:07Z</time>
      </trkpt>
      <trkpt lat="43.65058" lon="1.38102">
        <ele>152</ele>
        <time>2023-11-12T11:26:08Z</time>
      </trkpt>
      <trkpt lat="43.65059" lon="1.38104">
        <ele>152</ele>
        <time>2023-11-12T11:26:09Z</time>
      </trkpt>
      <trkpt lat="43.65059" lon="1.38105">
        <ele>152</ele>
        <time>2023-11-12T11:26:10Z</time>
      </trkpt>
      <trkpt lat="43.6506" lon="1.38107">
        <ele>152</ele>
        <time>2023-11-12T11:26:11Z</time>
      </trkpt>
      <trkpt lat="43.65061" lon="1.38109">
        <ele>152</ele>
        <time>2023-11-12T11:26:12Z</time>
      </trkpt>
      <trkpt lat="43.65065" lon="1.38119">
        <ele>153</ele>
        <time>2023-11-12T11:26:13Z</time>
      </trkpt>
      <trkpt lat="43.65067" lon="1.38122">
        <ele>153</ele>
        <time>2023-11-12T11:26:14Z</time>
      </trkpt>
      <trkpt lat="43.65069" lon="1.38126">
        <ele>153</ele>
        <time>2023-11-12T11:26:15Z</time>
      </trkpt>
      <trkpt lat="43.65072" lon="1.38127">
        <ele>153</ele>
        <time>2023-11-12T11:26:16Z</time>
      </trkpt>
      <trkpt lat="43.65074" lon="1.38129">
        <ele>153</ele>
        <time>2023-11-12T11:26:17Z</time>
      </trkpt>
      <trkpt lat="43.65076" lon="1.38131">
        <ele>153</ele>
        <time>2023-11-12T11:26:18Z</time>
      </trkpt>
      <trkpt lat="43.65078" lon="1.38132">
        <ele>153</ele>
        <time>2023-11-12T11:26:19Z</time>
      </trkpt>
      <trkpt lat="43.65079" lon="1.38132">
        <ele>152</ele>
        <time>2023-11-12T11:26:20Z</time>
      </trkpt>
      <trkpt lat="43.6508" lon="1.38131">
        <ele>152</ele>
        <time>2023-11-12T11:26:21Z</time>
      </trkpt>
      <trkpt lat="43.65081" lon="1.3813">
        <ele>152</ele>
        <time>2023-11-12T11:26:22Z</time>
      </trkpt>
      <trkpt lat="43.65082" lon="1.3813">
        <ele>152</ele>
        <time>2023-11-12T11:26:23Z</time>
      </trkpt>
      <trkpt lat="43.65083" lon="1.38129">
        <ele>152</ele>
        <time>2023-11-12T11:26:24Z</time>
      </trkpt>
      <trkpt lat="43.6509" lon="1.38123">
        <ele>152</ele>
        <time>2023-11-12T11:26:25Z</time>
      </trkpt>
      <trkpt lat="43.65092" lon="1.38121">
        <ele>152</ele>
        <time>2023-11-12T11:26:26Z</time>
      </trkpt>
      <trkpt lat="43.65094" lon="1.3812">
        <ele>152</ele>
        <time>2023-11-12T11:26:27Z</time>
      </trkpt>
      <trkpt lat="43.65096" lon="1.38118">
        <ele>152</ele>
        <time>2023-11-12T11:26:28Z</time>
      </trkpt>
      <trkpt lat="43.65097" lon="1.38117">
        <ele>152</ele>
        <time>2023-11-12T11:26:29Z</time>
      </trkpt>
      <trkpt lat="43.65098" lon="1.38116">
        <ele>152</ele>
        <time>2023-11-12T11:26:30Z</time>
      </trkpt>
      <trkpt lat="43.65099" lon="1.38115">
        <ele>152</ele>
        <time>2023-11-12T11:26:31Z</time>
      </trkpt>
      <trkpt lat="43.651" lon="1.38115">
        <ele>153</ele>
        <time>2023-11-12T11:26:32Z</time>
      </trkpt>
      <trkpt lat="43.65106" lon="1.3811">
        <ele>153</ele>
        <time>2023-11-12T11:26:33Z</time>
      </trkpt>
      <trkpt lat="43.65108" lon="1.38109">
        <ele>153</ele>
        <time>2023-11-12T11:26:34Z</time>
      </trkpt>
      <trkpt lat="43.6511" lon="1.38108">
        <ele>153</ele>
        <time>2023-11-12T11:26:35Z</time>
      </trkpt>
      <trkpt lat="43.65111" lon="1.38108">
        <ele>153</ele>
        <time>2023-11-12T11:26:36Z</time>
      </trkpt>
      <trkpt lat="43.65113" lon="1.38107">
        <ele>153</ele>
        <time>2023-11-12T11:26:37Z</time>
      </trkpt>
      <trkpt lat="43.65116" lon="1.38105">
        <ele>153</ele>
        <time>2023-11-12T11:26:38Z</time>
      </trkpt>
      <trkpt lat="43.65119" lon="1.38103">
        <ele>153</ele>
        <time>2023-11-12T11:26:39Z</time>
      </trkpt>
      <trkpt lat="43.65122" lon="1.38102">
        <ele>153</ele>
        <time>2023-11-12T11:26:40Z</time>
      </trkpt>
      <trkpt lat="43.65124" lon="1.38101">
        <ele>153</ele>
        <time>2023-11-12T11:26:41Z</time>
      </trkpt>
      <trkpt lat="43.65126" lon="1.38099">
        <ele>153</ele>
        <time>2023-11-12T11:26:42Z</time>
      </trkpt>
      <trkpt lat="43.65128" lon="1.38098">
        <ele>153</ele>
        <time>2023-11-12T11:26:43Z</time>
      </trkpt>
      <trkpt lat="43.6513" lon="1.38097">
        <ele>153</ele>
        <time>2023-11-12T11:26:44Z</time>
      </trkpt>
      <trkpt lat="43.65132" lon="1.38095">
        <ele>153</ele>
        <time>2023-11-12T11:26:45Z</time>
      </trkpt>
      <trkpt lat="43.65134" lon="1.38093">
        <ele>153</ele>
        <time>2023-11-12T11:26:46Z</time>
      </trkpt>
      <trkpt lat="43.65136" lon="1.38092">
        <ele>153</ele>
        <time>2023-11-12T11:26:47Z</time>
      </trkpt>
      <trkpt lat="43.65139" lon="1.3809">
        <ele>154</ele>
        <time>2023-11-12T11:26:48Z</time>
      </trkpt>
      <trkpt lat="43.65141" lon="1.38089">
        <ele>154</ele>
        <time>2023-11-12T11:26:49Z</time>
      </trkpt>
      <trkpt lat="43.65143" lon="1.38087">
        <ele>153</ele>
        <time>2023-11-12T11:26:50Z</time>
      </trkpt>
      <trkpt lat="43.65145" lon="1.38086">
        <ele>153</ele>
        <time>2023-11-12T11:26:51Z</time>
      </trkpt>
      <trkpt lat="43.65147" lon="1.38084">
        <ele>153</ele>
        <time>2023-11-12T11:26:52Z</time>
      </trkpt>
      <trkpt lat="43.65149" lon="1.38083">
        <ele>154</ele>
        <time>2023-11-12T11:26:53Z</time>
      </trkpt>
      <trkpt lat="43.65151" lon="1.38081">
        <ele>154</ele>
        <time>2023-11-12T11:26:54Z</time>
      </trkpt>
      <trkpt lat="43.65153" lon="1.38079">
        <ele>154</ele>
        <time>2023-11-12T11:26:55Z</time>
      </trkpt>
      <trkpt lat="43.65155" lon="1.38078">
        <ele>154</ele>
        <time>2023-11-12T11:26:56Z</time>
      </trkpt>
      <trkpt lat="43.65157" lon="1.38076">
        <ele>153</ele>
        <time>2023-11-12T11:26:57Z</time>
      </trkpt>
      <trkpt lat="43.65159" lon="1.38074">
        <ele>153</ele>
        <time>2023-11-12T11:26:58Z</time>
      </trkpt>
      <trkpt lat="43.65162" lon="1.38073">
        <ele>154</ele>
        <time>2023-11-12T11:26:59Z</time>
      </trkpt>
      <trkpt lat="43.65164" lon="1.38071">
        <ele>154</ele>
        <time>2023-11-12T11:27:00Z</time>
      </trkpt>
      <trkpt lat="43.65166" lon="1.3807">
        <ele>154</ele>
        <time>2023-11-12T11:27:01Z</time>
      </trkpt>
      <trkpt lat="43.65168" lon="1.38068">
        <ele>153</ele>
        <time>2023-11-12T11:27:02Z</time>
      </trkpt>
      <trkpt lat="43.6517" lon="1.38067">
        <ele>153</ele>
        <time>2023-11-12T11:27:03Z</time>
      </trkpt>
      <trkpt lat="43.65172" lon="1.38065">
        <ele>153</ele>
        <time>2023-11-12T11:27:04Z</time>
      </trkpt>
      <trkpt lat="43.65174" lon="1.38064">
        <ele>153</ele>
        <time>2023-11-12T11:27:05Z</time>
      </trkpt>
      <trkpt lat="43.65176" lon="1.38063">
        <ele>153</ele>
        <time>2023-11-12T11:27:06Z</time>
      </trkpt>
      <trkpt lat="43.65179" lon="1.38062">
        <ele>153</ele>
        <time>2023-11-12T11:27:07Z</time>
      </trkpt>
      <trkpt lat="43.65181" lon="1.38061">
        <ele>153</ele>
        <time>2023-11-12T11:27:08Z</time>
      </trkpt>
      <trkpt lat="43.65183" lon="1.3806">
        <ele>154</ele>
        <time>2023-11-12T11:27:09Z</time>
      </trkpt>
      <trkpt lat="43.65185" lon="1.38059">
        <ele>154</ele>
        <time>2023-11-12T11:27:10Z</time>
      </trkpt>
      <trkpt lat="43.65188" lon="1.38058">
        <ele>153</ele>
        <time>2023-11-12T11:27:11Z</time>
      </trkpt>
      <trkpt lat="43.6519" lon="1.38057">
        <ele>153</ele>
        <time>2023-11-12T11:27:12Z</time>
      </trkpt>
      <trkpt lat="43.65192" lon="1.38055">
        <ele>153</ele>
        <time>2023-11-12T11:27:13Z</time>
      </trkpt>
      <trkpt lat="43.65194" lon="1.38054">
        <ele>153</ele>
        <time>2023-11-12T11:27:14Z</time>
      </trkpt>
      <trkpt lat="43.65196" lon="1.38052">
        <ele>153</ele>
        <time>2023-11-12T11:27:15Z</time>
      </trkpt>
      <trkpt lat="43.65198" lon="1.38051">
        <ele>153</ele>
        <time>2023-11-12T11:27:16Z</time>
      </trkpt>
      <trkpt lat="43.652" lon="1.38049">
        <ele>154</ele>
        <time>2023-11-12T11:27:17Z</time>
      </trkpt>
      <trkpt lat="43.65203" lon="1.38048">
        <ele>154</ele>
        <time>2023-11-12T11:27:18Z</time>
      </trkpt>
      <trkpt lat="43.65205" lon="1.38046">
        <ele>155</ele>
        <time>2023-11-12T11:27:19Z</time>
      </trkpt>
      <trkpt lat="43.65207" lon="1.38045">
        <ele>155</ele>
        <time>2023-11-12T11:27:20Z</time>
      </trkpt>
      <trkpt lat="43.65209" lon="1.38044">
        <ele>154</ele>
        <time>2023-11-12T11:27:21Z</time>
      </trkpt>
      <trkpt lat="43.65211" lon="1.38042">
        <ele>154</ele>
        <time>2023-11-12T11:27:22Z</time>
      </trkpt>
      <trkpt lat="43.65213" lon="1.38041">
        <ele>154</ele>
        <time>2023-11-12T11:27:23Z</time>
      </trkpt>
      <trkpt lat="43.65215" lon="1.38039">
        <ele>155</ele>
        <time>2023-11-12T11:27:24Z</time>
      </trkpt>
      <trkpt lat="43.65217" lon="1.38039">
        <ele>155</ele>
        <time>2023-11-12T11:27:25Z</time>
      </trkpt>
      <trkpt lat="43.65219" lon="1.38038">
        <ele>155</ele>
        <time>2023-11-12T11:27:26Z</time>
      </trkpt>
      <trkpt lat="43.65221" lon="1.38037">
        <ele>155</ele>
        <time>2023-11-12T11:27:27Z</time>
      </trkpt>
      <trkpt lat="43.65223" lon="1.3804">
        <ele>155</ele>
        <time>2023-11-12T11:27:28Z</time>
      </trkpt>
      <trkpt lat="43.65223" lon="1.38043">
        <ele>154</ele>
        <time>2023-11-12T11:27:29Z</time>
      </trkpt>
      <trkpt lat="43.65224" lon="1.38046">
        <ele>155</ele>
        <time>2023-11-12T11:27:30Z</time>
      </trkpt>
      <trkpt lat="43.65224" lon="1.3805">
        <ele>155</ele>
        <time>2023-11-12T11:27:31Z</time>
      </trkpt>
      <trkpt lat="43.65225" lon="1.38053">
        <ele>155</ele>
        <time>2023-11-12T11:27:32Z</time>
      </trkpt>
      <trkpt lat="43.65226" lon="1.38056">
        <ele>155</ele>
        <time>2023-11-12T11:27:33Z</time>
      </trkpt>
      <trkpt lat="43.65227" lon="1.38059">
        <ele>154</ele>
        <time>2023-11-12T11:27:34Z</time>
      </trkpt>
      <trkpt lat="43.65227" lon="1.38061">
        <ele>154</ele>
        <time>2023-11-12T11:27:35Z</time>
      </trkpt>
      <trkpt lat="43.65228" lon="1.38064">
        <ele>154</ele>
        <time>2023-11-12T11:27:36Z</time>
      </trkpt>
      <trkpt lat="43.65229" lon="1.38067">
        <ele>154</ele>
        <time>2023-11-12T11:27:37Z</time>
      </trkpt>
      <trkpt lat="43.6523" lon="1.38069">
        <ele>154</ele>
        <time>2023-11-12T11:27:38Z</time>
      </trkpt>
      <trkpt lat="43.6523" lon="1.38072">
        <ele>154</ele>
        <time>2023-11-12T11:27:39Z</time>
      </trkpt>
      <trkpt lat="43.65232" lon="1.38076">
        <ele>154</ele>
        <time>2023-11-12T11:27:40Z</time>
      </trkpt>
      <trkpt lat="43.65233" lon="1.3808">
        <ele>154</ele>
        <time>2023-11-12T11:27:41Z</time>
      </trkpt>
      <trkpt lat="43.65234" lon="1.38085">
        <ele>154</ele>
        <time>2023-11-12T11:27:42Z</time>
      </trkpt>
      <trkpt lat="43.65235" lon="1.38087">
        <ele>154</ele>
        <time>2023-11-12T11:27:43Z</time>
      </trkpt>
      <trkpt lat="43.65236" lon="1.38091">
        <ele>154</ele>
        <time>2023-11-12T11:27:44Z</time>
      </trkpt>
      <trkpt lat="43.65237" lon="1.38094">
        <ele>154</ele>
        <time>2023-11-12T11:27:45Z</time>
      </trkpt>
      <trkpt lat="43.65238" lon="1.38098">
        <ele>154</ele>
        <time>2023-11-12T11:27:46Z</time>
      </trkpt>
      <trkpt lat="43.65239" lon="1.38101">
        <ele>154</ele>
        <time>2023-11-12T11:27:47Z</time>
      </trkpt>
      <trkpt lat="43.6524" lon="1.38104">
        <ele>154</ele>
        <time>2023-11-12T11:27:48Z</time>
      </trkpt>
      <trkpt lat="43.65241" lon="1.38107">
        <ele>154</ele>
        <time>2023-11-12T11:27:49Z</time>
      </trkpt>
      <trkpt lat="43.65241" lon="1.3811">
        <ele>154</ele>
        <time>2023-11-12T11:27:50Z</time>
      </trkpt>
      <trkpt lat="43.65242" lon="1.38112">
        <ele>154</ele>
        <time>2023-11-12T11:27:51Z</time>
      </trkpt>
      <trkpt lat="43.65243" lon="1.38115">
        <ele>154</ele>
        <time>2023-11-12T11:27:52Z</time>
      </trkpt>
      <trkpt lat="43.65243" lon="1.38117">
        <ele>154</ele>
        <time>2023-11-12T11:27:53Z</time>
      </trkpt>
      <trkpt lat="43.65244" lon="1.3812">
        <ele>154</ele>
        <time>2023-11-12T11:27:54Z</time>
      </trkpt>
      <trkpt lat="43.65243" lon="1.38124">
        <ele>153</ele>
        <time>2023-11-12T11:27:55Z</time>
      </trkpt>
      <trkpt lat="43.65243" lon="1.38129">
        <ele>153</ele>
        <time>2023-11-12T11:27:56Z</time>
      </trkpt>
      <trkpt lat="43.65242" lon="1.38133">
        <ele>153</ele>
        <time>2023-11-12T11:27:57Z</time>
      </trkpt>
      <trkpt lat="43.6524" lon="1.38135">
        <ele>153</ele>
        <time>2023-11-12T11:27:58Z</time>
      </trkpt>
      <trkpt lat="43.65238" lon="1.38137">
        <ele>154</ele>
        <time>2023-11-12T11:27:59Z</time>
      </trkpt>
      <trkpt lat="43.65236" lon="1.38139">
        <ele>154</ele>
        <time>2023-11-12T11:28:00Z</time>
      </trkpt>
      <trkpt lat="43.65234" lon="1.38141">
        <ele>154</ele>
        <time>2023-11-12T11:28:01Z</time>
      </trkpt>
      <trkpt lat="43.65232" lon="1.38143">
        <ele>154</ele>
        <time>2023-11-12T11:28:02Z</time>
      </trkpt>
      <trkpt lat="43.6523" lon="1.38144">
        <ele>154</ele>
        <time>2023-11-12T11:28:03Z</time>
      </trkpt>
      <trkpt lat="43.65228" lon="1.38145">
        <ele>153</ele>
        <time>2023-11-12T11:28:04Z</time>
      </trkpt>
      <trkpt lat="43.65225" lon="1.38147">
        <ele>153</ele>
        <time>2023-11-12T11:28:05Z</time>
      </trkpt>
      <trkpt lat="43.65224" lon="1.38148">
        <ele>154</ele>
        <time>2023-11-12T11:28:06Z</time>
      </trkpt>
      <trkpt lat="43.65223" lon="1.38149">
        <ele>154</ele>
        <time>2023-11-12T11:28:07Z</time>
      </trkpt>
      <trkpt lat="43.65222" lon="1.3815">
        <ele>154</ele>
        <time>2023-11-12T11:28:08Z</time>
      </trkpt>
      <trkpt lat="43.65221" lon="1.38151">
        <ele>154</ele>
        <time>2023-11-12T11:28:09Z</time>
      </trkpt>
      <trkpt lat="43.65215" lon="1.38156">
        <ele>154</ele>
        <time>2023-11-12T11:28:10Z</time>
      </trkpt>
      <trkpt lat="43.65213" lon="1.38158">
        <ele>154</ele>
        <time>2023-11-12T11:28:11Z</time>
      </trkpt>
      <trkpt lat="43.65211" lon="1.3816">
        <ele>153</ele>
        <time>2023-11-12T11:28:12Z</time>
      </trkpt>
      <trkpt lat="43.65209" lon="1.38162">
        <ele>153</ele>
        <time>2023-11-12T11:28:13Z</time>
      </trkpt>
      <trkpt lat="43.65208" lon="1.38163">
        <ele>153</ele>
        <time>2023-11-12T11:28:14Z</time>
      </trkpt>
      <trkpt lat="43.65207" lon="1.38163">
        <ele>153</ele>
        <time>2023-11-12T11:28:15Z</time>
      </trkpt>
      <trkpt lat="43.65206" lon="1.38164">
        <ele>153</ele>
        <time>2023-11-12T11:28:16Z</time>
      </trkpt>
      <trkpt lat="43.65205" lon="1.38165">
        <ele>153</ele>
        <time>2023-11-12T11:28:17Z</time>
      </trkpt>
      <trkpt lat="43.65204" lon="1.38166">
        <ele>153</ele>
        <time>2023-11-12T11:28:18Z</time>
      </trkpt>
      <trkpt lat="43.65198" lon="1.38173">
        <ele>153</ele>
        <time>2023-11-12T11:28:19Z</time>
      </trkpt>
      <trkpt lat="43.65196" lon="1.38175">
        <ele>153</ele>
        <time>2023-11-12T11:28:20Z</time>
      </trkpt>
      <trkpt lat="43.65194" lon="1.38177">
        <ele>153</ele>
        <time>2023-11-12T11:28:21Z</time>
      </trkpt>
      <trkpt lat="43.65192" lon="1.38179">
        <ele>153</ele>
        <time>2023-11-12T11:28:22Z</time>
      </trkpt>
      <trkpt lat="43.6519" lon="1.38181">
        <ele>153</ele>
        <time>2023-11-12T11:28:23Z</time>
      </trkpt>
      <trkpt lat="43.65188" lon="1.38183">
        <ele>153</ele>
        <time>2023-11-12T11:28:24Z</time>
      </trkpt>
      <trkpt lat="43.65186" lon="1.38185">
        <ele>153</ele>
        <time>2023-11-12T11:28:25Z</time>
      </trkpt>
      <trkpt lat="43.65184" lon="1.38187">
        <ele>152</ele>
        <time>2023-11-12T11:28:26Z</time>
      </trkpt>
      <trkpt lat="43.65182" lon="1.38189">
        <ele>152</ele>
        <time>2023-11-12T11:28:27Z</time>
      </trkpt>
      <trkpt lat="43.6518" lon="1.38191">
        <ele>152</ele>
        <time>2023-11-12T11:28:28Z</time>
      </trkpt>
      <trkpt lat="43.65178" lon="1.38193">
        <ele>152</ele>
        <time>2023-11-12T11:28:29Z</time>
      </trkpt>
      <trkpt lat="43.65176" lon="1.38195">
        <ele>152</ele>
        <time>2023-11-12T11:28:30Z</time>
      </trkpt>
      <trkpt lat="43.65174" lon="1.38197">
        <ele>152</ele>
        <time>2023-11-12T11:28:31Z</time>
      </trkpt>
      <trkpt lat="43.65173" lon="1.38199">
        <ele>152</ele>
        <time>2023-11-12T11:28:32Z</time>
      </trkpt>
      <trkpt lat="43.65171" lon="1.38202">
        <ele>152</ele>
        <time>2023-11-12T11:28:33Z</time>
      </trkpt>
      <trkpt lat="43.6517" lon="1.38204">
        <ele>152</ele>
        <time>2023-11-12T11:28:34Z</time>
      </trkpt>
      <trkpt lat="43.65168" lon="1.38206">
        <ele>152</ele>
        <time>2023-11-12T11:28:35Z</time>
      </trkpt>
      <trkpt lat="43.65168" lon="1.38209">
        <ele>152</ele>
        <time>2023-11-12T11:28:36Z</time>
      </trkpt>
      <trkpt lat="43.65167" lon="1.38212">
        <ele>152</ele>
        <time>2023-11-12T11:28:37Z</time>
      </trkpt>
      <trkpt lat="43.65166" lon="1.38215">
        <ele>152</ele>
        <time>2023-11-12T11:28:38Z</time>
      </trkpt>
      <trkpt lat="43.65166" lon="1.38219">
        <ele>152</ele>
        <time>2023-11-12T11:28:39Z</time>
      </trkpt>
      <trkpt lat="43.65165" lon="1.38222">
        <ele>152</ele>
        <time>2023-11-12T11:28:40Z</time>
      </trkpt>
      <trkpt lat="43.65165" lon="1.38225">
        <ele>152</ele>
        <time>2023-11-12T11:28:41Z</time>
      </trkpt>
      <trkpt lat="43.65165" lon="1.38225">
        <ele>152</ele>
        <time>2023-11-12T11:28:42Z</time>
      </trkpt>
      <trkpt lat="43.65165" lon="1.38228">
        <ele>152</ele>
        <time>2023-11-12T11:28:43Z</time>
      </trkpt>
      <trkpt lat="43.65166" lon="1.38231">
        <ele>152</ele>
        <time>2023-11-12T11:28:44Z</time>
      </trkpt>
      <trkpt lat="43.65166" lon="1.38234">
        <ele>152</ele>
        <time>2023-11-12T11:28:45Z</time>
      </trkpt>
      <trkpt lat="43.65167" lon="1.38237">
        <ele>152</ele>
        <time>2023-11-12T11:28:46Z</time>
      </trkpt>
      <trkpt lat="43.65167" lon="1.3824">
        <ele>152</ele>
        <time>2023-11-12T11:28:47Z</time>
      </trkpt>
      <trkpt lat="43.65168" lon="1.38244">
        <ele>152</ele>
        <time>2023-11-12T11:28:48Z</time>
      </trkpt>
      <trkpt lat="43.65169" lon="1.38247">
        <ele>152</ele>
        <time>2023-11-12T11:28:49Z</time>
      </trkpt>
      <trkpt lat="43.6517" lon="1.3825">
        <ele>152</ele>
        <time>2023-11-12T11:28:50Z</time>
      </trkpt>
      <trkpt lat="43.65172" lon="1.38253">
        <ele>152</ele>
        <time>2023-11-12T11:28:51Z</time>
      </trkpt>
      <trkpt lat="43.65173" lon="1.38256">
        <ele>152</ele>
        <time>2023-11-12T11:28:52Z</time>
      </trkpt>
      <trkpt lat="43.65173" lon="1.38258">
        <ele>152</ele>
        <time>2023-11-12T11:28:53Z</time>
      </trkpt>
      <trkpt lat="43.65174" lon="1.38261">
        <ele>152</ele>
        <time>2023-11-12T11:28:54Z</time>
      </trkpt>
      <trkpt lat="43.65175" lon="1.38264">
        <ele>152</ele>
        <time>2023-11-12T11:28:55Z</time>
      </trkpt>
      <trkpt lat="43.65175" lon="1.38267">
        <ele>152</ele>
        <time>2023-11-12T11:28:56Z</time>
      </trkpt>
      <trkpt lat="43.65176" lon="1.38269">
        <ele>152</ele>
        <time>2023-11-12T11:28:57Z</time>
      </trkpt>
      <trkpt lat="43.65176" lon="1.38271">
        <ele>152</ele>
        <time>2023-11-12T11:28:58Z</time>
      </trkpt>
      <trkpt lat="43.65176" lon="1.38272">
        <ele>151</ele>
        <time>2023-11-12T11:28:59Z</time>
      </trkpt>
      <trkpt lat="43.65176" lon="1.38274">
        <ele>151</ele>
        <time>2023-11-12T11:29:00Z</time>
      </trkpt>
      <trkpt lat="43.65176" lon="1.38275">
        <ele>151</ele>
        <time>2023-11-12T11:29:01Z</time>
      </trkpt>
      <trkpt lat="43.65177" lon="1.38276">
        <ele>151</ele>
        <time>2023-11-12T11:29:02Z</time>
      </trkpt>
      <trkpt lat="43.65177" lon="1.38283">
        <ele>151</ele>
        <time>2023-11-12T11:29:03Z</time>
      </trkpt>
      <trkpt lat="43.65178" lon="1.38289">
        <ele>151</ele>
        <time>2023-11-12T11:29:04Z</time>
      </trkpt>
      <trkpt lat="43.65179" lon="1.38292">
        <ele>151</ele>
        <time>2023-11-12T11:29:05Z</time>
      </trkpt>
      <trkpt lat="43.6518" lon="1.38295">
        <ele>151</ele>
        <time>2023-11-12T11:29:06Z</time>
      </trkpt>
      <trkpt lat="43.6518" lon="1.38298">
        <ele>151</ele>
        <time>2023-11-12T11:29:07Z</time>
      </trkpt>
      <trkpt lat="43.65181" lon="1.38301">
        <ele>151</ele>
        <time>2023-11-12T11:29:08Z</time>
      </trkpt>
      <trkpt lat="43.65181" lon="1.38303">
        <ele>151</ele>
        <time>2023-11-12T11:29:09Z</time>
      </trkpt>
      <trkpt lat="43.65182" lon="1.38304">
        <ele>151</ele>
        <time>2023-11-12T11:29:10Z</time>
      </trkpt>
      <trkpt lat="43.65182" lon="1.38306">
        <ele>151</ele>
        <time>2023-11-12T11:29:11Z</time>
      </trkpt>
      <trkpt lat="43.65182" lon="1.38307">
        <ele>151</ele>
        <time>2023-11-12T11:29:12Z</time>
      </trkpt>
      <trkpt lat="43.65182" lon="1.38309">
        <ele>151</ele>
        <time>2023-11-12T11:29:13Z</time>
      </trkpt>
      <trkpt lat="43.65184" lon="1.3832">
        <ele>151</ele>
        <time>2023-11-12T11:29:14Z</time>
      </trkpt>
      <trkpt lat="43.65185" lon="1.38323">
        <ele>151</ele>
        <time>2023-11-12T11:29:15Z</time>
      </trkpt>
      <trkpt lat="43.65186" lon="1.38326">
        <ele>151</ele>
        <time>2023-11-12T11:29:16Z</time>
      </trkpt>
      <trkpt lat="43.65186" lon="1.38329">
        <ele>151</ele>
        <time>2023-11-12T11:29:17Z</time>
      </trkpt>
      <trkpt lat="43.65187" lon="1.38333">
        <ele>152</ele>
        <time>2023-11-12T11:29:18Z</time>
      </trkpt>
      <trkpt lat="43.65188" lon="1.38336">
        <ele>152</ele>
        <time>2023-11-12T11:29:19Z</time>
      </trkpt>
      <trkpt lat="43.65189" lon="1.38339">
        <ele>152</ele>
        <time>2023-11-12T11:29:20Z</time>
      </trkpt>
      <trkpt lat="43.6519" lon="1.38342">
        <ele>152</ele>
        <time>2023-11-12T11:29:21Z</time>
      </trkpt>
      <trkpt lat="43.6519" lon="1.38345">
        <ele>152</ele>
        <time>2023-11-12T11:29:22Z</time>
      </trkpt>
      <trkpt lat="43.65191" lon="1.38348">
        <ele>152</ele>
        <time>2023-11-12T11:29:23Z</time>
      </trkpt>
      <trkpt lat="43.65191" lon="1.38351">
        <ele>152</ele>
        <time>2023-11-12T11:29:24Z</time>
      </trkpt>
      <trkpt lat="43.65192" lon="1.38355">
        <ele>152</ele>
        <time>2023-11-12T11:29:25Z</time>
      </trkpt>
      <trkpt lat="43.65192" lon="1.38358">
        <ele>152</ele>
        <time>2023-11-12T11:29:26Z</time>
      </trkpt>
      <trkpt lat="43.65192" lon="1.38361">
        <ele>152</ele>
        <time>2023-11-12T11:29:27Z</time>
      </trkpt>
      <trkpt lat="43.65193" lon="1.38365">
        <ele>152</ele>
        <time>2023-11-12T11:29:28Z</time>
      </trkpt>
      <trkpt lat="43.65193" lon="1.38368">
        <ele>152</ele>
        <time>2023-11-12T11:29:29Z</time>
      </trkpt>
      <trkpt lat="43.65194" lon="1.38372">
        <ele>153</ele>
        <time>2023-11-12T11:29:30Z</time>
      </trkpt>
      <trkpt lat="43.65194" lon="1.38375">
        <ele>153</ele>
        <time>2023-11-12T11:29:31Z</time>
      </trkpt>
      <trkpt lat="43.65194" lon="1.38379">
        <ele>153</ele>
        <time>2023-11-12T11:29:32Z</time>
      </trkpt>
      <trkpt lat="43.65195" lon="1.38382">
        <ele>152</ele>
        <time>2023-11-12T11:29:33Z</time>
      </trkpt>
      <trkpt lat="43.65196" lon="1.38385">
        <ele>152</ele>
        <time>2023-11-12T11:29:34Z</time>
      </trkpt>
      <trkpt lat="43.65197" lon="1.38388">
        <ele>152</ele>
        <time>2023-11-12T11:29:35Z</time>
      </trkpt>
      <trkpt lat="43.65197" lon="1.38391">
        <ele>152</ele>
        <time>2023-11-12T11:29:36Z</time>
      </trkpt>
      <trkpt lat="43.65198" lon="1.38394">
        <ele>152</ele>
        <time>2023-11-12T11:29:37Z</time>
      </trkpt>
      <trkpt lat="43.65199" lon="1.38396">
        <ele>151</ele>
        <time>2023-11-12T11:29:38Z</time>
      </trkpt>
      <trkpt lat="43.652" lon="1.38399">
        <ele>151</ele>
        <time>2023-11-12T11:29:39Z</time>
      </trkpt>
      <trkpt lat="43.652" lon="1.38401">
        <ele>151</ele>
        <time>2023-11-12T11:29:40Z</time>
      </trkpt>
      <trkpt lat="43.652" lon="1.38401">
        <ele>150</ele>
        <time>2023-11-12T11:29:41Z</time>
      </trkpt>
      <trkpt lat="43.65202" lon="1.38405">
        <ele>150</ele>
        <time>2023-11-12T11:29:42Z</time>
      </trkpt>
      <trkpt lat="43.65203" lon="1.38407">
        <ele>150</ele>
        <time>2023-11-12T11:29:43Z</time>
      </trkpt>
      <trkpt lat="43.65205" lon="1.3841">
        <ele>150</ele>
        <time>2023-11-12T11:29:44Z</time>
      </trkpt>
      <trkpt lat="43.65207" lon="1.38412">
        <ele>149</ele>
        <time>2023-11-12T11:29:45Z</time>
      </trkpt>
      <trkpt lat="43.65208" lon="1.38414">
        <ele>149</ele>
        <time>2023-11-12T11:29:46Z</time>
      </trkpt>
      <trkpt lat="43.6521" lon="1.38416">
        <ele>149</ele>
        <time>2023-11-12T11:29:47Z</time>
      </trkpt>
      <trkpt lat="43.65211" lon="1.38419">
        <ele>149</ele>
        <time>2023-11-12T11:29:48Z</time>
      </trkpt>
      <trkpt lat="43.65212" lon="1.38422">
        <ele>149</ele>
        <time>2023-11-12T11:29:49Z</time>
      </trkpt>
      <trkpt lat="43.65214" lon="1.38425">
        <ele>149</ele>
        <time>2023-11-12T11:29:50Z</time>
      </trkpt>
      <trkpt lat="43.65215" lon="1.38428">
        <ele>149</ele>
        <time>2023-11-12T11:29:51Z</time>
      </trkpt>
      <trkpt lat="43.65216" lon="1.38431">
        <ele>149</ele>
        <time>2023-11-12T11:29:52Z</time>
      </trkpt>
      <trkpt lat="43.65217" lon="1.38434">
        <ele>149</ele>
        <time>2023-11-12T11:29:53Z</time>
      </trkpt>
      <trkpt lat="43.65218" lon="1.38437">
        <ele>148</ele>
        <time>2023-11-12T11:29:54Z</time>
      </trkpt>
      <trkpt lat="43.65219" lon="1.38439">
        <ele>148</ele>
        <time>2023-11-12T11:29:55Z</time>
      </trkpt>
      <trkpt lat="43.65219" lon="1.38442">
        <ele>148</ele>
        <time>2023-11-12T11:29:56Z</time>
      </trkpt>
      <trkpt lat="43.6522" lon="1.38444">
        <ele>148</ele>
        <time>2023-11-12T11:29:57Z</time>
      </trkpt>
      <trkpt lat="43.65221" lon="1.38446">
        <ele>148</ele>
        <time>2023-11-12T11:29:58Z</time>
      </trkpt>
      <trkpt lat="43.65221" lon="1.38449">
        <ele>147</ele>
        <time>2023-11-12T11:29:59Z</time>
      </trkpt>
      <trkpt lat="43.65222" lon="1.38451">
        <ele>147</ele>
        <time>2023-11-12T11:30:00Z</time>
      </trkpt>
      <trkpt lat="43.65223" lon="1.38452">
        <ele>147</ele>
        <time>2023-11-12T11:30:01Z</time>
      </trkpt>
      <trkpt lat="43.65223" lon="1.38454">
        <ele>148</ele>
        <time>2023-11-12T11:30:02Z</time>
      </trkpt>
      <trkpt lat="43.65224" lon="1.38455">
        <ele>148</ele>
        <time>2023-11-12T11:30:03Z</time>
      </trkpt>
      <trkpt lat="43.65224" lon="1.38457">
        <ele>148</ele>
        <time>2023-11-12T11:30:04Z</time>
      </trkpt>
      <trkpt lat="43.65225" lon="1.38458">
        <ele>148</ele>
        <time>2023-11-12T11:30:05Z</time>
      </trkpt>
      <trkpt lat="43.65228" lon="1.38468">
        <ele>148</ele>
        <time>2023-11-12T11:30:06Z</time>
      </trkpt>
      <trkpt lat="43.6523" lon="1.38472">
        <ele>148</ele>
        <time>2023-11-12T11:30:07Z</time>
      </trkpt>
      <trkpt lat="43.6523" lon="1.38474">
        <ele>148</ele>
        <time>2023-11-12T11:30:08Z</time>
      </trkpt>
      <trkpt lat="43.65231" lon="1.38475">
        <ele>148</ele>
        <time>2023-11-12T11:30:09Z</time>
      </trkpt>
      <trkpt lat="43.65231" lon="1.38477">
        <ele>148</ele>
        <time>2023-11-12T11:30:10Z</time>
      </trkpt>
      <trkpt lat="43.65231" lon="1.38479">
        <ele>148</ele>
        <time>2023-11-12T11:30:11Z</time>
      </trkpt>
      <trkpt lat="43.65232" lon="1.3848">
        <ele>148</ele>
        <time>2023-11-12T11:30:12Z</time>
      </trkpt>
      <trkpt lat="43.65234" lon="1.38489">
        <ele>148</ele>
        <time>2023-11-12T11:30:13Z</time>
      </trkpt>
      <trkpt lat="43.65234" lon="1.38491">
        <ele>147</ele>
        <time>2023-11-12T11:30:14Z</time>
      </trkpt>
      <trkpt lat="43.65235" lon="1.38493">
        <ele>147</ele>
        <time>2023-11-12T11:30:15Z</time>
      </trkpt>
      <trkpt lat="43.65235" lon="1.38495">
        <ele>147</ele>
        <time>2023-11-12T11:30:16Z</time>
      </trkpt>
      <trkpt lat="43.65235" lon="1.38497">
        <ele>147</ele>
        <time>2023-11-12T11:30:17Z</time>
      </trkpt>
      <trkpt lat="43.65236" lon="1.38498">
        <ele>147</ele>
        <time>2023-11-12T11:30:18Z</time>
      </trkpt>
      <trkpt lat="43.65238" lon="1.38509">
        <ele>147</ele>
        <time>2023-11-12T11:30:19Z</time>
      </trkpt>
      <trkpt lat="43.6524" lon="1.38512">
        <ele>147</ele>
        <time>2023-11-12T11:30:20Z</time>
      </trkpt>
      <trkpt lat="43.65241" lon="1.38515">
        <ele>147</ele>
        <time>2023-11-12T11:30:21Z</time>
      </trkpt>
      <trkpt lat="43.65242" lon="1.38518">
        <ele>147</ele>
        <time>2023-11-12T11:30:22Z</time>
      </trkpt>
      <trkpt lat="43.65243" lon="1.38521">
        <ele>148</ele>
        <time>2023-11-12T11:30:23Z</time>
      </trkpt>
      <trkpt lat="43.65244" lon="1.38524">
        <ele>148</ele>
        <time>2023-11-12T11:30:24Z</time>
      </trkpt>
      <trkpt lat="43.65245" lon="1.38527">
        <ele>148</ele>
        <time>2023-11-12T11:30:25Z</time>
      </trkpt>
      <trkpt lat="43.65246" lon="1.3853">
        <ele>148</ele>
        <time>2023-11-12T11:30:26Z</time>
      </trkpt>
      <trkpt lat="43.65246" lon="1.38532">
        <ele>148</ele>
        <time>2023-11-12T11:30:27Z</time>
      </trkpt>
      <trkpt lat="43.65247" lon="1.38534">
        <ele>148</ele>
        <time>2023-11-12T11:30:28Z</time>
      </trkpt>
      <trkpt lat="43.65247" lon="1.38536">
        <ele>148</ele>
        <time>2023-11-12T11:30:29Z</time>
      </trkpt>
      <trkpt lat="43.65248" lon="1.38537">
        <ele>148</ele>
        <time>2023-11-12T11:30:30Z</time>
      </trkpt>
      <trkpt lat="43.65251" lon="1.38546">
        <ele>148</ele>
        <time>2023-11-12T11:30:31Z</time>
      </trkpt>
      <trkpt lat="43.65251" lon="1.38548">
        <ele>148</ele>
        <time>2023-11-12T11:30:32Z</time>
      </trkpt>
      <trkpt lat="43.65252" lon="1.38549">
        <ele>148</ele>
        <time>2023-11-12T11:30:33Z</time>
      </trkpt>
      <trkpt lat="43.65252" lon="1.38551">
        <ele>148</ele>
        <time>2023-11-12T11:30:34Z</time>
      </trkpt>
      <trkpt lat="43.65254" lon="1.38559">
        <ele>148</ele>
        <time>2023-11-12T11:30:35Z</time>
      </trkpt>
      <trkpt lat="43.65255" lon="1.38561">
        <ele>148</ele>
        <time>2023-11-12T11:30:36Z</time>
      </trkpt>
      <trkpt lat="43.65256" lon="1.38563">
        <ele>147</ele>
        <time>2023-11-12T11:30:37Z</time>
      </trkpt>
      <trkpt lat="43.65256" lon="1.38564">
        <ele>147</ele>
        <time>2023-11-12T11:30:38Z</time>
      </trkpt>
      <trkpt lat="43.6526" lon="1.38574">
        <ele>147</ele>
        <time>2023-11-12T11:30:39Z</time>
      </trkpt>
      <trkpt lat="43.65261" lon="1.38577">
        <ele>147</ele>
        <time>2023-11-12T11:30:40Z</time>
      </trkpt>
      <trkpt lat="43.65262" lon="1.3858">
        <ele>147</ele>
        <time>2023-11-12T11:30:41Z</time>
      </trkpt>
      <trkpt lat="43.65264" lon="1.38583">
        <ele>147</ele>
        <time>2023-11-12T11:30:42Z</time>
      </trkpt>
      <trkpt lat="43.65264" lon="1.38585">
        <ele>147</ele>
        <time>2023-11-12T11:30:43Z</time>
      </trkpt>
      <trkpt lat="43.65265" lon="1.38588">
        <ele>147</ele>
        <time>2023-11-12T11:30:44Z</time>
      </trkpt>
      <trkpt lat="43.65266" lon="1.38591">
        <ele>148</ele>
        <time>2023-11-12T11:30:45Z</time>
      </trkpt>
      <trkpt lat="43.65267" lon="1.38594">
        <ele>148</ele>
        <time>2023-11-12T11:30:46Z</time>
      </trkpt>
      <trkpt lat="43.65267" lon="1.38596">
        <ele>148</ele>
        <time>2023-11-12T11:30:47Z</time>
      </trkpt>
      <trkpt lat="43.65269" lon="1.38599">
        <ele>148</ele>
        <time>2023-11-12T11:30:48Z</time>
      </trkpt>
      <trkpt lat="43.6527" lon="1.38602">
        <ele>148</ele>
        <time>2023-11-12T11:30:49Z</time>
      </trkpt>
      <trkpt lat="43.65272" lon="1.38605">
        <ele>148</ele>
        <time>2023-11-12T11:30:50Z</time>
      </trkpt>
      <trkpt lat="43.65273" lon="1.38607">
        <ele>148</ele>
        <time>2023-11-12T11:30:51Z</time>
      </trkpt>
      <trkpt lat="43.65274" lon="1.38609">
        <ele>148</ele>
        <time>2023-11-12T11:30:52Z</time>
      </trkpt>
      <trkpt lat="43.65275" lon="1.3861">
        <ele>148</ele>
        <time>2023-11-12T11:30:53Z</time>
      </trkpt>
      <trkpt lat="43.65275" lon="1.38611">
        <ele>148</ele>
        <time>2023-11-12T11:30:54Z</time>
      </trkpt>
      <trkpt lat="43.65276" lon="1.38612">
        <ele>148</ele>
        <time>2023-11-12T11:30:55Z</time>
      </trkpt>
      <trkpt lat="43.65277" lon="1.38613">
        <ele>148</ele>
        <time>2023-11-12T11:30:56Z</time>
      </trkpt>
      <trkpt lat="43.65282" lon="1.3862">
        <ele>149</ele>
        <time>2023-11-12T11:30:57Z</time>
      </trkpt>
      <trkpt lat="43.65283" lon="1.38621">
        <ele>149</ele>
        <time>2023-11-12T11:30:58Z</time>
      </trkpt>
      <trkpt lat="43.65284" lon="1.38623">
        <ele>149</ele>
        <time>2023-11-12T11:30:59Z</time>
      </trkpt>
      <trkpt lat="43.65289" lon="1.38629">
        <ele>149</ele>
        <time>2023-11-12T11:31:00Z</time>
      </trkpt>
      <trkpt lat="43.6529" lon="1.3863">
        <ele>149</ele>
        <time>2023-11-12T11:31:01Z</time>
      </trkpt>
      <trkpt lat="43.6529" lon="1.38631">
        <ele>150</ele>
        <time>2023-11-12T11:31:02Z</time>
      </trkpt>
      <trkpt lat="43.65291" lon="1.38633">
        <ele>150</ele>
        <time>2023-11-12T11:31:03Z</time>
      </trkpt>
      <trkpt lat="43.65291" lon="1.38634">
        <ele>150</ele>
        <time>2023-11-12T11:31:04Z</time>
      </trkpt>
      <trkpt lat="43.65295" lon="1.38643">
        <ele>150</ele>
        <time>2023-11-12T11:31:05Z</time>
      </trkpt>
      <trkpt lat="43.65296" lon="1.38647">
        <ele>150</ele>
        <time>2023-11-12T11:31:06Z</time>
      </trkpt>
      <trkpt lat="43.65296" lon="1.3865">
        <ele>150</ele>
        <time>2023-11-12T11:31:07Z</time>
      </trkpt>
      <trkpt lat="43.65297" lon="1.38654">
        <ele>150</ele>
        <time>2023-11-12T11:31:08Z</time>
      </trkpt>
      <trkpt lat="43.65297" lon="1.38655">
        <ele>149</ele>
        <time>2023-11-12T11:31:09Z</time>
      </trkpt>
      <trkpt lat="43.65298" lon="1.38656">
        <ele>149</ele>
        <time>2023-11-12T11:31:10Z</time>
      </trkpt>
      <trkpt lat="43.65298" lon="1.38658">
        <ele>149</ele>
        <time>2023-11-12T11:31:11Z</time>
      </trkpt>
      <trkpt lat="43.65299" lon="1.38659">
        <ele>149</ele>
        <time>2023-11-12T11:31:12Z</time>
      </trkpt>
      <trkpt lat="43.65299" lon="1.3866">
        <ele>148</ele>
        <time>2023-11-12T11:31:13Z</time>
      </trkpt>
      <trkpt lat="43.65303" lon="1.38669">
        <ele>148</ele>
        <time>2023-11-12T11:31:14Z</time>
      </trkpt>
      <trkpt lat="43.65303" lon="1.3867">
        <ele>148</ele>
        <time>2023-11-12T11:31:15Z</time>
      </trkpt>
      <trkpt lat="43.65304" lon="1.38672">
        <ele>148</ele>
        <time>2023-11-12T11:31:16Z</time>
      </trkpt>
      <trkpt lat="43.65305" lon="1.38674">
        <ele>148</ele>
        <time>2023-11-12T11:31:17Z</time>
      </trkpt>
      <trkpt lat="43.6531" lon="1.38684">
        <ele>148</ele>
        <time>2023-11-12T11:31:18Z</time>
      </trkpt>
      <trkpt lat="43.65312" lon="1.38688">
        <ele>149</ele>
        <time>2023-11-12T11:31:19Z</time>
      </trkpt>
      <trkpt lat="43.65313" lon="1.38692">
        <ele>149</ele>
        <time>2023-11-12T11:31:20Z</time>
      </trkpt>
      <trkpt lat="43.65313" lon="1.38693">
        <ele>149</ele>
        <time>2023-11-12T11:31:21Z</time>
      </trkpt>
      <trkpt lat="43.65314" lon="1.38695">
        <ele>149</ele>
        <time>2023-11-12T11:31:22Z</time>
      </trkpt>
      <trkpt lat="43.65314" lon="1.38696">
        <ele>149</ele>
        <time>2023-11-12T11:31:23Z</time>
      </trkpt>
      <trkpt lat="43.65314" lon="1.38698">
        <ele>149</ele>
        <time>2023-11-12T11:31:24Z</time>
      </trkpt>
      <trkpt lat="43.65314" lon="1.38699">
        <ele>149</ele>
        <time>2023-11-12T11:31:25Z</time>
      </trkpt>
      <trkpt lat="43.65316" lon="1.38708">
        <ele>149</ele>
        <time>2023-11-12T11:31:26Z</time>
      </trkpt>
      <trkpt lat="43.65316" lon="1.3871">
        <ele>149</ele>
        <time>2023-11-12T11:31:27Z</time>
      </trkpt>
      <trkpt lat="43.65317" lon="1.38712">
        <ele>149</ele>
        <time>2023-11-12T11:31:28Z</time>
      </trkpt>
      <trkpt lat="43.65317" lon="1.38713">
        <ele>149</ele>
        <time>2023-11-12T11:31:29Z</time>
      </trkpt>
      <trkpt lat="43.6532" lon="1.38722">
        <ele>149</ele>
        <time>2023-11-12T11:31:30Z</time>
      </trkpt>
      <trkpt lat="43.6532" lon="1.38723">
        <ele>149</ele>
        <time>2023-11-12T11:31:31Z</time>
      </trkpt>
      <trkpt lat="43.6532" lon="1.38725">
        <ele>149</ele>
        <time>2023-11-12T11:31:32Z</time>
      </trkpt>
      <trkpt lat="43.6532" lon="1.38726">
        <ele>149</ele>
        <time>2023-11-12T11:31:33Z</time>
      </trkpt>
      <trkpt lat="43.65321" lon="1.38728">
        <ele>149</ele>
        <time>2023-11-12T11:31:34Z</time>
      </trkpt>
      <trkpt lat="43.65322" lon="1.38738">
        <ele>149</ele>
        <time>2023-11-12T11:31:35Z</time>
      </trkpt>
      <trkpt lat="43.65323" lon="1.38742">
        <ele>149</ele>
        <time>2023-11-12T11:31:36Z</time>
      </trkpt>
      <trkpt lat="43.65323" lon="1.38745">
        <ele>149</ele>
        <time>2023-11-12T11:31:37Z</time>
      </trkpt>
      <trkpt lat="43.65324" lon="1.38748">
        <ele>149</ele>
        <time>2023-11-12T11:31:38Z</time>
      </trkpt>
      <trkpt lat="43.65325" lon="1.38751">
        <ele>149</ele>
        <time>2023-11-12T11:31:39Z</time>
      </trkpt>
      <trkpt lat="43.65326" lon="1.38755">
        <ele>149</ele>
        <time>2023-11-12T11:31:40Z</time>
      </trkpt>
      <trkpt lat="43.65327" lon="1.38758">
        <ele>149</ele>
        <time>2023-11-12T11:31:41Z</time>
      </trkpt>
      <trkpt lat="43.65328" lon="1.38761">
        <ele>149</ele>
        <time>2023-11-12T11:31:42Z</time>
      </trkpt>
      <trkpt lat="43.65329" lon="1.38765">
        <ele>149</ele>
        <time>2023-11-12T11:31:43Z</time>
      </trkpt>
      <trkpt lat="43.65329" lon="1.38768">
        <ele>149</ele>
        <time>2023-11-12T11:31:44Z</time>
      </trkpt>
      <trkpt lat="43.6533" lon="1.38772">
        <ele>149</ele>
        <time>2023-11-12T11:31:45Z</time>
      </trkpt>
      <trkpt lat="43.65331" lon="1.38775">
        <ele>149</ele>
        <time>2023-11-12T11:31:46Z</time>
      </trkpt>
      <trkpt lat="43.65331" lon="1.38776">
        <ele>149</ele>
        <time>2023-11-12T11:31:47Z</time>
      </trkpt>
      <trkpt lat="43.65332" lon="1.38778">
        <ele>150</ele>
        <time>2023-11-12T11:31:48Z</time>
      </trkpt>
      <trkpt lat="43.65332" lon="1.3878">
        <ele>150</ele>
        <time>2023-11-12T11:31:49Z</time>
      </trkpt>
      <trkpt lat="43.65332" lon="1.38781">
        <ele>151</ele>
        <time>2023-11-12T11:31:50Z</time>
      </trkpt>
      <trkpt lat="43.65333" lon="1.38783">
        <ele>151</ele>
        <time>2023-11-12T11:31:51Z</time>
      </trkpt>
      <trkpt lat="43.65335" lon="1.38793">
        <ele>151</ele>
        <time>2023-11-12T11:31:52Z</time>
      </trkpt>
      <trkpt lat="43.65336" lon="1.38795">
        <ele>151</ele>
        <time>2023-11-12T11:31:53Z</time>
      </trkpt>
      <trkpt lat="43.65337" lon="1.38798">
        <ele>151</ele>
        <time>2023-11-12T11:31:54Z</time>
      </trkpt>
      <trkpt lat="43.65337" lon="1.38801">
        <ele>151</ele>
        <time>2023-11-12T11:31:55Z</time>
      </trkpt>
      <trkpt lat="43.65338" lon="1.38803">
        <ele>151</ele>
        <time>2023-11-12T11:31:56Z</time>
      </trkpt>
      <trkpt lat="43.65339" lon="1.38806">
        <ele>151</ele>
        <time>2023-11-12T11:31:57Z</time>
      </trkpt>
      <trkpt lat="43.6534" lon="1.38809">
        <ele>151</ele>
        <time>2023-11-12T11:31:58Z</time>
      </trkpt>
      <trkpt lat="43.65341" lon="1.38812">
        <ele>150</ele>
        <time>2023-11-12T11:31:59Z</time>
      </trkpt>
      <trkpt lat="43.65343" lon="1.38814">
        <ele>150</ele>
        <time>2023-11-12T11:32:00Z</time>
      </trkpt>
      <trkpt lat="43.65343" lon="1.38816">
        <ele>150</ele>
        <time>2023-11-12T11:32:01Z</time>
      </trkpt>
      <trkpt lat="43.65344" lon="1.38817">
        <ele>150</ele>
        <time>2023-11-12T11:32:02Z</time>
      </trkpt>
      <trkpt lat="43.65345" lon="1.38819">
        <ele>150</ele>
        <time>2023-11-12T11:32:03Z</time>
      </trkpt>
      <trkpt lat="43.65346" lon="1.3882">
        <ele>150</ele>
        <time>2023-11-12T11:32:04Z</time>
      </trkpt>
      <trkpt lat="43.6535" lon="1.38827">
        <ele>150</ele>
        <time>2023-11-12T11:32:05Z</time>
      </trkpt>
      <trkpt lat="43.65351" lon="1.38828">
        <ele>150</ele>
        <time>2023-11-12T11:32:06Z</time>
      </trkpt>
      <trkpt lat="43.65351" lon="1.38829">
        <ele>150</ele>
        <time>2023-11-12T11:32:07Z</time>
      </trkpt>
      <trkpt lat="43.65352" lon="1.3883">
        <ele>150</ele>
        <time>2023-11-12T11:32:08Z</time>
      </trkpt>
      <trkpt lat="43.65353" lon="1.38832">
        <ele>150</ele>
        <time>2023-11-12T11:32:09Z</time>
      </trkpt>
      <trkpt lat="43.65359" lon="1.38839">
        <ele>150</ele>
        <time>2023-11-12T11:32:10Z</time>
      </trkpt>
      <trkpt lat="43.65361" lon="1.38841">
        <ele>149</ele>
        <time>2023-11-12T11:32:11Z</time>
      </trkpt>
      <trkpt lat="43.65363" lon="1.38843">
        <ele>149</ele>
        <time>2023-11-12T11:32:12Z</time>
      </trkpt>
      <trkpt lat="43.65365" lon="1.38845">
        <ele>149</ele>
        <time>2023-11-12T11:32:13Z</time>
      </trkpt>
      <trkpt lat="43.65367" lon="1.38846">
        <ele>149</ele>
        <time>2023-11-12T11:32:14Z</time>
      </trkpt>
      <trkpt lat="43.6537" lon="1.38847">
        <ele>149</ele>
        <time>2023-11-12T11:32:15Z</time>
      </trkpt>
      <trkpt lat="43.65372" lon="1.38849">
        <ele>149</ele>
        <time>2023-11-12T11:32:16Z</time>
      </trkpt>
      <trkpt lat="43.65374" lon="1.3885">
        <ele>149</ele>
        <time>2023-11-12T11:32:17Z</time>
      </trkpt>
      <trkpt lat="43.65376" lon="1.38849">
        <ele>149</ele>
        <time>2023-11-12T11:32:18Z</time>
      </trkpt>
      <trkpt lat="43.65378" lon="1.38849">
        <ele>148</ele>
        <time>2023-11-12T11:32:19Z</time>
      </trkpt>
      <trkpt lat="43.6538" lon="1.38849">
        <ele>148</ele>
        <time>2023-11-12T11:32:20Z</time>
      </trkpt>
      <trkpt lat="43.65382" lon="1.38848">
        <ele>149</ele>
        <time>2023-11-12T11:32:21Z</time>
      </trkpt>
      <trkpt lat="43.65384" lon="1.38848">
        <ele>149</ele>
        <time>2023-11-12T11:32:22Z</time>
      </trkpt>
      <trkpt lat="43.65385" lon="1.38848">
        <ele>149</ele>
        <time>2023-11-12T11:32:23Z</time>
      </trkpt>
      <trkpt lat="43.65387" lon="1.38848">
        <ele>149</ele>
        <time>2023-11-12T11:32:24Z</time>
      </trkpt>
      <trkpt lat="43.65388" lon="1.38848">
        <ele>149</ele>
        <time>2023-11-12T11:32:25Z</time>
      </trkpt>
      <trkpt lat="43.65389" lon="1.38848">
        <ele>149</ele>
        <time>2023-11-12T11:32:26Z</time>
      </trkpt>
      <trkpt lat="43.6539" lon="1.38848">
        <ele>149</ele>
        <time>2023-11-12T11:32:27Z</time>
      </trkpt>
      <trkpt lat="43.65397" lon="1.38849">
        <ele>148</ele>
        <time>2023-11-12T11:32:28Z</time>
      </trkpt>
      <trkpt lat="43.65398" lon="1.38849">
        <ele>148</ele>
        <time>2023-11-12T11:32:29Z</time>
      </trkpt>
      <trkpt lat="43.65399" lon="1.3885">
        <ele>148</ele>
        <time>2023-11-12T11:32:30Z</time>
      </trkpt>
      <trkpt lat="43.65401" lon="1.38851">
        <ele>147</ele>
        <time>2023-11-12T11:32:31Z</time>
      </trkpt>
      <trkpt lat="43.65408" lon="1.38857">
        <ele>147</ele>
        <time>2023-11-12T11:32:32Z</time>
      </trkpt>
      <trkpt lat="43.6541" lon="1.3886">
        <ele>146</ele>
        <time>2023-11-12T11:32:33Z</time>
      </trkpt>
      <trkpt lat="43.65413" lon="1.38863">
        <ele>146</ele>
        <time>2023-11-12T11:32:34Z</time>
      </trkpt>
      <trkpt lat="43.65414" lon="1.38867">
        <ele>146</ele>
        <time>2023-11-12T11:32:35Z</time>
      </trkpt>
      <trkpt lat="43.65415" lon="1.3887">
        <ele>146</ele>
        <time>2023-11-12T11:32:36Z</time>
      </trkpt>
      <trkpt lat="43.65417" lon="1.38874">
        <ele>146</ele>
        <time>2023-11-12T11:32:37Z</time>
      </trkpt>
      <trkpt lat="43.65418" lon="1.38878">
        <ele>146</ele>
        <time>2023-11-12T11:32:38Z</time>
      </trkpt>
      <trkpt lat="43.65419" lon="1.38879">
        <ele>146</ele>
        <time>2023-11-12T11:32:39Z</time>
      </trkpt>
      <trkpt lat="43.65419" lon="1.38881">
        <ele>146</ele>
        <time>2023-11-12T11:32:40Z</time>
      </trkpt>
      <trkpt lat="43.6542" lon="1.38882">
        <ele>146</ele>
        <time>2023-11-12T11:32:41Z</time>
      </trkpt>
      <trkpt lat="43.6542" lon="1.38884">
        <ele>145</ele>
        <time>2023-11-12T11:32:42Z</time>
      </trkpt>
      <trkpt lat="43.65421" lon="1.38885">
        <ele>145</ele>
        <time>2023-11-12T11:32:43Z</time>
      </trkpt>
      <trkpt lat="43.65424" lon="1.38894">
        <ele>145</ele>
        <time>2023-11-12T11:32:44Z</time>
      </trkpt>
      <trkpt lat="43.65424" lon="1.38895">
        <ele>145</ele>
        <time>2023-11-12T11:32:45Z</time>
      </trkpt>
      <trkpt lat="43.65425" lon="1.38896">
        <ele>145</ele>
        <time>2023-11-12T11:32:46Z</time>
      </trkpt>
      <trkpt lat="43.65426" lon="1.38897">
        <ele>144</ele>
        <time>2023-11-12T11:32:47Z</time>
      </trkpt>
      <trkpt lat="43.65426" lon="1.38898">
        <ele>144</ele>
        <time>2023-11-12T11:32:48Z</time>
      </trkpt>
      <trkpt lat="43.6543" lon="1.38907">
        <ele>144</ele>
        <time>2023-11-12T11:32:49Z</time>
      </trkpt>
      <trkpt lat="43.65432" lon="1.3891">
        <ele>144</ele>
        <time>2023-11-12T11:32:50Z</time>
      </trkpt>
      <trkpt lat="43.65433" lon="1.38912">
        <ele>143</ele>
        <time>2023-11-12T11:32:51Z</time>
      </trkpt>
      <trkpt lat="43.65434" lon="1.38915">
        <ele>143</ele>
        <time>2023-11-12T11:32:52Z</time>
      </trkpt>
      <trkpt lat="43.65436" lon="1.38917">
        <ele>143</ele>
        <time>2023-11-12T11:32:53Z</time>
      </trkpt>
      <trkpt lat="43.65437" lon="1.3892">
        <ele>142</ele>
        <time>2023-11-12T11:32:54Z</time>
      </trkpt>
      <trkpt lat="43.65439" lon="1.38922">
        <ele>142</ele>
        <time>2023-11-12T11:32:55Z</time>
      </trkpt>
      <trkpt lat="43.6544" lon="1.38924">
        <ele>141</ele>
        <time>2023-11-12T11:32:56Z</time>
      </trkpt>
      <trkpt lat="43.65442" lon="1.38928">
        <ele>141</ele>
        <time>2023-11-12T11:32:57Z</time>
      </trkpt>
      <trkpt lat="43.65444" lon="1.38931">
        <ele>140</ele>
        <time>2023-11-12T11:32:58Z</time>
      </trkpt>
      <trkpt lat="43.65445" lon="1.38935">
        <ele>139</ele>
        <time>2023-11-12T11:32:59Z</time>
      </trkpt>
      <trkpt lat="43.65446" lon="1.38936">
        <ele>139</ele>
        <time>2023-11-12T11:33:00Z</time>
      </trkpt>
      <trkpt lat="43.65447" lon="1.38938">
        <ele>138</ele>
        <time>2023-11-12T11:33:01Z</time>
      </trkpt>
      <trkpt lat="43.65447" lon="1.3894">
        <ele>138</ele>
        <time>2023-11-12T11:33:02Z</time>
      </trkpt>
      <trkpt lat="43.65448" lon="1.38942">
        <ele>134</ele>
        <time>2023-11-12T11:33:03Z</time>
      </trkpt>
      <trkpt lat="43.65451" lon="1.38952">
        <ele>134</ele>
        <time>2023-11-12T11:33:04Z</time>
      </trkpt>
      <trkpt lat="43.65452" lon="1.38955">
        <ele>134</ele>
        <time>2023-11-12T11:33:05Z</time>
      </trkpt>
      <trkpt lat="43.65453" lon="1.38958">
        <ele>134</ele>
        <time>2023-11-12T11:33:06Z</time>
      </trkpt>
      <trkpt lat="43.65454" lon="1.38961">
        <ele>134</ele>
        <time>2023-11-12T11:33:07Z</time>
      </trkpt>
      <trkpt lat="43.65455" lon="1.38964">
        <ele>133</ele>
        <time>2023-11-12T11:33:08Z</time>
      </trkpt>
      <trkpt lat="43.65456" lon="1.38967">
        <ele>133</ele>
        <time>2023-11-12T11:33:09Z</time>
      </trkpt>
      <trkpt lat="43.65456" lon="1.3897">
        <ele>133</ele>
        <time>2023-11-12T11:33:10Z</time>
      </trkpt>
      <trkpt lat="43.65457" lon="1.38974">
        <ele>134</ele>
        <time>2023-11-12T11:33:11Z</time>
      </trkpt>
      <trkpt lat="43.65458" lon="1.38975">
        <ele>134</ele>
        <time>2023-11-12T11:33:12Z</time>
      </trkpt>
      <trkpt lat="43.65459" lon="1.38976">
        <ele>134</ele>
        <time>2023-11-12T11:33:13Z</time>
      </trkpt>
      <trkpt lat="43.6546" lon="1.38978">
        <ele>134</ele>
        <time>2023-11-12T11:33:14Z</time>
      </trkpt>
      <trkpt lat="43.6546" lon="1.38979">
        <ele>134</ele>
        <time>2023-11-12T11:33:15Z</time>
      </trkpt>
      <trkpt lat="43.65465" lon="1.38987">
        <ele>134</ele>
        <time>2023-11-12T11:33:16Z</time>
      </trkpt>
      <trkpt lat="43.65466" lon="1.38988">
        <ele>134</ele>
        <time>2023-11-12T11:33:17Z</time>
      </trkpt>
      <trkpt lat="43.65467" lon="1.38989">
        <ele>134</ele>
        <time>2023-11-12T11:33:18Z</time>
      </trkpt>
      <trkpt lat="43.65468" lon="1.3899">
        <ele>134</ele>
        <time>2023-11-12T11:33:19Z</time>
      </trkpt>
      <trkpt lat="43.65474" lon="1.38997">
        <ele>134</ele>
        <time>2023-11-12T11:33:20Z</time>
      </trkpt>
      <trkpt lat="43.65476" lon="1.38998">
        <ele>134</ele>
        <time>2023-11-12T11:33:21Z</time>
      </trkpt>
      <trkpt lat="43.65478" lon="1.39">
        <ele>134</ele>
        <time>2023-11-12T11:33:22Z</time>
      </trkpt>
      <trkpt lat="43.6548" lon="1.39002">
        <ele>134</ele>
        <time>2023-11-12T11:33:23Z</time>
      </trkpt>
      <trkpt lat="43.65481" lon="1.39002">
        <ele>133</ele>
        <time>2023-11-12T11:33:24Z</time>
      </trkpt>
      <trkpt lat="43.65482" lon="1.39003">
        <ele>133</ele>
        <time>2023-11-12T11:33:25Z</time>
      </trkpt>
      <trkpt lat="43.65484" lon="1.39004">
        <ele>133</ele>
        <time>2023-11-12T11:33:26Z</time>
      </trkpt>
      <trkpt lat="43.65485" lon="1.39005">
        <ele>133</ele>
        <time>2023-11-12T11:33:27Z</time>
      </trkpt>
      <trkpt lat="43.65492" lon="1.3901">
        <ele>133</ele>
        <time>2023-11-12T11:33:28Z</time>
      </trkpt>
      <trkpt lat="43.65494" lon="1.39011">
        <ele>133</ele>
        <time>2023-11-12T11:33:29Z</time>
      </trkpt>
      <trkpt lat="43.65497" lon="1.39013">
        <ele>133</ele>
        <time>2023-11-12T11:33:30Z</time>
      </trkpt>
      <trkpt lat="43.65499" lon="1.39013">
        <ele>133</ele>
        <time>2023-11-12T11:33:31Z</time>
      </trkpt>
      <trkpt lat="43.65501" lon="1.39014">
        <ele>133</ele>
        <time>2023-11-12T11:33:32Z</time>
      </trkpt>
      <trkpt lat="43.65503" lon="1.39015">
        <ele>133</ele>
        <time>2023-11-12T11:33:33Z</time>
      </trkpt>
      <trkpt lat="43.65504" lon="1.39016">
        <ele>133</ele>
        <time>2023-11-12T11:33:34Z</time>
      </trkpt>
      <trkpt lat="43.65506" lon="1.39017">
        <ele>133</ele>
        <time>2023-11-12T11:33:35Z</time>
      </trkpt>
      <trkpt lat="43.65508" lon="1.39017">
        <ele>133</ele>
        <time>2023-11-12T11:33:36Z</time>
      </trkpt>
      <trkpt lat="43.65509" lon="1.39018">
        <ele>133</ele>
        <time>2023-11-12T11:33:37Z</time>
      </trkpt>
      <trkpt lat="43.65511" lon="1.39019">
        <ele>133</ele>
        <time>2023-11-12T11:33:38Z</time>
      </trkpt>
      <trkpt lat="43.65512" lon="1.39019">
        <ele>133</ele>
        <time>2023-11-12T11:33:39Z</time>
      </trkpt>
      <trkpt lat="43.6552" lon="1.39023">
        <ele>132</ele>
        <time>2023-11-12T11:33:40Z</time>
      </trkpt>
      <trkpt lat="43.65522" lon="1.39024">
        <ele>132</ele>
        <time>2023-11-12T11:33:41Z</time>
      </trkpt>
      <trkpt lat="43.65525" lon="1.39025">
        <ele>132</ele>
        <time>2023-11-12T11:33:42Z</time>
      </trkpt>
      <trkpt lat="43.65527" lon="1.39027">
        <ele>132</ele>
        <time>2023-11-12T11:33:43Z</time>
      </trkpt>
      <trkpt lat="43.65528" lon="1.39027">
        <ele>132</ele>
        <time>2023-11-12T11:33:44Z</time>
      </trkpt>
      <trkpt lat="43.65529" lon="1.39028">
        <ele>132</ele>
        <time>2023-11-12T11:33:45Z</time>
      </trkpt>
      <trkpt lat="43.65531" lon="1.39029">
        <ele>132</ele>
        <time>2023-11-12T11:33:46Z</time>
      </trkpt>
      <trkpt lat="43.65532" lon="1.39029">
        <ele>132</ele>
        <time>2023-11-12T11:33:47Z</time>
      </trkpt>
      <trkpt lat="43.65538" lon="1.39033">
        <ele>132</ele>
        <time>2023-11-12T11:33:48Z</time>
      </trkpt>
      <trkpt lat="43.65539" lon="1.39034">
        <ele>132</ele>
        <time>2023-11-12T11:33:49Z</time>
      </trkpt>
      <trkpt lat="43.65541" lon="1.39035">
        <ele>132</ele>
        <time>2023-11-12T11:33:50Z</time>
      </trkpt>
      <trkpt lat="43.65542" lon="1.39036">
        <ele>132</ele>
        <time>2023-11-12T11:33:51Z</time>
      </trkpt>
      <trkpt lat="43.65549" lon="1.39041">
        <ele>132</ele>
        <time>2023-11-12T11:33:52Z</time>
      </trkpt>
      <trkpt lat="43.65551" lon="1.39042">
        <ele>132</ele>
        <time>2023-11-12T11:33:53Z</time>
      </trkpt>
      <trkpt lat="43.65552" lon="1.39043">
        <ele>132</ele>
        <time>2023-11-12T11:33:54Z</time>
      </trkpt>
      <trkpt lat="43.65554" lon="1.39045">
        <ele>132</ele>
        <time>2023-11-12T11:33:55Z</time>
      </trkpt>
      <trkpt lat="43.65556" lon="1.39046">
        <ele>132</ele>
        <time>2023-11-12T11:33:56Z</time>
      </trkpt>
      <trkpt lat="43.65558" lon="1.39048">
        <ele>132</ele>
        <time>2023-11-12T11:33:57Z</time>
      </trkpt>
      <trkpt lat="43.65561" lon="1.3905">
        <ele>132</ele>
        <time>2023-11-12T11:33:58Z</time>
      </trkpt>
      <trkpt lat="43.65563" lon="1.39051">
        <ele>132</ele>
        <time>2023-11-12T11:33:59Z</time>
      </trkpt>
      <trkpt lat="43.65565" lon="1.39053">
        <ele>132</ele>
        <time>2023-11-12T11:34:00Z</time>
      </trkpt>
      <trkpt lat="43.65566" lon="1.39054">
        <ele>132</ele>
        <time>2023-11-12T11:34:01Z</time>
      </trkpt>
      <trkpt lat="43.65567" lon="1.39055">
        <ele>132</ele>
        <time>2023-11-12T11:34:02Z</time>
      </trkpt>
      <trkpt lat="43.65568" lon="1.39056">
        <ele>132</ele>
        <time>2023-11-12T11:34:03Z</time>
      </trkpt>
      <trkpt lat="43.65569" lon="1.39057">
        <ele>132</ele>
        <time>2023-11-12T11:34:04Z</time>
      </trkpt>
      <trkpt lat="43.65575" lon="1.39061">
        <ele>132</ele>
        <time>2023-11-12T11:34:05Z</time>
      </trkpt>
      <trkpt lat="43.65577" lon="1.39062">
        <ele>132</ele>
        <time>2023-11-12T11:34:06Z</time>
      </trkpt>
      <trkpt lat="43.65578" lon="1.39063">
        <ele>132</ele>
        <time>2023-11-12T11:34:07Z</time>
      </trkpt>
      <trkpt lat="43.65579" lon="1.39063">
        <ele>132</ele>
        <time>2023-11-12T11:34:08Z</time>
      </trkpt>
      <trkpt lat="43.65587" lon="1.39067">
        <ele>133</ele>
        <time>2023-11-12T11:34:09Z</time>
      </trkpt>
      <trkpt lat="43.65589" lon="1.39069">
        <ele>133</ele>
        <time>2023-11-12T11:34:10Z</time>
      </trkpt>
      <trkpt lat="43.65591" lon="1.3907">
        <ele>132</ele>
        <time>2023-11-12T11:34:11Z</time>
      </trkpt>
      <trkpt lat="43.65593" lon="1.39071">
        <ele>132</ele>
        <time>2023-11-12T11:34:12Z</time>
      </trkpt>
      <trkpt lat="43.65595" lon="1.39072">
        <ele>132</ele>
        <time>2023-11-12T11:34:13Z</time>
      </trkpt>
      <trkpt lat="43.65597" lon="1.39074">
        <ele>132</ele>
        <time>2023-11-12T11:34:14Z</time>
      </trkpt>
      <trkpt lat="43.65599" lon="1.39075">
        <ele>132</ele>
        <time>2023-11-12T11:34:15Z</time>
      </trkpt>
      <trkpt lat="43.65602" lon="1.39076">
        <ele>132</ele>
        <time>2023-11-12T11:34:16Z</time>
      </trkpt>
      <trkpt lat="43.65604" lon="1.39077">
        <ele>132</ele>
        <time>2023-11-12T11:34:17Z</time>
      </trkpt>
      <trkpt lat="43.65606" lon="1.39079">
        <ele>132</ele>
        <time>2023-11-12T11:34:18Z</time>
      </trkpt>
      <trkpt lat="43.65608" lon="1.3908">
        <ele>132</ele>
        <time>2023-11-12T11:34:19Z</time>
      </trkpt>
      <trkpt lat="43.6561" lon="1.39081">
        <ele>132</ele>
        <time>2023-11-12T11:34:20Z</time>
      </trkpt>
      <trkpt lat="43.65612" lon="1.39083">
        <ele>132</ele>
        <time>2023-11-12T11:34:21Z</time>
      </trkpt>
      <trkpt lat="43.65614" lon="1.39084">
        <ele>132</ele>
        <time>2023-11-12T11:34:22Z</time>
      </trkpt>
      <trkpt lat="43.65615" lon="1.39085">
        <ele>132</ele>
        <time>2023-11-12T11:34:23Z</time>
      </trkpt>
      <trkpt lat="43.65616" lon="1.39085">
        <ele>132</ele>
        <time>2023-11-12T11:34:24Z</time>
      </trkpt>
      <trkpt lat="43.65617" lon="1.39086">
        <ele>132</ele>
        <time>2023-11-12T11:34:25Z</time>
      </trkpt>
      <trkpt lat="43.65623" lon="1.3909">
        <ele>132</ele>
        <time>2023-11-12T11:34:26Z</time>
      </trkpt>
      <trkpt lat="43.65624" lon="1.39091">
        <ele>132</ele>
        <time>2023-11-12T11:34:27Z</time>
      </trkpt>
      <trkpt lat="43.65625" lon="1.39092">
        <ele>132</ele>
        <time>2023-11-12T11:34:28Z</time>
      </trkpt>
      <trkpt lat="43.65626" lon="1.39093">
        <ele>132</ele>
        <time>2023-11-12T11:34:29Z</time>
      </trkpt>
      <trkpt lat="43.65627" lon="1.39093">
        <ele>132</ele>
        <time>2023-11-12T11:34:30Z</time>
      </trkpt>
      <trkpt lat="43.65634" lon="1.39098">
        <ele>132</ele>
        <time>2023-11-12T11:34:31Z</time>
      </trkpt>
      <trkpt lat="43.65636" lon="1.391">
        <ele>132</ele>
        <time>2023-11-12T11:34:32Z</time>
      </trkpt>
      <trkpt lat="43.65638" lon="1.39101">
        <ele>132</ele>
        <time>2023-11-12T11:34:33Z</time>
      </trkpt>
      <trkpt lat="43.65641" lon="1.39102">
        <ele>132</ele>
        <time>2023-11-12T11:34:34Z</time>
      </trkpt>
      <trkpt lat="43.65643" lon="1.39103">
        <ele>132</ele>
        <time>2023-11-12T11:34:35Z</time>
      </trkpt>
      <trkpt lat="43.65645" lon="1.39105">
        <ele>132</ele>
        <time>2023-11-12T11:34:36Z</time>
      </trkpt>
      <trkpt lat="43.65647" lon="1.39106">
        <ele>132</ele>
        <time>2023-11-12T11:34:37Z</time>
      </trkpt>
      <trkpt lat="43.6565" lon="1.39107">
        <ele>132</ele>
        <time>2023-11-12T11:34:38Z</time>
      </trkpt>
      <trkpt lat="43.65651" lon="1.39108">
        <ele>132</ele>
        <time>2023-11-12T11:34:39Z</time>
      </trkpt>
      <trkpt lat="43.65652" lon="1.39109">
        <ele>132</ele>
        <time>2023-11-12T11:34:40Z</time>
      </trkpt>
      <trkpt lat="43.65653" lon="1.3911">
        <ele>132</ele>
        <time>2023-11-12T11:34:41Z</time>
      </trkpt>
      <trkpt lat="43.65654" lon="1.3911">
        <ele>132</ele>
        <time>2023-11-12T11:34:42Z</time>
      </trkpt>
      <trkpt lat="43.65661" lon="1.39115">
        <ele>132</ele>
        <time>2023-11-12T11:34:43Z</time>
      </trkpt>
      <trkpt lat="43.65663" lon="1.39117">
        <ele>132</ele>
        <time>2023-11-12T11:34:44Z</time>
      </trkpt>
      <trkpt lat="43.65665" lon="1.39118">
        <ele>132</ele>
        <time>2023-11-12T11:34:45Z</time>
      </trkpt>
      <trkpt lat="43.65668" lon="1.3912">
        <ele>131</ele>
        <time>2023-11-12T11:34:46Z</time>
      </trkpt>
      <trkpt lat="43.6567" lon="1.39121">
        <ele>131</ele>
        <time>2023-11-12T11:34:47Z</time>
      </trkpt>
      <trkpt lat="43.65673" lon="1.39122">
        <ele>132</ele>
        <time>2023-11-12T11:34:48Z</time>
      </trkpt>
      <trkpt lat="43.65675" lon="1.39123">
        <ele>132</ele>
        <time>2023-11-12T11:34:49Z</time>
      </trkpt>
      <trkpt lat="43.65678" lon="1.39124">
        <ele>132</ele>
        <time>2023-11-12T11:34:50Z</time>
      </trkpt>
      <trkpt lat="43.65679" lon="1.39124">
        <ele>132</ele>
        <time>2023-11-12T11:34:51Z</time>
      </trkpt>
      <trkpt lat="43.6568" lon="1.39125">
        <ele>132</ele>
        <time>2023-11-12T11:34:52Z</time>
      </trkpt>
      <trkpt lat="43.65681" lon="1.39126">
        <ele>132</ele>
        <time>2023-11-12T11:34:53Z</time>
      </trkpt>
      <trkpt lat="43.65683" lon="1.39126">
        <ele>132</ele>
        <time>2023-11-12T11:34:54Z</time>
      </trkpt>
      <trkpt lat="43.6569" lon="1.39131">
        <ele>132</ele>
        <time>2023-11-12T11:34:55Z</time>
      </trkpt>
      <trkpt lat="43.65692" lon="1.39132">
        <ele>132</ele>
        <time>2023-11-12T11:34:56Z</time>
      </trkpt>
      <trkpt lat="43.65694" lon="1.39133">
        <ele>131</ele>
        <time>2023-11-12T11:34:57Z</time>
      </trkpt>
      <trkpt lat="43.65696" lon="1.39135">
        <ele>131</ele>
        <time>2023-11-12T11:34:58Z</time>
      </trkpt>
      <trkpt lat="43.65698" lon="1.39136">
        <ele>131</ele>
        <time>2023-11-12T11:34:59Z</time>
      </trkpt>
      <trkpt lat="43.657" lon="1.39138">
        <ele>132</ele>
        <time>2023-11-12T11:35:00Z</time>
      </trkpt>
      <trkpt lat="43.65702" lon="1.39139">
        <ele>132</ele>
        <time>2023-11-12T11:35:01Z</time>
      </trkpt>
      <trkpt lat="43.65704" lon="1.39141">
        <ele>132</ele>
        <time>2023-11-12T11:35:02Z</time>
      </trkpt>
      <trkpt lat="43.65706" lon="1.39143">
        <ele>132</ele>
        <time>2023-11-12T11:35:03Z</time>
      </trkpt>
      <trkpt lat="43.65708" lon="1.39145">
        <ele>132</ele>
        <time>2023-11-12T11:35:04Z</time>
      </trkpt>
      <trkpt lat="43.65709" lon="1.39147">
        <ele>132</ele>
        <time>2023-11-12T11:35:05Z</time>
      </trkpt>
      <trkpt lat="43.65711" lon="1.39148">
        <ele>132</ele>
        <time>2023-11-12T11:35:06Z</time>
      </trkpt>
      <trkpt lat="43.65713" lon="1.3915">
        <ele>132</ele>
        <time>2023-11-12T11:35:07Z</time>
      </trkpt>
      <trkpt lat="43.65716" lon="1.39152">
        <ele>132</ele>
        <time>2023-11-12T11:35:08Z</time>
      </trkpt>
      <trkpt lat="43.65718" lon="1.39153">
        <ele>132</ele>
        <time>2023-11-12T11:35:09Z</time>
      </trkpt>
      <trkpt lat="43.6572" lon="1.39155">
        <ele>132</ele>
        <time>2023-11-12T11:35:10Z</time>
      </trkpt>
      <trkpt lat="43.65722" lon="1.39156">
        <ele>132</ele>
        <time>2023-11-12T11:35:11Z</time>
      </trkpt>
      <trkpt lat="43.65724" lon="1.39158">
        <ele>132</ele>
        <time>2023-11-12T11:35:12Z</time>
      </trkpt>
      <trkpt lat="43.65726" lon="1.3916">
        <ele>132</ele>
        <time>2023-11-12T11:35:13Z</time>
      </trkpt>
      <trkpt lat="43.65728" lon="1.39161">
        <ele>132</ele>
        <time>2023-11-12T11:35:14Z</time>
      </trkpt>
      <trkpt lat="43.6573" lon="1.39162">
        <ele>132</ele>
        <time>2023-11-12T11:35:15Z</time>
      </trkpt>
      <trkpt lat="43.65732" lon="1.39163">
        <ele>132</ele>
        <time>2023-11-12T11:35:16Z</time>
      </trkpt>
      <trkpt lat="43.65734" lon="1.39165">
        <ele>132</ele>
        <time>2023-11-12T11:35:17Z</time>
      </trkpt>
      <trkpt lat="43.65736" lon="1.39166">
        <ele>132</ele>
        <time>2023-11-12T11:35:18Z</time>
      </trkpt>
      <trkpt lat="43.65738" lon="1.39167">
        <ele>132</ele>
        <time>2023-11-12T11:35:19Z</time>
      </trkpt>
      <trkpt lat="43.65739" lon="1.39168">
        <ele>132</ele>
        <time>2023-11-12T11:35:20Z</time>
      </trkpt>
      <trkpt lat="43.6574" lon="1.39169">
        <ele>132</ele>
        <time>2023-11-12T11:35:21Z</time>
      </trkpt>
      <trkpt lat="43.65741" lon="1.39169">
        <ele>132</ele>
        <time>2023-11-12T11:35:22Z</time>
      </trkpt>
      <trkpt lat="43.65743" lon="1.3917">
        <ele>132</ele>
        <time>2023-11-12T11:35:23Z</time>
      </trkpt>
      <trkpt lat="43.65749" lon="1.39175">
        <ele>132</ele>
        <time>2023-11-12T11:35:24Z</time>
      </trkpt>
      <trkpt lat="43.65752" lon="1.39177">
        <ele>132</ele>
        <time>2023-11-12T11:35:25Z</time>
      </trkpt>
      <trkpt lat="43.65754" lon="1.39179">
        <ele>132</ele>
        <time>2023-11-12T11:35:26Z</time>
      </trkpt>
      <trkpt lat="43.65757" lon="1.39181">
        <ele>132</ele>
        <time>2023-11-12T11:35:27Z</time>
      </trkpt>
      <trkpt lat="43.65759" lon="1.39183">
        <ele>132</ele>
        <time>2023-11-12T11:35:28Z</time>
      </trkpt>
      <trkpt lat="43.65762" lon="1.39185">
        <ele>132</ele>
        <time>2023-11-12T11:35:29Z</time>
      </trkpt>
      <trkpt lat="43.65764" lon="1.39187">
        <ele>132</ele>
        <time>2023-11-12T11:35:30Z</time>
      </trkpt>
      <trkpt lat="43.65765" lon="1.39188">
        <ele>132</ele>
        <time>2023-11-12T11:35:31Z</time>
      </trkpt>
      <trkpt lat="43.65766" lon="1.39189">
        <ele>132</ele>
        <time>2023-11-12T11:35:32Z</time>
      </trkpt>
      <trkpt lat="43.65767" lon="1.3919">
        <ele>132</ele>
        <time>2023-11-12T11:35:33Z</time>
      </trkpt>
      <trkpt lat="43.65768" lon="1.39191">
        <ele>132</ele>
        <time>2023-11-12T11:35:34Z</time>
      </trkpt>
      <trkpt lat="43.65773" lon="1.39197">
        <ele>132</ele>
        <time>2023-11-12T11:35:35Z</time>
      </trkpt>
      <trkpt lat="43.65774" lon="1.39198">
        <ele>132</ele>
        <time>2023-11-12T11:35:36Z</time>
      </trkpt>
      <trkpt lat="43.65775" lon="1.39199">
        <ele>132</ele>
        <time>2023-11-12T11:35:37Z</time>
      </trkpt>
      <trkpt lat="43.65777" lon="1.392">
        <ele>132</ele>
        <time>2023-11-12T11:35:38Z</time>
      </trkpt>
      <trkpt lat="43.65782" lon="1.39205">
        <ele>132</ele>
        <time>2023-11-12T11:35:39Z</time>
      </trkpt>
      <trkpt lat="43.65784" lon="1.39206">
        <ele>132</ele>
        <time>2023-11-12T11:35:40Z</time>
      </trkpt>
      <trkpt lat="43.65785" lon="1.39206">
        <ele>131</ele>
        <time>2023-11-12T11:35:41Z</time>
      </trkpt>
      <trkpt lat="43.65786" lon="1.39207">
        <ele>130</ele>
        <time>2023-11-12T11:35:42Z</time>
      </trkpt>
      <trkpt lat="43.65793" lon="1.39211">
        <ele>130</ele>
        <time>2023-11-12T11:35:43Z</time>
      </trkpt>
      <trkpt lat="43.65794" lon="1.39211">
        <ele>130</ele>
        <time>2023-11-12T11:35:44Z</time>
      </trkpt>
      <trkpt lat="43.65795" lon="1.39211">
        <ele>130</ele>
        <time>2023-11-12T11:35:45Z</time>
      </trkpt>
      <trkpt lat="43.65797" lon="1.39211">
        <ele>130</ele>
        <time>2023-11-12T11:35:46Z</time>
      </trkpt>
      <trkpt lat="43.65803" lon="1.39213">
        <ele>131</ele>
        <time>2023-11-12T11:35:47Z</time>
      </trkpt>
      <trkpt lat="43.65805" lon="1.39213">
        <ele>131</ele>
        <time>2023-11-12T11:35:48Z</time>
      </trkpt>
      <trkpt lat="43.65806" lon="1.39214">
        <ele>131</ele>
        <time>2023-11-12T11:35:49Z</time>
      </trkpt>
      <trkpt lat="43.65807" lon="1.39214">
        <ele>131</ele>
        <time>2023-11-12T11:35:50Z</time>
      </trkpt>
      <trkpt lat="43.65815" lon="1.39217">
        <ele>131</ele>
        <time>2023-11-12T11:35:51Z</time>
      </trkpt>
      <trkpt lat="43.65816" lon="1.39218">
        <ele>131</ele>
        <time>2023-11-12T11:35:52Z</time>
      </trkpt>
      <trkpt lat="43.65818" lon="1.39218">
        <ele>131</ele>
        <time>2023-11-12T11:35:53Z</time>
      </trkpt>
      <trkpt lat="43.6582" lon="1.39219">
        <ele>131</ele>
        <time>2023-11-12T11:35:54Z</time>
      </trkpt>
      <trkpt lat="43.65822" lon="1.3922">
        <ele>131</ele>
        <time>2023-11-12T11:35:55Z</time>
      </trkpt>
      <trkpt lat="43.65824" lon="1.39221">
        <ele>131</ele>
        <time>2023-11-12T11:35:56Z</time>
      </trkpt>
      <trkpt lat="43.65827" lon="1.39222">
        <ele>131</ele>
        <time>2023-11-12T11:35:57Z</time>
      </trkpt>
      <trkpt lat="43.65829" lon="1.39222">
        <ele>131</ele>
        <time>2023-11-12T11:35:58Z</time>
      </trkpt>
      <trkpt lat="43.65831" lon="1.39223">
        <ele>131</ele>
        <time>2023-11-12T11:35:59Z</time>
      </trkpt>
      <trkpt lat="43.65834" lon="1.39224">
        <ele>131</ele>
        <time>2023-11-12T11:36:00Z</time>
      </trkpt>
      <trkpt lat="43.65836" lon="1.39225">
        <ele>131</ele>
        <time>2023-11-12T11:36:01Z</time>
      </trkpt>
      <trkpt lat="43.65839" lon="1.39225">
        <ele>131</ele>
        <time>2023-11-12T11:36:02Z</time>
      </trkpt>
      <trkpt lat="43.65841" lon="1.39226">
        <ele>131</ele>
        <time>2023-11-12T11:36:03Z</time>
      </trkpt>
      <trkpt lat="43.65843" lon="1.39228">
        <ele>131</ele>
        <time>2023-11-12T11:36:04Z</time>
      </trkpt>
      <trkpt lat="43.65844" lon="1.39229">
        <ele>130</ele>
        <time>2023-11-12T11:36:05Z</time>
      </trkpt>
      <trkpt lat="43.65846" lon="1.39231">
        <ele>130</ele>
        <time>2023-11-12T11:36:06Z</time>
      </trkpt>
      <trkpt lat="43.65847" lon="1.39232">
        <ele>130</ele>
        <time>2023-11-12T11:36:07Z</time>
      </trkpt>
      <trkpt lat="43.65849" lon="1.39234">
        <ele>130</ele>
        <time>2023-11-12T11:36:08Z</time>
      </trkpt>
      <trkpt lat="43.6585" lon="1.39234">
        <ele>130</ele>
        <time>2023-11-12T11:36:09Z</time>
      </trkpt>
      <trkpt lat="43.65851" lon="1.39235">
        <ele>130</ele>
        <time>2023-11-12T11:36:10Z</time>
      </trkpt>
      <trkpt lat="43.65852" lon="1.39235">
        <ele>130</ele>
        <time>2023-11-12T11:36:11Z</time>
      </trkpt>
      <trkpt lat="43.65853" lon="1.39235">
        <ele>130</ele>
        <time>2023-11-12T11:36:12Z</time>
      </trkpt>
      <trkpt lat="43.65854" lon="1.39236">
        <ele>130</ele>
        <time>2023-11-12T11:36:13Z</time>
      </trkpt>
      <trkpt lat="43.65861" lon="1.39238">
        <ele>130</ele>
        <time>2023-11-12T11:36:14Z</time>
      </trkpt>
      <trkpt lat="43.65862" lon="1.39239">
        <ele>130</ele>
        <time>2023-11-12T11:36:15Z</time>
      </trkpt>
      <trkpt lat="43.65864" lon="1.39239">
        <ele>130</ele>
        <time>2023-11-12T11:36:16Z</time>
      </trkpt>
      <trkpt lat="43.65865" lon="1.3924">
        <ele>130</ele>
        <time>2023-11-12T11:36:17Z</time>
      </trkpt>
      <trkpt lat="43.65873" lon="1.39241">
        <ele>130</ele>
        <time>2023-11-12T11:36:18Z</time>
      </trkpt>
      <trkpt lat="43.65876" lon="1.39241">
        <ele>130</ele>
        <time>2023-11-12T11:36:19Z</time>
      </trkpt>
      <trkpt lat="43.65879" lon="1.39242">
        <ele>130</ele>
        <time>2023-11-12T11:36:20Z</time>
      </trkpt>
      <trkpt lat="43.65881" lon="1.39242">
        <ele>131</ele>
        <time>2023-11-12T11:36:21Z</time>
      </trkpt>
      <trkpt lat="43.65882" lon="1.39242">
        <ele>131</ele>
        <time>2023-11-12T11:36:22Z</time>
      </trkpt>
      <trkpt lat="43.65884" lon="1.39242">
        <ele>131</ele>
        <time>2023-11-12T11:36:23Z</time>
      </trkpt>
      <trkpt lat="43.65885" lon="1.39243">
        <ele>131</ele>
        <time>2023-11-12T11:36:24Z</time>
      </trkpt>
      <trkpt lat="43.65886" lon="1.39243">
        <ele>131</ele>
        <time>2023-11-12T11:36:25Z</time>
      </trkpt>
      <trkpt lat="43.65893" lon="1.39245">
        <ele>131</ele>
        <time>2023-11-12T11:36:26Z</time>
      </trkpt>
      <trkpt lat="43.65894" lon="1.39246">
        <ele>131</ele>
        <time>2023-11-12T11:36:27Z</time>
      </trkpt>
      <trkpt lat="43.65895" lon="1.39246">
        <ele>131</ele>
        <time>2023-11-12T11:36:28Z</time>
      </trkpt>
      <trkpt lat="43.65897" lon="1.39247">
        <ele>131</ele>
        <time>2023-11-12T11:36:29Z</time>
      </trkpt>
      <trkpt lat="43.65903" lon="1.3925">
        <ele>130</ele>
        <time>2023-11-12T11:36:30Z</time>
      </trkpt>
      <trkpt lat="43.65905" lon="1.39251">
        <ele>130</ele>
        <time>2023-11-12T11:36:31Z</time>
      </trkpt>
      <trkpt lat="43.65906" lon="1.39252">
        <ele>130</ele>
        <time>2023-11-12T11:36:32Z</time>
      </trkpt>
      <trkpt lat="43.65907" lon="1.39252">
        <ele>130</ele>
        <time>2023-11-12T11:36:33Z</time>
      </trkpt>
      <trkpt lat="43.65915" lon="1.39254">
        <ele>130</ele>
        <time>2023-11-12T11:36:34Z</time>
      </trkpt>
      <trkpt lat="43.65917" lon="1.39253">
        <ele>130</ele>
        <time>2023-11-12T11:36:35Z</time>
      </trkpt>
      <trkpt lat="43.65919" lon="1.39252">
        <ele>130</ele>
        <time>2023-11-12T11:36:36Z</time>
      </trkpt>
      <trkpt lat="43.65921" lon="1.39252">
        <ele>130</ele>
        <time>2023-11-12T11:36:37Z</time>
      </trkpt>
      <trkpt lat="43.65923" lon="1.39251">
        <ele>130</ele>
        <time>2023-11-12T11:36:38Z</time>
      </trkpt>
      <trkpt lat="43.65925" lon="1.39251">
        <ele>130</ele>
        <time>2023-11-12T11:36:39Z</time>
      </trkpt>
      <trkpt lat="43.65927" lon="1.39252">
        <ele>130</ele>
        <time>2023-11-12T11:36:40Z</time>
      </trkpt>
      <trkpt lat="43.6593" lon="1.39252">
        <ele>130</ele>
        <time>2023-11-12T11:36:41Z</time>
      </trkpt>
      <trkpt lat="43.65932" lon="1.39252">
        <ele>130</ele>
        <time>2023-11-12T11:36:42Z</time>
      </trkpt>
      <trkpt lat="43.65935" lon="1.39252">
        <ele>130</ele>
        <time>2023-11-12T11:36:43Z</time>
      </trkpt>
      <trkpt lat="43.65938" lon="1.39253">
        <ele>130</ele>
        <time>2023-11-12T11:36:44Z</time>
      </trkpt>
      <trkpt lat="43.65941" lon="1.39253">
        <ele>130</ele>
        <time>2023-11-12T11:36:45Z</time>
      </trkpt>
      <trkpt lat="43.65944" lon="1.39253">
        <ele>131</ele>
        <time>2023-11-12T11:36:46Z</time>
      </trkpt>
      <trkpt lat="43.65947" lon="1.39253">
        <ele>131</ele>
        <time>2023-11-12T11:36:47Z</time>
      </trkpt>
      <trkpt lat="43.6595" lon="1.39253">
        <ele>130</ele>
        <time>2023-11-12T11:36:48Z</time>
      </trkpt>
      <trkpt lat="43.65952" lon="1.39252">
        <ele>130</ele>
        <time>2023-11-12T11:36:49Z</time>
      </trkpt>
      <trkpt lat="43.65953" lon="1.39252">
        <ele>130</ele>
        <time>2023-11-12T11:36:50Z</time>
      </trkpt>
      <trkpt lat="43.65954" lon="1.39251">
        <ele>130</ele>
        <time>2023-11-12T11:36:51Z</time>
      </trkpt>
      <trkpt lat="43.65955" lon="1.3925">
        <ele>129</ele>
        <time>2023-11-12T11:36:52Z</time>
      </trkpt>
      <trkpt lat="43.65961" lon="1.39248">
        <ele>129</ele>
        <time>2023-11-12T11:36:53Z</time>
      </trkpt>
      <trkpt lat="43.65962" lon="1.39247">
        <ele>129</ele>
        <time>2023-11-12T11:36:54Z</time>
      </trkpt>
      <trkpt lat="43.65963" lon="1.39246">
        <ele>129</ele>
        <time>2023-11-12T11:36:55Z</time>
      </trkpt>
      <trkpt lat="43.65964" lon="1.39245">
        <ele>129</ele>
        <time>2023-11-12T11:36:56Z</time>
      </trkpt>
      <trkpt lat="43.65965" lon="1.39244">
        <ele>129</ele>
        <time>2023-11-12T11:36:57Z</time>
      </trkpt>
      <trkpt lat="43.65971" lon="1.3924">
        <ele>129</ele>
        <time>2023-11-12T11:36:58Z</time>
      </trkpt>
      <trkpt lat="43.65972" lon="1.3924">
        <ele>129</ele>
        <time>2023-11-12T11:36:59Z</time>
      </trkpt>
      <trkpt lat="43.65973" lon="1.39239">
        <ele>129</ele>
        <time>2023-11-12T11:37:00Z</time>
      </trkpt>
      <trkpt lat="43.65974" lon="1.39239">
        <ele>129</ele>
        <time>2023-11-12T11:37:01Z</time>
      </trkpt>
      <trkpt lat="43.65975" lon="1.39238">
        <ele>130</ele>
        <time>2023-11-12T11:37:02Z</time>
      </trkpt>
      <trkpt lat="43.65981" lon="1.39235">
        <ele>130</ele>
        <time>2023-11-12T11:37:03Z</time>
      </trkpt>
      <trkpt lat="43.65983" lon="1.39235">
        <ele>130</ele>
        <time>2023-11-12T11:37:04Z</time>
      </trkpt>
      <trkpt lat="43.65984" lon="1.39234">
        <ele>130</ele>
        <time>2023-11-12T11:37:05Z</time>
      </trkpt>
      <trkpt lat="43.65985" lon="1.39234">
        <ele>130</ele>
        <time>2023-11-12T11:37:06Z</time>
      </trkpt>
      <trkpt lat="43.65993" lon="1.39231">
        <ele>130</ele>
        <time>2023-11-12T11:37:07Z</time>
      </trkpt>
      <trkpt lat="43.65995" lon="1.3923">
        <ele>130</ele>
        <time>2023-11-12T11:37:08Z</time>
      </trkpt>
      <trkpt lat="43.65997" lon="1.39229">
        <ele>130</ele>
        <time>2023-11-12T11:37:09Z</time>
      </trkpt>
      <trkpt lat="43.66" lon="1.39228">
        <ele>130</ele>
        <time>2023-11-12T11:37:10Z</time>
      </trkpt>
      <trkpt lat="43.66001" lon="1.39227">
        <ele>130</ele>
        <time>2023-11-12T11:37:11Z</time>
      </trkpt>
      <trkpt lat="43.66002" lon="1.39226">
        <ele>130</ele>
        <time>2023-11-12T11:37:12Z</time>
      </trkpt>
      <trkpt lat="43.66004" lon="1.39226">
        <ele>130</ele>
        <time>2023-11-12T11:37:13Z</time>
      </trkpt>
      <trkpt lat="43.66005" lon="1.39225">
        <ele>130</ele>
        <time>2023-11-12T11:37:14Z</time>
      </trkpt>
      <trkpt lat="43.66012" lon="1.39221">
        <ele>130</ele>
        <time>2023-11-12T11:37:15Z</time>
      </trkpt>
      <trkpt lat="43.66014" lon="1.39221">
        <ele>130</ele>
        <time>2023-11-12T11:37:16Z</time>
      </trkpt>
      <trkpt lat="43.66016" lon="1.3922">
        <ele>130</ele>
        <time>2023-11-12T11:37:17Z</time>
      </trkpt>
      <trkpt lat="43.66019" lon="1.39219">
        <ele>130</ele>
        <time>2023-11-12T11:37:18Z</time>
      </trkpt>
      <trkpt lat="43.66021" lon="1.39218">
        <ele>130</ele>
        <time>2023-11-12T11:37:19Z</time>
      </trkpt>
      <trkpt lat="43.66023" lon="1.39216">
        <ele>130</ele>
        <time>2023-11-12T11:37:20Z</time>
      </trkpt>
      <trkpt lat="43.66026" lon="1.39215">
        <ele>130</ele>
        <time>2023-11-12T11:37:21Z</time>
      </trkpt>
      <trkpt lat="43.66028" lon="1.39213">
        <ele>130</ele>
        <time>2023-11-12T11:37:22Z</time>
      </trkpt>
      <trkpt lat="43.66029" lon="1.39213">
        <ele>130</ele>
        <time>2023-11-12T11:37:23Z</time>
      </trkpt>
      <trkpt lat="43.6603" lon="1.39213">
        <ele>131</ele>
        <time>2023-11-12T11:37:24Z</time>
      </trkpt>
      <trkpt lat="43.66031" lon="1.39213">
        <ele>131</ele>
        <time>2023-11-12T11:37:25Z</time>
      </trkpt>
      <trkpt lat="43.66033" lon="1.39213">
        <ele>131</ele>
        <time>2023-11-12T11:37:26Z</time>
      </trkpt>
      <trkpt lat="43.66034" lon="1.39212">
        <ele>131</ele>
        <time>2023-11-12T11:37:27Z</time>
      </trkpt>
      <trkpt lat="43.66041" lon="1.39211">
        <ele>131</ele>
        <time>2023-11-12T11:37:28Z</time>
      </trkpt>
      <trkpt lat="43.66042" lon="1.39211">
        <ele>130</ele>
        <time>2023-11-12T11:37:29Z</time>
      </trkpt>
      <trkpt lat="43.66043" lon="1.3921">
        <ele>130</ele>
        <time>2023-11-12T11:37:30Z</time>
      </trkpt>
      <trkpt lat="43.66044" lon="1.3921">
        <ele>130</ele>
        <time>2023-11-12T11:37:31Z</time>
      </trkpt>
      <trkpt lat="43.66045" lon="1.39209">
        <ele>130</ele>
        <time>2023-11-12T11:37:32Z</time>
      </trkpt>
      <trkpt lat="43.66052" lon="1.39207">
        <ele>130</ele>
        <time>2023-11-12T11:37:33Z</time>
      </trkpt>
      <trkpt lat="43.66054" lon="1.39207">
        <ele>130</ele>
        <time>2023-11-12T11:37:34Z</time>
      </trkpt>
      <trkpt lat="43.66057" lon="1.39207">
        <ele>130</ele>
        <time>2023-11-12T11:37:35Z</time>
      </trkpt>
      <trkpt lat="43.66059" lon="1.39207">
        <ele>130</ele>
        <time>2023-11-12T11:37:36Z</time>
      </trkpt>
      <trkpt lat="43.6606" lon="1.39207">
        <ele>130</ele>
        <time>2023-11-12T11:37:37Z</time>
      </trkpt>
      <trkpt lat="43.66062" lon="1.39207">
        <ele>130</ele>
        <time>2023-11-12T11:37:38Z</time>
      </trkpt>
      <trkpt lat="43.66063" lon="1.39208">
        <ele>130</ele>
        <time>2023-11-12T11:37:39Z</time>
      </trkpt>
      <trkpt lat="43.66065" lon="1.39208">
        <ele>130</ele>
        <time>2023-11-12T11:37:40Z</time>
      </trkpt>
      <trkpt lat="43.66073" lon="1.39208">
        <ele>130</ele>
        <time>2023-11-12T11:37:41Z</time>
      </trkpt>
      <trkpt lat="43.66075" lon="1.39208">
        <ele>130</ele>
        <time>2023-11-12T11:37:42Z</time>
      </trkpt>
      <trkpt lat="43.66078" lon="1.39207">
        <ele>130</ele>
        <time>2023-11-12T11:37:43Z</time>
      </trkpt>
      <trkpt lat="43.66081" lon="1.39207">
        <ele>130</ele>
        <time>2023-11-12T11:37:44Z</time>
      </trkpt>
      <trkpt lat="43.66083" lon="1.39205">
        <ele>130</ele>
        <time>2023-11-12T11:37:45Z</time>
      </trkpt>
      <trkpt lat="43.66085" lon="1.39204">
        <ele>130</ele>
        <time>2023-11-12T11:37:46Z</time>
      </trkpt>
      <trkpt lat="43.66087" lon="1.39202">
        <ele>130</ele>
        <time>2023-11-12T11:37:47Z</time>
      </trkpt>
      <trkpt lat="43.66089" lon="1.39201">
        <ele>130</ele>
        <time>2023-11-12T11:37:48Z</time>
      </trkpt>
      <trkpt lat="43.66092" lon="1.39199">
        <ele>130</ele>
        <time>2023-11-12T11:37:49Z</time>
      </trkpt>
      <trkpt lat="43.66094" lon="1.39197">
        <ele>130</ele>
        <time>2023-11-12T11:37:50Z</time>
      </trkpt>
      <trkpt lat="43.66097" lon="1.39195">
        <ele>130</ele>
        <time>2023-11-12T11:37:51Z</time>
      </trkpt>
      <trkpt lat="43.66099" lon="1.39194">
        <ele>130</ele>
        <time>2023-11-12T11:37:52Z</time>
      </trkpt>
      <trkpt lat="43.66101" lon="1.39192">
        <ele>130</ele>
        <time>2023-11-12T11:37:53Z</time>
      </trkpt>
      <trkpt lat="43.66103" lon="1.39191">
        <ele>130</ele>
        <time>2023-11-12T11:37:54Z</time>
      </trkpt>
      <trkpt lat="43.66105" lon="1.39189">
        <ele>130</ele>
        <time>2023-11-12T11:37:55Z</time>
      </trkpt>
      <trkpt lat="43.66106" lon="1.39189">
        <ele>130</ele>
        <time>2023-11-12T11:37:56Z</time>
      </trkpt>
      <trkpt lat="43.66108" lon="1.39189">
        <ele>130</ele>
        <time>2023-11-12T11:37:57Z</time>
      </trkpt>
      <trkpt lat="43.66109" lon="1.39189">
        <ele>130</ele>
        <time>2023-11-12T11:37:58Z</time>
      </trkpt>
      <trkpt lat="43.6611" lon="1.39188">
        <ele>130</ele>
        <time>2023-11-12T11:37:59Z</time>
      </trkpt>
      <trkpt lat="43.66111" lon="1.39188">
        <ele>130</ele>
        <time>2023-11-12T11:38:00Z</time>
      </trkpt>
      <trkpt lat="43.66118" lon="1.39186">
        <ele>130</ele>
        <time>2023-11-12T11:38:01Z</time>
      </trkpt>
      <trkpt lat="43.6612" lon="1.39186">
        <ele>130</ele>
        <time>2023-11-12T11:38:02Z</time>
      </trkpt>
      <trkpt lat="43.66122" lon="1.39185">
        <ele>130</ele>
        <time>2023-11-12T11:38:03Z</time>
      </trkpt>
      <trkpt lat="43.66125" lon="1.39184">
        <ele>130</ele>
        <time>2023-11-12T11:38:04Z</time>
      </trkpt>
      <trkpt lat="43.66126" lon="1.39184">
        <ele>130</ele>
        <time>2023-11-12T11:38:05Z</time>
      </trkpt>
      <trkpt lat="43.66127" lon="1.39183">
        <ele>130</ele>
        <time>2023-11-12T11:38:06Z</time>
      </trkpt>
      <trkpt lat="43.66129" lon="1.39183">
        <ele>130</ele>
        <time>2023-11-12T11:38:07Z</time>
      </trkpt>
      <trkpt lat="43.6613" lon="1.39182">
        <ele>130</ele>
        <time>2023-11-12T11:38:08Z</time>
      </trkpt>
      <trkpt lat="43.66138" lon="1.3918">
        <ele>130</ele>
        <time>2023-11-12T11:38:09Z</time>
      </trkpt>
      <trkpt lat="43.66141" lon="1.3918">
        <ele>130</ele>
        <time>2023-11-12T11:38:10Z</time>
      </trkpt>
      <trkpt lat="43.66144" lon="1.3918">
        <ele>130</ele>
        <time>2023-11-12T11:38:11Z</time>
      </trkpt>
      <trkpt lat="43.66147" lon="1.39178">
        <ele>130</ele>
        <time>2023-11-12T11:38:12Z</time>
      </trkpt>
      <trkpt lat="43.66149" lon="1.39177">
        <ele>130</ele>
        <time>2023-11-12T11:38:13Z</time>
      </trkpt>
      <trkpt lat="43.66151" lon="1.39175">
        <ele>130</ele>
        <time>2023-11-12T11:38:14Z</time>
      </trkpt>
      <trkpt lat="43.66153" lon="1.39174">
        <ele>130</ele>
        <time>2023-11-12T11:38:15Z</time>
      </trkpt>
      <trkpt lat="43.66155" lon="1.39173">
        <ele>130</ele>
        <time>2023-11-12T11:38:16Z</time>
      </trkpt>
      <trkpt lat="43.66158" lon="1.39173">
        <ele>130</ele>
        <time>2023-11-12T11:38:17Z</time>
      </trkpt>
      <trkpt lat="43.6616" lon="1.39172">
        <ele>130</ele>
        <time>2023-11-12T11:38:18Z</time>
      </trkpt>
      <trkpt lat="43.66163" lon="1.39172">
        <ele>130</ele>
        <time>2023-11-12T11:38:19Z</time>
      </trkpt>
      <trkpt lat="43.66165" lon="1.39171">
        <ele>130</ele>
        <time>2023-11-12T11:38:20Z</time>
      </trkpt>
      <trkpt lat="43.66167" lon="1.39169">
        <ele>130</ele>
        <time>2023-11-12T11:38:21Z</time>
      </trkpt>
      <trkpt lat="43.66169" lon="1.39167">
        <ele>130</ele>
        <time>2023-11-12T11:38:22Z</time>
      </trkpt>
      <trkpt lat="43.66171" lon="1.39164">
        <ele>130</ele>
        <time>2023-11-12T11:38:23Z</time>
      </trkpt>
      <trkpt lat="43.66172" lon="1.39162">
        <ele>130</ele>
        <time>2023-11-12T11:38:24Z</time>
      </trkpt>
      <trkpt lat="43.66174" lon="1.39159">
        <ele>130</ele>
        <time>2023-11-12T11:38:25Z</time>
      </trkpt>
      <trkpt lat="43.66176" lon="1.39157">
        <ele>130</ele>
        <time>2023-11-12T11:38:26Z</time>
      </trkpt>
      <trkpt lat="43.66177" lon="1.39154">
        <ele>130</ele>
        <time>2023-11-12T11:38:27Z</time>
      </trkpt>
      <trkpt lat="43.66179" lon="1.39151">
        <ele>130</ele>
        <time>2023-11-12T11:38:28Z</time>
      </trkpt>
      <trkpt lat="43.6618" lon="1.3915">
        <ele>130</ele>
        <time>2023-11-12T11:38:29Z</time>
      </trkpt>
      <trkpt lat="43.66181" lon="1.39149">
        <ele>130</ele>
        <time>2023-11-12T11:38:30Z</time>
      </trkpt>
      <trkpt lat="43.66182" lon="1.39148">
        <ele>130</ele>
        <time>2023-11-12T11:38:31Z</time>
      </trkpt>
      <trkpt lat="43.66182" lon="1.39147">
        <ele>130</ele>
        <time>2023-11-12T11:38:32Z</time>
      </trkpt>
      <trkpt lat="43.66183" lon="1.39146">
        <ele>130</ele>
        <time>2023-11-12T11:38:33Z</time>
      </trkpt>
      <trkpt lat="43.66188" lon="1.3914">
        <ele>130</ele>
        <time>2023-11-12T11:38:34Z</time>
      </trkpt>
      <trkpt lat="43.66189" lon="1.39139">
        <ele>130</ele>
        <time>2023-11-12T11:38:35Z</time>
      </trkpt>
      <trkpt lat="43.66191" lon="1.39138">
        <ele>130</ele>
        <time>2023-11-12T11:38:36Z</time>
      </trkpt>
      <trkpt lat="43.66192" lon="1.39137">
        <ele>130</ele>
        <time>2023-11-12T11:38:37Z</time>
      </trkpt>
      <trkpt lat="43.66197" lon="1.39132">
        <ele>130</ele>
        <time>2023-11-12T11:38:38Z</time>
      </trkpt>
      <trkpt lat="43.66199" lon="1.39132">
        <ele>130</ele>
        <time>2023-11-12T11:38:39Z</time>
      </trkpt>
      <trkpt lat="43.662" lon="1.39131">
        <ele>130</ele>
        <time>2023-11-12T11:38:40Z</time>
      </trkpt>
      <trkpt lat="43.66202" lon="1.39131">
        <ele>130</ele>
        <time>2023-11-12T11:38:41Z</time>
      </trkpt>
      <trkpt lat="43.66209" lon="1.39131">
        <ele>130</ele>
        <time>2023-11-12T11:38:42Z</time>
      </trkpt>
      <trkpt lat="43.6621" lon="1.39132">
        <ele>130</ele>
        <time>2023-11-12T11:38:43Z</time>
      </trkpt>
      <trkpt lat="43.66211" lon="1.39132">
        <ele>130</ele>
        <time>2023-11-12T11:38:44Z</time>
      </trkpt>
      <trkpt lat="43.66213" lon="1.39133">
        <ele>130</ele>
        <time>2023-11-12T11:38:45Z</time>
      </trkpt>
      <trkpt lat="43.66219" lon="1.39137">
        <ele>130</ele>
        <time>2023-11-12T11:38:46Z</time>
      </trkpt>
      <trkpt lat="43.6622" lon="1.39138">
        <ele>130</ele>
        <time>2023-11-12T11:38:47Z</time>
      </trkpt>
      <trkpt lat="43.66222" lon="1.3914">
        <ele>130</ele>
        <time>2023-11-12T11:38:48Z</time>
      </trkpt>
      <trkpt lat="43.66228" lon="1.39147">
        <ele>130</ele>
        <time>2023-11-12T11:38:49Z</time>
      </trkpt>
      <trkpt lat="43.6623" lon="1.3915">
        <ele>130</ele>
        <time>2023-11-12T11:38:50Z</time>
      </trkpt>
      <trkpt lat="43.66232" lon="1.39153">
        <ele>130</ele>
        <time>2023-11-12T11:38:51Z</time>
      </trkpt>
      <trkpt lat="43.66234" lon="1.39155">
        <ele>130</ele>
        <time>2023-11-12T11:38:52Z</time>
      </trkpt>
      <trkpt lat="43.66236" lon="1.39157">
        <ele>130</ele>
        <time>2023-11-12T11:38:53Z</time>
      </trkpt>
      <trkpt lat="43.66237" lon="1.39159">
        <ele>130</ele>
        <time>2023-11-12T11:38:54Z</time>
      </trkpt>
      <trkpt lat="43.66239" lon="1.39161">
        <ele>130</ele>
        <time>2023-11-12T11:38:55Z</time>
      </trkpt>
      <trkpt lat="43.6624" lon="1.39161">
        <ele>130</ele>
        <time>2023-11-12T11:38:56Z</time>
      </trkpt>
      <trkpt lat="43.66241" lon="1.39161">
        <ele>130</ele>
        <time>2023-11-12T11:38:57Z</time>
      </trkpt>
      <trkpt lat="43.66241" lon="1.39161">
        <ele>130</ele>
        <time>2023-11-12T11:38:58Z</time>
      </trkpt>
      <trkpt lat="43.66242" lon="1.39161">
        <ele>130</ele>
        <time>2023-11-12T11:38:59Z</time>
      </trkpt>
      <trkpt lat="43.66243" lon="1.39161">
        <ele>130</ele>
        <time>2023-11-12T11:39:00Z</time>
      </trkpt>
      <trkpt lat="43.66244" lon="1.3916">
        <ele>130</ele>
        <time>2023-11-12T11:39:01Z</time>
      </trkpt>
      <trkpt lat="43.66244" lon="1.3916">
        <ele>130</ele>
        <time>2023-11-12T11:39:02Z</time>
      </trkpt>
      <trkpt lat="43.6625" lon="1.39158">
        <ele>130</ele>
        <time>2023-11-12T11:39:03Z</time>
      </trkpt>
      <trkpt lat="43.6625" lon="1.39156">
        <ele>130</ele>
        <time>2023-11-12T11:39:04Z</time>
      </trkpt>
      <trkpt lat="43.6625" lon="1.39154">
        <ele>130</ele>
        <time>2023-11-12T11:39:05Z</time>
      </trkpt>
      <trkpt lat="43.6625" lon="1.39153">
        <ele>130</ele>
        <time>2023-11-12T11:39:06Z</time>
      </trkpt>
      <trkpt lat="43.6625" lon="1.39151">
        <ele>130</ele>
        <time>2023-11-12T11:39:07Z</time>
      </trkpt>
      <trkpt lat="43.6625" lon="1.39141">
        <ele>130</ele>
        <time>2023-11-12T11:39:08Z</time>
      </trkpt>
      <trkpt lat="43.6625" lon="1.39137">
        <ele>130</ele>
        <time>2023-11-12T11:39:09Z</time>
      </trkpt>
      <trkpt lat="43.66249" lon="1.39134">
        <ele>130</ele>
        <time>2023-11-12T11:39:10Z</time>
      </trkpt>
      <trkpt lat="43.66249" lon="1.39131">
        <ele>130</ele>
        <time>2023-11-12T11:39:11Z</time>
      </trkpt>
      <trkpt lat="43.66249" lon="1.39128">
        <ele>130</ele>
        <time>2023-11-12T11:39:12Z</time>
      </trkpt>
      <trkpt lat="43.66249" lon="1.39124">
        <ele>130</ele>
        <time>2023-11-12T11:39:13Z</time>
      </trkpt>
      <trkpt lat="43.66249" lon="1.39121">
        <ele>130</ele>
        <time>2023-11-12T11:39:14Z</time>
      </trkpt>
      <trkpt lat="43.66249" lon="1.39118">
        <ele>130</ele>
        <time>2023-11-12T11:39:15Z</time>
      </trkpt>
      <trkpt lat="43.6625" lon="1.39114">
        <ele>130</ele>
        <time>2023-11-12T11:39:16Z</time>
      </trkpt>
      <trkpt lat="43.6625" lon="1.3911">
        <ele>130</ele>
        <time>2023-11-12T11:39:17Z</time>
      </trkpt>
      <trkpt lat="43.66251" lon="1.39105">
        <ele>130</ele>
        <time>2023-11-12T11:39:18Z</time>
      </trkpt>
      <trkpt lat="43.66251" lon="1.39104">
        <ele>130</ele>
        <time>2023-11-12T11:39:19Z</time>
      </trkpt>
      <trkpt lat="43.66252" lon="1.39102">
        <ele>129</ele>
        <time>2023-11-12T11:39:20Z</time>
      </trkpt>
      <trkpt lat="43.66252" lon="1.39101">
        <ele>129</ele>
        <time>2023-11-12T11:39:21Z</time>
      </trkpt>
      <trkpt lat="43.66253" lon="1.39099">
        <ele>129</ele>
        <time>2023-11-12T11:39:22Z</time>
      </trkpt>
      <trkpt lat="43.66256" lon="1.39091">
        <ele>129</ele>
        <time>2023-11-12T11:39:23Z</time>
      </trkpt>
      <trkpt lat="43.66257" lon="1.39089">
        <ele>129</ele>
        <time>2023-11-12T11:39:24Z</time>
      </trkpt>
      <trkpt lat="43.66258" lon="1.39088">
        <ele>129</ele>
        <time>2023-11-12T11:39:25Z</time>
      </trkpt>
      <trkpt lat="43.66259" lon="1.39086">
        <ele>129</ele>
        <time>2023-11-12T11:39:26Z</time>
      </trkpt>
      <trkpt lat="43.66263" lon="1.39077">
        <ele>129</ele>
        <time>2023-11-12T11:39:27Z</time>
      </trkpt>
      <trkpt lat="43.66264" lon="1.39074">
        <ele>129</ele>
        <time>2023-11-12T11:39:28Z</time>
      </trkpt>
      <trkpt lat="43.66265" lon="1.39071">
        <ele>128</ele>
        <time>2023-11-12T11:39:29Z</time>
      </trkpt>
      <trkpt lat="43.66266" lon="1.39068">
        <ele>128</ele>
        <time>2023-11-12T11:39:30Z</time>
      </trkpt>
      <trkpt lat="43.66266" lon="1.39066">
        <ele>128</ele>
        <time>2023-11-12T11:39:31Z</time>
      </trkpt>
      <trkpt lat="43.66266" lon="1.39065">
        <ele>128</ele>
        <time>2023-11-12T11:39:32Z</time>
      </trkpt>
      <trkpt lat="43.66266" lon="1.39063">
        <ele>128</ele>
        <time>2023-11-12T11:39:33Z</time>
      </trkpt>
      <trkpt lat="43.66266" lon="1.39062">
        <ele>127</ele>
        <time>2023-11-12T11:39:34Z</time>
      </trkpt>
      <trkpt lat="43.66266" lon="1.3906">
        <ele>128</ele>
        <time>2023-11-12T11:39:35Z</time>
      </trkpt>
      <trkpt lat="43.66266" lon="1.3905">
        <ele>128</ele>
        <time>2023-11-12T11:39:36Z</time>
      </trkpt>
      <trkpt lat="43.66267" lon="1.39046">
        <ele>128</ele>
        <time>2023-11-12T11:39:37Z</time>
      </trkpt>
      <trkpt lat="43.66268" lon="1.39043">
        <ele>128</ele>
        <time>2023-11-12T11:39:38Z</time>
      </trkpt>
      <trkpt lat="43.66269" lon="1.3904">
        <ele>128</ele>
        <time>2023-11-12T11:39:39Z</time>
      </trkpt>
      <trkpt lat="43.6627" lon="1.39038">
        <ele>128</ele>
        <time>2023-11-12T11:39:40Z</time>
      </trkpt>
      <trkpt lat="43.66271" lon="1.39036">
        <ele>128</ele>
        <time>2023-11-12T11:39:41Z</time>
      </trkpt>
      <trkpt lat="43.66271" lon="1.39034">
        <ele>128</ele>
        <time>2023-11-12T11:39:42Z</time>
      </trkpt>
      <trkpt lat="43.66272" lon="1.39032">
        <ele>128</ele>
        <time>2023-11-12T11:39:43Z</time>
      </trkpt>
      <trkpt lat="43.66276" lon="1.39023">
        <ele>128</ele>
        <time>2023-11-12T11:39:44Z</time>
      </trkpt>
      <trkpt lat="43.66277" lon="1.39022">
        <ele>128</ele>
        <time>2023-11-12T11:39:45Z</time>
      </trkpt>
      <trkpt lat="43.66277" lon="1.3902">
        <ele>128</ele>
        <time>2023-11-12T11:39:46Z</time>
      </trkpt>
      <trkpt lat="43.66278" lon="1.39019">
        <ele>128</ele>
        <time>2023-11-12T11:39:47Z</time>
      </trkpt>
      <trkpt lat="43.66282" lon="1.3901">
        <ele>128</ele>
        <time>2023-11-12T11:39:48Z</time>
      </trkpt>
      <trkpt lat="43.66283" lon="1.39007">
        <ele>128</ele>
        <time>2023-11-12T11:39:49Z</time>
      </trkpt>
      <trkpt lat="43.66285" lon="1.39005">
        <ele>128</ele>
        <time>2023-11-12T11:39:50Z</time>
      </trkpt>
      <trkpt lat="43.66286" lon="1.39002">
        <ele>128</ele>
        <time>2023-11-12T11:39:51Z</time>
      </trkpt>
      <trkpt lat="43.66287" lon="1.38999">
        <ele>128</ele>
        <time>2023-11-12T11:39:52Z</time>
      </trkpt>
      <trkpt lat="43.66289" lon="1.38996">
        <ele>128</ele>
        <time>2023-11-12T11:39:53Z</time>
      </trkpt>
      <trkpt lat="43.66291" lon="1.38993">
        <ele>128</ele>
        <time>2023-11-12T11:39:54Z</time>
      </trkpt>
      <trkpt lat="43.66292" lon="1.3899">
        <ele>129</ele>
        <time>2023-11-12T11:39:55Z</time>
      </trkpt>
      <trkpt lat="43.66294" lon="1.38987">
        <ele>129</ele>
        <time>2023-11-12T11:39:56Z</time>
      </trkpt>
      <trkpt lat="43.66295" lon="1.38984">
        <ele>129</ele>
        <time>2023-11-12T11:39:57Z</time>
      </trkpt>
      <trkpt lat="43.66296" lon="1.38981">
        <ele>129</ele>
        <time>2023-11-12T11:39:58Z</time>
      </trkpt>
      <trkpt lat="43.66297" lon="1.38979">
        <ele>129</ele>
        <time>2023-11-12T11:39:59Z</time>
      </trkpt>
      <trkpt lat="43.66298" lon="1.38977">
        <ele>129</ele>
        <time>2023-11-12T11:40:00Z</time>
      </trkpt>
      <trkpt lat="43.66299" lon="1.38976">
        <ele>129</ele>
        <time>2023-11-12T11:40:01Z</time>
      </trkpt>
      <trkpt lat="43.663" lon="1.38975">
        <ele>129</ele>
        <time>2023-11-12T11:40:02Z</time>
      </trkpt>
      <trkpt lat="43.66301" lon="1.38974">
        <ele>129</ele>
        <time>2023-11-12T11:40:03Z</time>
      </trkpt>
      <trkpt lat="43.66307" lon="1.38967">
        <ele>128</ele>
        <time>2023-11-12T11:40:04Z</time>
      </trkpt>
      <trkpt lat="43.66309" lon="1.38964">
        <ele>128</ele>
        <time>2023-11-12T11:40:05Z</time>
      </trkpt>
      <trkpt lat="43.66311" lon="1.38961">
        <ele>128</ele>
        <time>2023-11-12T11:40:06Z</time>
      </trkpt>
      <trkpt lat="43.66312" lon="1.38959">
        <ele>128</ele>
        <time>2023-11-12T11:40:07Z</time>
      </trkpt>
      <trkpt lat="43.66314" lon="1.38957">
        <ele>128</ele>
        <time>2023-11-12T11:40:08Z</time>
      </trkpt>
      <trkpt lat="43.66316" lon="1.38955">
        <ele>128</ele>
        <time>2023-11-12T11:40:09Z</time>
      </trkpt>
      <trkpt lat="43.66318" lon="1.38953">
        <ele>128</ele>
        <time>2023-11-12T11:40:10Z</time>
      </trkpt>
      <trkpt lat="43.6632" lon="1.38951">
        <ele>128</ele>
        <time>2023-11-12T11:40:11Z</time>
      </trkpt>
      <trkpt lat="43.66322" lon="1.3895">
        <ele>128</ele>
        <time>2023-11-12T11:40:12Z</time>
      </trkpt>
      <trkpt lat="43.66325" lon="1.38948">
        <ele>128</ele>
        <time>2023-11-12T11:40:13Z</time>
      </trkpt>
      <trkpt lat="43.66327" lon="1.38947">
        <ele>128</ele>
        <time>2023-11-12T11:40:14Z</time>
      </trkpt>
      <trkpt lat="43.66329" lon="1.38945">
        <ele>128</ele>
        <time>2023-11-12T11:40:15Z</time>
      </trkpt>
      <trkpt lat="43.6633" lon="1.38944">
        <ele>128</ele>
        <time>2023-11-12T11:40:16Z</time>
      </trkpt>
      <trkpt lat="43.66331" lon="1.38942">
        <ele>129</ele>
        <time>2023-11-12T11:40:17Z</time>
      </trkpt>
      <trkpt lat="43.66332" lon="1.38941">
        <ele>129</ele>
        <time>2023-11-12T11:40:18Z</time>
      </trkpt>
      <trkpt lat="43.66333" lon="1.3894">
        <ele>129</ele>
        <time>2023-11-12T11:40:19Z</time>
      </trkpt>
      <trkpt lat="43.66337" lon="1.38931">
        <ele>129</ele>
        <time>2023-11-12T11:40:20Z</time>
      </trkpt>
      <trkpt lat="43.66339" lon="1.38928">
        <ele>129</ele>
        <time>2023-11-12T11:40:21Z</time>
      </trkpt>
      <trkpt lat="43.6634" lon="1.38925">
        <ele>129</ele>
        <time>2023-11-12T11:40:22Z</time>
      </trkpt>
      <trkpt lat="43.66341" lon="1.38922">
        <ele>128</ele>
        <time>2023-11-12T11:40:23Z</time>
      </trkpt>
      <trkpt lat="43.66342" lon="1.38921">
        <ele>128</ele>
        <time>2023-11-12T11:40:24Z</time>
      </trkpt>
      <trkpt lat="43.66343" lon="1.38919">
        <ele>128</ele>
        <time>2023-11-12T11:40:25Z</time>
      </trkpt>
      <trkpt lat="43.66343" lon="1.38918">
        <ele>128</ele>
        <time>2023-11-12T11:40:26Z</time>
      </trkpt>
      <trkpt lat="43.66344" lon="1.38916">
        <ele>128</ele>
        <time>2023-11-12T11:40:27Z</time>
      </trkpt>
      <trkpt lat="43.66348" lon="1.38908">
        <ele>128</ele>
        <time>2023-11-12T11:40:28Z</time>
      </trkpt>
      <trkpt lat="43.66349" lon="1.38907">
        <ele>129</ele>
        <time>2023-11-12T11:40:29Z</time>
      </trkpt>
      <trkpt lat="43.66349" lon="1.38905">
        <ele>129</ele>
        <time>2023-11-12T11:40:30Z</time>
      </trkpt>
      <trkpt lat="43.6635" lon="1.38903">
        <ele>129</ele>
        <time>2023-11-12T11:40:31Z</time>
      </trkpt>
      <trkpt lat="43.66353" lon="1.38895">
        <ele>129</ele>
        <time>2023-11-12T11:40:32Z</time>
      </trkpt>
      <trkpt lat="43.66354" lon="1.38894">
        <ele>129</ele>
        <time>2023-11-12T11:40:33Z</time>
      </trkpt>
      <trkpt lat="43.66355" lon="1.38893">
        <ele>129</ele>
        <time>2023-11-12T11:40:34Z</time>
      </trkpt>
      <trkpt lat="43.66356" lon="1.38892">
        <ele>129</ele>
        <time>2023-11-12T11:40:35Z</time>
      </trkpt>
      <trkpt lat="43.66357" lon="1.38891">
        <ele>129</ele>
        <time>2023-11-12T11:40:36Z</time>
      </trkpt>
      <trkpt lat="43.66363" lon="1.38884">
        <ele>128</ele>
        <time>2023-11-12T11:40:37Z</time>
      </trkpt>
      <trkpt lat="43.66365" lon="1.38882">
        <ele>128</ele>
        <time>2023-11-12T11:40:38Z</time>
      </trkpt>
      <trkpt lat="43.66366" lon="1.38879">
        <ele>128</ele>
        <time>2023-11-12T11:40:39Z</time>
      </trkpt>
      <trkpt lat="43.66368" lon="1.38877">
        <ele>128</ele>
        <time>2023-11-12T11:40:40Z</time>
      </trkpt>
      <trkpt lat="43.6637" lon="1.38875">
        <ele>128</ele>
        <time>2023-11-12T11:40:41Z</time>
      </trkpt>
      <trkpt lat="43.66371" lon="1.38872">
        <ele>128</ele>
        <time>2023-11-12T11:40:42Z</time>
      </trkpt>
      <trkpt lat="43.66373" lon="1.3887">
        <ele>128</ele>
        <time>2023-11-12T11:40:43Z</time>
      </trkpt>
      <trkpt lat="43.66374" lon="1.38867">
        <ele>128</ele>
        <time>2023-11-12T11:40:44Z</time>
      </trkpt>
      <trkpt lat="43.66376" lon="1.38866">
        <ele>128</ele>
        <time>2023-11-12T11:40:45Z</time>
      </trkpt>
      <trkpt lat="43.66377" lon="1.38865">
        <ele>128</ele>
        <time>2023-11-12T11:40:46Z</time>
      </trkpt>
      <trkpt lat="43.66378" lon="1.38864">
        <ele>128</ele>
        <time>2023-11-12T11:40:47Z</time>
      </trkpt>
      <trkpt lat="43.66379" lon="1.38863">
        <ele>128</ele>
        <time>2023-11-12T11:40:48Z</time>
      </trkpt>
      <trkpt lat="43.66385" lon="1.38856">
        <ele>128</ele>
        <time>2023-11-12T11:40:49Z</time>
      </trkpt>
      <trkpt lat="43.66386" lon="1.38853">
        <ele>128</ele>
        <time>2023-11-12T11:40:50Z</time>
      </trkpt>
      <trkpt lat="43.66388" lon="1.3885">
        <ele>128</ele>
        <time>2023-11-12T11:40:51Z</time>
      </trkpt>
      <trkpt lat="43.66389" lon="1.38847">
        <ele>128</ele>
        <time>2023-11-12T11:40:52Z</time>
      </trkpt>
      <trkpt lat="43.66391" lon="1.38846">
        <ele>128</ele>
        <time>2023-11-12T11:40:53Z</time>
      </trkpt>
      <trkpt lat="43.66392" lon="1.38845">
        <ele>128</ele>
        <time>2023-11-12T11:40:54Z</time>
      </trkpt>
      <trkpt lat="43.66393" lon="1.38844">
        <ele>128</ele>
        <time>2023-11-12T11:40:55Z</time>
      </trkpt>
      <trkpt lat="43.66394" lon="1.38843">
        <ele>128</ele>
        <time>2023-11-12T11:40:56Z</time>
      </trkpt>
      <trkpt lat="43.66401" lon="1.38838">
        <ele>128</ele>
        <time>2023-11-12T11:40:57Z</time>
      </trkpt>
      <trkpt lat="43.66403" lon="1.38836">
        <ele>128</ele>
        <time>2023-11-12T11:40:58Z</time>
      </trkpt>
      <trkpt lat="43.66404" lon="1.38833">
        <ele>129</ele>
        <time>2023-11-12T11:40:59Z</time>
      </trkpt>
      <trkpt lat="43.66406" lon="1.38831">
        <ele>129</ele>
        <time>2023-11-12T11:41:00Z</time>
      </trkpt>
      <trkpt lat="43.66409" lon="1.3883">
        <ele>129</ele>
        <time>2023-11-12T11:41:01Z</time>
      </trkpt>
      <trkpt lat="43.66411" lon="1.38829">
        <ele>129</ele>
        <time>2023-11-12T11:41:02Z</time>
      </trkpt>
      <trkpt lat="43.66413" lon="1.38828">
        <ele>129</ele>
        <time>2023-11-12T11:41:03Z</time>
      </trkpt>
      <trkpt lat="43.66415" lon="1.38827">
        <ele>130</ele>
        <time>2023-11-12T11:41:04Z</time>
      </trkpt>
      <trkpt lat="43.66417" lon="1.38827">
        <ele>130</ele>
        <time>2023-11-12T11:41:05Z</time>
      </trkpt>
      <trkpt lat="43.66418" lon="1.38826">
        <ele>130</ele>
        <time>2023-11-12T11:41:06Z</time>
      </trkpt>
      <trkpt lat="43.66419" lon="1.38826">
        <ele>130</ele>
        <time>2023-11-12T11:41:07Z</time>
      </trkpt>
      <trkpt lat="43.6642" lon="1.38825">
        <ele>130</ele>
        <time>2023-11-12T11:41:08Z</time>
      </trkpt>
      <trkpt lat="43.66428" lon="1.38822">
        <ele>130</ele>
        <time>2023-11-12T11:41:09Z</time>
      </trkpt>
      <trkpt lat="43.6643" lon="1.38821">
        <ele>129</ele>
        <time>2023-11-12T11:41:10Z</time>
      </trkpt>
      <trkpt lat="43.66433" lon="1.3882">
        <ele>129</ele>
        <time>2023-11-12T11:41:11Z</time>
      </trkpt>
      <trkpt lat="43.66435" lon="1.38819">
        <ele>129</ele>
        <time>2023-11-12T11:41:12Z</time>
      </trkpt>
      <trkpt lat="43.66438" lon="1.38818">
        <ele>129</ele>
        <time>2023-11-12T11:41:13Z</time>
      </trkpt>
      <trkpt lat="43.6644" lon="1.38818">
        <ele>130</ele>
        <time>2023-11-12T11:41:14Z</time>
      </trkpt>
      <trkpt lat="43.66442" lon="1.38817">
        <ele>130</ele>
        <time>2023-11-12T11:41:15Z</time>
      </trkpt>
      <trkpt lat="43.66445" lon="1.38816">
        <ele>130</ele>
        <time>2023-11-12T11:41:16Z</time>
      </trkpt>
      <trkpt lat="43.66446" lon="1.38816">
        <ele>129</ele>
        <time>2023-11-12T11:41:17Z</time>
      </trkpt>
      <trkpt lat="43.66447" lon="1.38815">
        <ele>129</ele>
        <time>2023-11-12T11:41:18Z</time>
      </trkpt>
      <trkpt lat="43.66449" lon="1.38814">
        <ele>129</ele>
        <time>2023-11-12T11:41:19Z</time>
      </trkpt>
      <trkpt lat="43.6645" lon="1.38813">
        <ele>129</ele>
        <time>2023-11-12T11:41:20Z</time>
      </trkpt>
      <trkpt lat="43.66456" lon="1.3881">
        <ele>129</ele>
        <time>2023-11-12T11:41:21Z</time>
      </trkpt>
      <trkpt lat="43.66457" lon="1.38809">
        <ele>129</ele>
        <time>2023-11-12T11:41:22Z</time>
      </trkpt>
      <trkpt lat="43.66458" lon="1.38808">
        <ele>129</ele>
        <time>2023-11-12T11:41:23Z</time>
      </trkpt>
      <trkpt lat="43.66459" lon="1.38807">
        <ele>129</ele>
        <time>2023-11-12T11:41:24Z</time>
      </trkpt>
      <trkpt lat="43.66465" lon="1.38801">
        <ele>129</ele>
        <time>2023-11-12T11:41:25Z</time>
      </trkpt>
      <trkpt lat="43.66467" lon="1.38798">
        <ele>129</ele>
        <time>2023-11-12T11:41:26Z</time>
      </trkpt>
      <trkpt lat="43.66469" lon="1.38796">
        <ele>129</ele>
        <time>2023-11-12T11:41:27Z</time>
      </trkpt>
      <trkpt lat="43.6647" lon="1.38793">
        <ele>129</ele>
        <time>2023-11-12T11:41:28Z</time>
      </trkpt>
      <trkpt lat="43.66471" lon="1.38792">
        <ele>129</ele>
        <time>2023-11-12T11:41:29Z</time>
      </trkpt>
      <trkpt lat="43.66472" lon="1.38792">
        <ele>129</ele>
        <time>2023-11-12T11:41:30Z</time>
      </trkpt>
      <trkpt lat="43.66473" lon="1.38791">
        <ele>129</ele>
        <time>2023-11-12T11:41:31Z</time>
      </trkpt>
      <trkpt lat="43.66474" lon="1.3879">
        <ele>129</ele>
        <time>2023-11-12T11:41:32Z</time>
      </trkpt>
      <trkpt lat="43.66475" lon="1.3879">
        <ele>129</ele>
        <time>2023-11-12T11:41:33Z</time>
      </trkpt>
      <trkpt lat="43.66481" lon="1.38785">
        <ele>129</ele>
        <time>2023-11-12T11:41:34Z</time>
      </trkpt>
      <trkpt lat="43.66483" lon="1.38784">
        <ele>129</ele>
        <time>2023-11-12T11:41:35Z</time>
      </trkpt>
      <trkpt lat="43.66484" lon="1.38783">
        <ele>129</ele>
        <time>2023-11-12T11:41:36Z</time>
      </trkpt>
      <trkpt lat="43.66485" lon="1.38782">
        <ele>129</ele>
        <time>2023-11-12T11:41:37Z</time>
      </trkpt>
      <trkpt lat="43.6649" lon="1.38776">
        <ele>129</ele>
        <time>2023-11-12T11:41:38Z</time>
      </trkpt>
      <trkpt lat="43.66491" lon="1.38775">
        <ele>129</ele>
        <time>2023-11-12T11:41:39Z</time>
      </trkpt>
      <trkpt lat="43.66492" lon="1.38774">
        <ele>129</ele>
        <time>2023-11-12T11:41:40Z</time>
      </trkpt>
      <trkpt lat="43.66493" lon="1.38772">
        <ele>129</ele>
        <time>2023-11-12T11:41:41Z</time>
      </trkpt>
      <trkpt lat="43.66498" lon="1.38766">
        <ele>129</ele>
        <time>2023-11-12T11:41:42Z</time>
      </trkpt>
      <trkpt lat="43.66499" lon="1.38764">
        <ele>129</ele>
        <time>2023-11-12T11:41:43Z</time>
      </trkpt>
      <trkpt lat="43.665" lon="1.38763">
        <ele>129</ele>
        <time>2023-11-12T11:41:44Z</time>
      </trkpt>
      <trkpt lat="43.66501" lon="1.38762">
        <ele>129</ele>
        <time>2023-11-12T11:41:45Z</time>
      </trkpt>
      <trkpt lat="43.66507" lon="1.38755">
        <ele>129</ele>
        <time>2023-11-12T11:41:46Z</time>
      </trkpt>
      <trkpt lat="43.6651" lon="1.38753">
        <ele>129</ele>
        <time>2023-11-12T11:41:47Z</time>
      </trkpt>
      <trkpt lat="43.66512" lon="1.38751">
        <ele>129</ele>
        <time>2023-11-12T11:41:48Z</time>
      </trkpt>
      <trkpt lat="43.66515" lon="1.38749">
        <ele>129</ele>
        <time>2023-11-12T11:41:49Z</time>
      </trkpt>
      <trkpt lat="43.66517" lon="1.38747">
        <ele>129</ele>
        <time>2023-11-12T11:41:50Z</time>
      </trkpt>
      <trkpt lat="43.66519" lon="1.38745">
        <ele>128</ele>
        <time>2023-11-12T11:41:51Z</time>
      </trkpt>
      <trkpt lat="43.66521" lon="1.38743">
        <ele>129</ele>
        <time>2023-11-12T11:41:52Z</time>
      </trkpt>
      <trkpt lat="43.66523" lon="1.3874">
        <ele>129</ele>
        <time>2023-11-12T11:41:53Z</time>
      </trkpt>
      <trkpt lat="43.66524" lon="1.38739">
        <ele>129</ele>
        <time>2023-11-12T11:41:54Z</time>
      </trkpt>
      <trkpt lat="43.66525" lon="1.38738">
        <ele>130</ele>
        <time>2023-11-12T11:41:55Z</time>
      </trkpt>
      <trkpt lat="43.66526" lon="1.38737">
        <ele>130</ele>
        <time>2023-11-12T11:41:56Z</time>
      </trkpt>
      <trkpt lat="43.66527" lon="1.38736">
        <ele>130</ele>
        <time>2023-11-12T11:41:57Z</time>
      </trkpt>
      <trkpt lat="43.66533" lon="1.38729">
        <ele>130</ele>
        <time>2023-11-12T11:41:58Z</time>
      </trkpt>
      <trkpt lat="43.66536" lon="1.38727">
        <ele>130</ele>
        <time>2023-11-12T11:41:59Z</time>
      </trkpt>
      <trkpt lat="43.66538" lon="1.38725">
        <ele>130</ele>
        <time>2023-11-12T11:42:00Z</time>
      </trkpt>
      <trkpt lat="43.6654" lon="1.38723">
        <ele>130</ele>
        <time>2023-11-12T11:42:01Z</time>
      </trkpt>
      <trkpt lat="43.66542" lon="1.38722">
        <ele>130</ele>
        <time>2023-11-12T11:42:02Z</time>
      </trkpt>
      <trkpt lat="43.66544" lon="1.3872">
        <ele>130</ele>
        <time>2023-11-12T11:42:03Z</time>
      </trkpt>
      <trkpt lat="43.66547" lon="1.38719">
        <ele>129</ele>
        <time>2023-11-12T11:42:04Z</time>
      </trkpt>
      <trkpt lat="43.66549" lon="1.38718">
        <ele>129</ele>
        <time>2023-11-12T11:42:05Z</time>
      </trkpt>
      <trkpt lat="43.66552" lon="1.38718">
        <ele>129</ele>
        <time>2023-11-12T11:42:06Z</time>
      </trkpt>
      <trkpt lat="43.66554" lon="1.38719">
        <ele>129</ele>
        <time>2023-11-12T11:42:07Z</time>
      </trkpt>
      <trkpt lat="43.66557" lon="1.38719">
        <ele>128</ele>
        <time>2023-11-12T11:42:08Z</time>
      </trkpt>
      <trkpt lat="43.66559" lon="1.3872">
        <ele>128</ele>
        <time>2023-11-12T11:42:09Z</time>
      </trkpt>
      <trkpt lat="43.66561" lon="1.3872">
        <ele>128</ele>
        <time>2023-11-12T11:42:10Z</time>
      </trkpt>
      <trkpt lat="43.66562" lon="1.38721">
        <ele>128</ele>
        <time>2023-11-12T11:42:11Z</time>
      </trkpt>
      <trkpt lat="43.66563" lon="1.38722">
        <ele>128</ele>
        <time>2023-11-12T11:42:12Z</time>
      </trkpt>
      <trkpt lat="43.66564" lon="1.38723">
        <ele>128</ele>
        <time>2023-11-12T11:42:13Z</time>
      </trkpt>
      <trkpt lat="43.66572" lon="1.38729">
        <ele>128</ele>
        <time>2023-11-12T11:42:14Z</time>
      </trkpt>
      <trkpt lat="43.66574" lon="1.38732">
        <ele>128</ele>
        <time>2023-11-12T11:42:15Z</time>
      </trkpt>
      <trkpt lat="43.66577" lon="1.38735">
        <ele>128</ele>
        <time>2023-11-12T11:42:16Z</time>
      </trkpt>
      <trkpt lat="43.66578" lon="1.38736">
        <ele>128</ele>
        <time>2023-11-12T11:42:17Z</time>
      </trkpt>
      <trkpt lat="43.66579" lon="1.38737">
        <ele>128</ele>
        <time>2023-11-12T11:42:18Z</time>
      </trkpt>
      <trkpt lat="43.6658" lon="1.38738">
        <ele>128</ele>
        <time>2023-11-12T11:42:19Z</time>
      </trkpt>
      <trkpt lat="43.66581" lon="1.38739">
        <ele>128</ele>
        <time>2023-11-12T11:42:20Z</time>
      </trkpt>
      <trkpt lat="43.66586" lon="1.38747">
        <ele>128</ele>
        <time>2023-11-12T11:42:21Z</time>
      </trkpt>
      <trkpt lat="43.66588" lon="1.3875">
        <ele>128</ele>
        <time>2023-11-12T11:42:22Z</time>
      </trkpt>
      <trkpt lat="43.6659" lon="1.38753">
        <ele>128</ele>
        <time>2023-11-12T11:42:23Z</time>
      </trkpt>
      <trkpt lat="43.66591" lon="1.38755">
        <ele>128</ele>
        <time>2023-11-12T11:42:24Z</time>
      </trkpt>
      <trkpt lat="43.66592" lon="1.38757">
        <ele>129</ele>
        <time>2023-11-12T11:42:25Z</time>
      </trkpt>
      <trkpt lat="43.66593" lon="1.38759">
        <ele>129</ele>
        <time>2023-11-12T11:42:26Z</time>
      </trkpt>
      <trkpt lat="43.66594" lon="1.38761">
        <ele>129</ele>
        <time>2023-11-12T11:42:27Z</time>
      </trkpt>
      <trkpt lat="43.66595" lon="1.38763">
        <ele>129</ele>
        <time>2023-11-12T11:42:28Z</time>
      </trkpt>
      <trkpt lat="43.66599" lon="1.38771">
        <ele>129</ele>
        <time>2023-11-12T11:42:29Z</time>
      </trkpt>
      <trkpt lat="43.666" lon="1.38774">
        <ele>129</ele>
        <time>2023-11-12T11:42:30Z</time>
      </trkpt>
      <trkpt lat="43.66602" lon="1.38777">
        <ele>129</ele>
        <time>2023-11-12T11:42:31Z</time>
      </trkpt>
      <trkpt lat="43.66603" lon="1.38781">
        <ele>129</ele>
        <time>2023-11-12T11:42:32Z</time>
      </trkpt>
      <trkpt lat="43.66604" lon="1.38784">
        <ele>128</ele>
        <time>2023-11-12T11:42:33Z</time>
      </trkpt>
      <trkpt lat="43.66605" lon="1.38787">
        <ele>128</ele>
        <time>2023-11-12T11:42:34Z</time>
      </trkpt>
      <trkpt lat="43.66605" lon="1.3879">
        <ele>129</ele>
        <time>2023-11-12T11:42:35Z</time>
      </trkpt>
      <trkpt lat="43.66606" lon="1.38793">
        <ele>129</ele>
        <time>2023-11-12T11:42:36Z</time>
      </trkpt>
      <trkpt lat="43.66607" lon="1.38796">
        <ele>129</ele>
        <time>2023-11-12T11:42:37Z</time>
      </trkpt>
      <trkpt lat="43.66607" lon="1.388">
        <ele>129</ele>
        <time>2023-11-12T11:42:38Z</time>
      </trkpt>
      <trkpt lat="43.66608" lon="1.38803">
        <ele>130</ele>
        <time>2023-11-12T11:42:39Z</time>
      </trkpt>
      <trkpt lat="43.66608" lon="1.38807">
        <ele>130</ele>
        <time>2023-11-12T11:42:40Z</time>
      </trkpt>
      <trkpt lat="43.66609" lon="1.3881">
        <ele>130</ele>
        <time>2023-11-12T11:42:41Z</time>
      </trkpt>
      <trkpt lat="43.6661" lon="1.38813">
        <ele>129</ele>
        <time>2023-11-12T11:42:42Z</time>
      </trkpt>
      <trkpt lat="43.6661" lon="1.38817">
        <ele>129</ele>
        <time>2023-11-12T11:42:43Z</time>
      </trkpt>
      <trkpt lat="43.66611" lon="1.3882">
        <ele>129</ele>
        <time>2023-11-12T11:42:44Z</time>
      </trkpt>
      <trkpt lat="43.66612" lon="1.38826">
        <ele>130</ele>
        <time>2023-11-12T11:42:45Z</time>
      </trkpt>
      <trkpt lat="43.66612" lon="1.38826">
        <ele>130</ele>
        <time>2023-11-12T11:42:46Z</time>
      </trkpt>
      <trkpt lat="43.66612" lon="1.3883">
        <ele>130</ele>
        <time>2023-11-12T11:42:47Z</time>
      </trkpt>
      <trkpt lat="43.66613" lon="1.38833">
        <ele>129</ele>
        <time>2023-11-12T11:42:48Z</time>
      </trkpt>
      <trkpt lat="43.66613" lon="1.38836">
        <ele>129</ele>
        <time>2023-11-12T11:42:49Z</time>
      </trkpt>
      <trkpt lat="43.66613" lon="1.38839">
        <ele>129</ele>
        <time>2023-11-12T11:42:50Z</time>
      </trkpt>
      <trkpt lat="43.66614" lon="1.38841">
        <ele>129</ele>
        <time>2023-11-12T11:42:51Z</time>
      </trkpt>
      <trkpt lat="43.66614" lon="1.38843">
        <ele>129</ele>
        <time>2023-11-12T11:42:52Z</time>
      </trkpt>
      <trkpt lat="43.66614" lon="1.38845">
        <ele>129</ele>
        <time>2023-11-12T11:42:53Z</time>
      </trkpt>
      <trkpt lat="43.66614" lon="1.38847">
        <ele>129</ele>
        <time>2023-11-12T11:42:54Z</time>
      </trkpt>
      <trkpt lat="43.66615" lon="1.38857">
        <ele>129</ele>
        <time>2023-11-12T11:42:55Z</time>
      </trkpt>
      <trkpt lat="43.66615" lon="1.38859">
        <ele>129</ele>
        <time>2023-11-12T11:42:56Z</time>
      </trkpt>
      <trkpt lat="43.66615" lon="1.3886">
        <ele>129</ele>
        <time>2023-11-12T11:42:57Z</time>
      </trkpt>
      <trkpt lat="43.66615" lon="1.38862">
        <ele>129</ele>
        <time>2023-11-12T11:42:58Z</time>
      </trkpt>
      <trkpt lat="43.66615" lon="1.38873">
        <ele>129</ele>
        <time>2023-11-12T11:42:59Z</time>
      </trkpt>
      <trkpt lat="43.66615" lon="1.38876">
        <ele>129</ele>
        <time>2023-11-12T11:43:00Z</time>
      </trkpt>
      <trkpt lat="43.66615" lon="1.38879">
        <ele>129</ele>
        <time>2023-11-12T11:43:01Z</time>
      </trkpt>
      <trkpt lat="43.66615" lon="1.38883">
        <ele>129</ele>
        <time>2023-11-12T11:43:02Z</time>
      </trkpt>
      <trkpt lat="43.66615" lon="1.38886">
        <ele>129</ele>
        <time>2023-11-12T11:43:03Z</time>
      </trkpt>
      <trkpt lat="43.66614" lon="1.3889">
        <ele>129</ele>
        <time>2023-11-12T11:43:04Z</time>
      </trkpt>
      <trkpt lat="43.66614" lon="1.38893">
        <ele>130</ele>
        <time>2023-11-12T11:43:05Z</time>
      </trkpt>
      <trkpt lat="43.66613" lon="1.38897">
        <ele>130</ele>
        <time>2023-11-12T11:43:06Z</time>
      </trkpt>
      <trkpt lat="43.66613" lon="1.38898">
        <ele>130</ele>
        <time>2023-11-12T11:43:07Z</time>
      </trkpt>
      <trkpt lat="43.66613" lon="1.389">
        <ele>130</ele>
        <time>2023-11-12T11:43:08Z</time>
      </trkpt>
      <trkpt lat="43.66613" lon="1.38902">
        <ele>130</ele>
        <time>2023-11-12T11:43:09Z</time>
      </trkpt>
      <trkpt lat="43.66612" lon="1.38904">
        <ele>130</ele>
        <time>2023-11-12T11:43:10Z</time>
      </trkpt>
      <trkpt lat="43.66611" lon="1.38915">
        <ele>130</ele>
        <time>2023-11-12T11:43:11Z</time>
      </trkpt>
      <trkpt lat="43.66611" lon="1.38918">
        <ele>130</ele>
        <time>2023-11-12T11:43:12Z</time>
      </trkpt>
      <trkpt lat="43.6661" lon="1.38922">
        <ele>130</ele>
        <time>2023-11-12T11:43:13Z</time>
      </trkpt>
      <trkpt lat="43.6661" lon="1.38925">
        <ele>130</ele>
        <time>2023-11-12T11:43:14Z</time>
      </trkpt>
      <trkpt lat="43.6661" lon="1.38928">
        <ele>130</ele>
        <time>2023-11-12T11:43:15Z</time>
      </trkpt>
      <trkpt lat="43.6661" lon="1.3893">
        <ele>130</ele>
        <time>2023-11-12T11:43:16Z</time>
      </trkpt>
      <trkpt lat="43.66609" lon="1.38933">
        <ele>130</ele>
        <time>2023-11-12T11:43:17Z</time>
      </trkpt>
      <trkpt lat="43.66609" lon="1.38935">
        <ele>130</ele>
        <time>2023-11-12T11:43:18Z</time>
      </trkpt>
      <trkpt lat="43.66609" lon="1.38938">
        <ele>130</ele>
        <time>2023-11-12T11:43:19Z</time>
      </trkpt>
      <trkpt lat="43.66608" lon="1.38941">
        <ele>130</ele>
        <time>2023-11-12T11:43:20Z</time>
      </trkpt>
      <trkpt lat="43.66608" lon="1.38944">
        <ele>130</ele>
        <time>2023-11-12T11:43:21Z</time>
      </trkpt>
      <trkpt lat="43.66608" lon="1.38947">
        <ele>130</ele>
        <time>2023-11-12T11:43:22Z</time>
      </trkpt>
      <trkpt lat="43.66607" lon="1.3895">
        <ele>130</ele>
        <time>2023-11-12T11:43:23Z</time>
      </trkpt>
      <trkpt lat="43.66607" lon="1.38953">
        <ele>130</ele>
        <time>2023-11-12T11:43:24Z</time>
      </trkpt>
      <trkpt lat="43.66607" lon="1.38955">
        <ele>130</ele>
        <time>2023-11-12T11:43:25Z</time>
      </trkpt>
      <trkpt lat="43.66606" lon="1.38957">
        <ele>130</ele>
        <time>2023-11-12T11:43:26Z</time>
      </trkpt>
      <trkpt lat="43.66606" lon="1.38959">
        <ele>130</ele>
        <time>2023-11-12T11:43:27Z</time>
      </trkpt>
      <trkpt lat="43.66606" lon="1.3896">
        <ele>130</ele>
        <time>2023-11-12T11:43:28Z</time>
      </trkpt>
      <trkpt lat="43.66605" lon="1.38971">
        <ele>130</ele>
        <time>2023-11-12T11:43:29Z</time>
      </trkpt>
      <trkpt lat="43.66605" lon="1.38974">
        <ele>130</ele>
        <time>2023-11-12T11:43:30Z</time>
      </trkpt>
      <trkpt lat="43.66605" lon="1.38977">
        <ele>130</ele>
        <time>2023-11-12T11:43:31Z</time>
      </trkpt>
      <trkpt lat="43.66605" lon="1.38981">
        <ele>130</ele>
        <time>2023-11-12T11:43:32Z</time>
      </trkpt>
      <trkpt lat="43.66605" lon="1.38984">
        <ele>129</ele>
        <time>2023-11-12T11:43:33Z</time>
      </trkpt>
      <trkpt lat="43.66605" lon="1.38987">
        <ele>129</ele>
        <time>2023-11-12T11:43:34Z</time>
      </trkpt>
      <trkpt lat="43.66604" lon="1.38991">
        <ele>130</ele>
        <time>2023-11-12T11:43:35Z</time>
      </trkpt>
      <trkpt lat="43.66604" lon="1.38994">
        <ele>130</ele>
        <time>2023-11-12T11:43:36Z</time>
      </trkpt>
      <trkpt lat="43.66604" lon="1.38996">
        <ele>130</ele>
        <time>2023-11-12T11:43:37Z</time>
      </trkpt>
      <trkpt lat="43.66604" lon="1.38997">
        <ele>130</ele>
        <time>2023-11-12T11:43:38Z</time>
      </trkpt>
      <trkpt lat="43.66603" lon="1.38999">
        <ele>130</ele>
        <time>2023-11-12T11:43:39Z</time>
      </trkpt>
      <trkpt lat="43.66603" lon="1.39">
        <ele>130</ele>
        <time>2023-11-12T11:43:40Z</time>
      </trkpt>
      <trkpt lat="43.66603" lon="1.39001">
        <ele>130</ele>
        <time>2023-11-12T11:43:41Z</time>
      </trkpt>
      <trkpt lat="43.66601" lon="1.3901">
        <ele>130</ele>
        <time>2023-11-12T11:43:42Z</time>
      </trkpt>
      <trkpt lat="43.66601" lon="1.39012">
        <ele>130</ele>
        <time>2023-11-12T11:43:43Z</time>
      </trkpt>
      <trkpt lat="43.66601" lon="1.39014">
        <ele>130</ele>
        <time>2023-11-12T11:43:44Z</time>
      </trkpt>
      <trkpt lat="43.666" lon="1.39016">
        <ele>130</ele>
        <time>2023-11-12T11:43:45Z</time>
      </trkpt>
      <trkpt lat="43.66599" lon="1.39024">
        <ele>129</ele>
        <time>2023-11-12T11:43:46Z</time>
      </trkpt>
      <trkpt lat="43.66599" lon="1.39026">
        <ele>129</ele>
        <time>2023-11-12T11:43:47Z</time>
      </trkpt>
      <trkpt lat="43.66599" lon="1.39028">
        <ele>129</ele>
        <time>2023-11-12T11:43:48Z</time>
      </trkpt>
      <trkpt lat="43.66598" lon="1.3903">
        <ele>129</ele>
        <time>2023-11-12T11:43:49Z</time>
      </trkpt>
      <trkpt lat="43.66597" lon="1.39041">
        <ele>129</ele>
        <time>2023-11-12T11:43:50Z</time>
      </trkpt>
      <trkpt lat="43.66597" lon="1.39044">
        <ele>129</ele>
        <time>2023-11-12T11:43:51Z</time>
      </trkpt>
      <trkpt lat="43.66597" lon="1.39048">
        <ele>129</ele>
        <time>2023-11-12T11:43:52Z</time>
      </trkpt>
      <trkpt lat="43.66597" lon="1.39051">
        <ele>129</ele>
        <time>2023-11-12T11:43:53Z</time>
      </trkpt>
      <trkpt lat="43.66597" lon="1.39054">
        <ele>129</ele>
        <time>2023-11-12T11:43:54Z</time>
      </trkpt>
      <trkpt lat="43.66597" lon="1.39057">
        <ele>130</ele>
        <time>2023-11-12T11:43:55Z</time>
      </trkpt>
      <trkpt lat="43.66596" lon="1.39061">
        <ele>130</ele>
        <time>2023-11-12T11:43:56Z</time>
      </trkpt>
      <trkpt lat="43.66596" lon="1.39062">
        <ele>130</ele>
        <time>2023-11-12T11:43:57Z</time>
      </trkpt>
      <trkpt lat="43.66596" lon="1.39064">
        <ele>130</ele>
        <time>2023-11-12T11:43:58Z</time>
      </trkpt>
      <trkpt lat="43.66595" lon="1.39065">
        <ele>130</ele>
        <time>2023-11-12T11:43:59Z</time>
      </trkpt>
      <trkpt lat="43.66595" lon="1.39066">
        <ele>130</ele>
        <time>2023-11-12T11:44:00Z</time>
      </trkpt>
      <trkpt lat="43.66595" lon="1.39068">
        <ele>130</ele>
        <time>2023-11-12T11:44:01Z</time>
      </trkpt>
      <trkpt lat="43.66594" lon="1.39079">
        <ele>130</ele>
        <time>2023-11-12T11:44:02Z</time>
      </trkpt>
      <trkpt lat="43.66595" lon="1.39082">
        <ele>130</ele>
        <time>2023-11-12T11:44:03Z</time>
      </trkpt>
      <trkpt lat="43.66596" lon="1.39085">
        <ele>130</ele>
        <time>2023-11-12T11:44:04Z</time>
      </trkpt>
      <trkpt lat="43.66596" lon="1.39089">
        <ele>130</ele>
        <time>2023-11-12T11:44:05Z</time>
      </trkpt>
      <trkpt lat="43.66596" lon="1.39092">
        <ele>130</ele>
        <time>2023-11-12T11:44:06Z</time>
      </trkpt>
      <trkpt lat="43.66596" lon="1.39096">
        <ele>130</ele>
        <time>2023-11-12T11:44:07Z</time>
      </trkpt>
      <trkpt lat="43.66596" lon="1.39099">
        <ele>130</ele>
        <time>2023-11-12T11:44:08Z</time>
      </trkpt>
      <trkpt lat="43.66596" lon="1.39103">
        <ele>130</ele>
        <time>2023-11-12T11:44:09Z</time>
      </trkpt>
      <trkpt lat="43.66595" lon="1.39107">
        <ele>130</ele>
        <time>2023-11-12T11:44:10Z</time>
      </trkpt>
      <trkpt lat="43.66594" lon="1.39111">
        <ele>129</ele>
        <time>2023-11-12T11:44:11Z</time>
      </trkpt>
      <trkpt lat="43.66593" lon="1.39115">
        <ele>129</ele>
        <time>2023-11-12T11:44:12Z</time>
      </trkpt>
      <trkpt lat="43.66593" lon="1.39117">
        <ele>130</ele>
        <time>2023-11-12T11:44:13Z</time>
      </trkpt>
      <trkpt lat="43.66593" lon="1.39118">
        <ele>130</ele>
        <time>2023-11-12T11:44:14Z</time>
      </trkpt>
      <trkpt lat="43.66593" lon="1.3912">
        <ele>130</ele>
        <time>2023-11-12T11:44:15Z</time>
      </trkpt>
      <trkpt lat="43.66592" lon="1.39122">
        <ele>130</ele>
        <time>2023-11-12T11:44:16Z</time>
      </trkpt>
      <trkpt lat="43.66591" lon="1.39133">
        <ele>130</ele>
        <time>2023-11-12T11:44:17Z</time>
      </trkpt>
      <trkpt lat="43.66591" lon="1.39136">
        <ele>130</ele>
        <time>2023-11-12T11:44:18Z</time>
      </trkpt>
      <trkpt lat="43.66591" lon="1.39139">
        <ele>130</ele>
        <time>2023-11-12T11:44:19Z</time>
      </trkpt>
      <trkpt lat="43.66591" lon="1.39142">
        <ele>130</ele>
        <time>2023-11-12T11:44:20Z</time>
      </trkpt>
      <trkpt lat="43.66591" lon="1.39145">
        <ele>130</ele>
        <time>2023-11-12T11:44:21Z</time>
      </trkpt>
      <trkpt lat="43.6659" lon="1.39147">
        <ele>130</ele>
        <time>2023-11-12T11:44:22Z</time>
      </trkpt>
      <trkpt lat="43.6659" lon="1.39149">
        <ele>130</ele>
        <time>2023-11-12T11:44:23Z</time>
      </trkpt>
      <trkpt lat="43.6659" lon="1.39151">
        <ele>130</ele>
        <time>2023-11-12T11:44:24Z</time>
      </trkpt>
      <trkpt lat="43.6659" lon="1.39152">
        <ele>130</ele>
        <time>2023-11-12T11:44:25Z</time>
      </trkpt>
      <trkpt lat="43.66589" lon="1.39161">
        <ele>130</ele>
        <time>2023-11-12T11:44:26Z</time>
      </trkpt>
      <trkpt lat="43.66589" lon="1.39163">
        <ele>130</ele>
        <time>2023-11-12T11:44:27Z</time>
      </trkpt>
      <trkpt lat="43.66589" lon="1.39165">
        <ele>130</ele>
        <time>2023-11-12T11:44:28Z</time>
      </trkpt>
      <trkpt lat="43.66589" lon="1.39167">
        <ele>130</ele>
        <time>2023-11-12T11:44:29Z</time>
      </trkpt>
      <trkpt lat="43.66589" lon="1.39178">
        <ele>130</ele>
        <time>2023-11-12T11:44:30Z</time>
      </trkpt>
      <trkpt lat="43.66589" lon="1.39181">
        <ele>130</ele>
        <time>2023-11-12T11:44:31Z</time>
      </trkpt>
      <trkpt lat="43.66589" lon="1.39185">
        <ele>130</ele>
        <time>2023-11-12T11:44:32Z</time>
      </trkpt>
      <trkpt lat="43.66588" lon="1.39188">
        <ele>130</ele>
        <time>2023-11-12T11:44:33Z</time>
      </trkpt>
      <trkpt lat="43.66588" lon="1.39191">
        <ele>130</ele>
        <time>2023-11-12T11:44:34Z</time>
      </trkpt>
      <trkpt lat="43.66588" lon="1.39194">
        <ele>130</ele>
        <time>2023-11-12T11:44:35Z</time>
      </trkpt>
      <trkpt lat="43.66588" lon="1.39197">
        <ele>130</ele>
        <time>2023-11-12T11:44:36Z</time>
      </trkpt>
      <trkpt lat="43.66587" lon="1.39201">
        <ele>130</ele>
        <time>2023-11-12T11:44:37Z</time>
      </trkpt>
      <trkpt lat="43.66587" lon="1.39202">
        <ele>130</ele>
        <time>2023-11-12T11:44:38Z</time>
      </trkpt>
      <trkpt lat="43.66587" lon="1.39204">
        <ele>130</ele>
        <time>2023-11-12T11:44:39Z</time>
      </trkpt>
      <trkpt lat="43.66587" lon="1.39205">
        <ele>130</ele>
        <time>2023-11-12T11:44:40Z</time>
      </trkpt>
      <trkpt lat="43.66587" lon="1.39207">
        <ele>130</ele>
        <time>2023-11-12T11:44:41Z</time>
      </trkpt>
      <trkpt lat="43.66586" lon="1.39208">
        <ele>130</ele>
        <time>2023-11-12T11:44:42Z</time>
      </trkpt>
      <trkpt lat="43.66585" lon="1.39219">
        <ele>130</ele>
        <time>2023-11-12T11:44:43Z</time>
      </trkpt>
      <trkpt lat="43.66585" lon="1.39222">
        <ele>130</ele>
        <time>2023-11-12T11:44:44Z</time>
      </trkpt>
      <trkpt lat="43.66585" lon="1.39226">
        <ele>130</ele>
        <time>2023-11-12T11:44:45Z</time>
      </trkpt>
      <trkpt lat="43.66585" lon="1.39229">
        <ele>130</ele>
        <time>2023-11-12T11:44:46Z</time>
      </trkpt>
      <trkpt lat="43.66584" lon="1.39232">
        <ele>130</ele>
        <time>2023-11-12T11:44:47Z</time>
      </trkpt>
      <trkpt lat="43.66584" lon="1.39235">
        <ele>130</ele>
        <time>2023-11-12T11:44:48Z</time>
      </trkpt>
      <trkpt lat="43.66583" lon="1.39238">
        <ele>130</ele>
        <time>2023-11-12T11:44:49Z</time>
      </trkpt>
      <trkpt lat="43.66583" lon="1.39241">
        <ele>130</ele>
        <time>2023-11-12T11:44:50Z</time>
      </trkpt>
      <trkpt lat="43.66583" lon="1.39244">
        <ele>130</ele>
        <time>2023-11-12T11:44:51Z</time>
      </trkpt>
      <trkpt lat="43.66583" lon="1.39246">
        <ele>130</ele>
        <time>2023-11-12T11:44:52Z</time>
      </trkpt>
      <trkpt lat="43.66582" lon="1.39249">
        <ele>130</ele>
        <time>2023-11-12T11:44:53Z</time>
      </trkpt>
      <trkpt lat="43.66582" lon="1.39251">
        <ele>130</ele>
        <time>2023-11-12T11:44:54Z</time>
      </trkpt>
      <trkpt lat="43.66581" lon="1.39263">
        <ele>130</ele>
        <time>2023-11-12T11:44:55Z</time>
      </trkpt>
      <trkpt lat="43.6658" lon="1.39267">
        <ele>130</ele>
        <time>2023-11-12T11:44:56Z</time>
      </trkpt>
      <trkpt lat="43.66578" lon="1.39271">
        <ele>130</ele>
        <time>2023-11-12T11:44:57Z</time>
      </trkpt>
      <trkpt lat="43.66575" lon="1.39272">
        <ele>130</ele>
        <time>2023-11-12T11:44:58Z</time>
      </trkpt>
      <trkpt lat="43.66571" lon="1.39273">
        <ele>130</ele>
        <time>2023-11-12T11:44:59Z</time>
      </trkpt>
      <trkpt lat="43.66568" lon="1.39274">
        <ele>130</ele>
        <time>2023-11-12T11:45:00Z</time>
      </trkpt>
      <trkpt lat="43.66565" lon="1.39274">
        <ele>130</ele>
        <time>2023-11-12T11:45:01Z</time>
      </trkpt>
      <trkpt lat="43.66561" lon="1.39275">
        <ele>130</ele>
        <time>2023-11-12T11:45:02Z</time>
      </trkpt>
      <trkpt lat="43.66559" lon="1.39275">
        <ele>130</ele>
        <time>2023-11-12T11:45:03Z</time>
      </trkpt>
      <trkpt lat="43.66556" lon="1.39276">
        <ele>130</ele>
        <time>2023-11-12T11:45:04Z</time>
      </trkpt>
      <trkpt lat="43.66553" lon="1.39277">
        <ele>130</ele>
        <time>2023-11-12T11:45:05Z</time>
      </trkpt>
      <trkpt lat="43.6655" lon="1.39278">
        <ele>130</ele>
        <time>2023-11-12T11:45:06Z</time>
      </trkpt>
      <trkpt lat="43.66548" lon="1.39279">
        <ele>130</ele>
        <time>2023-11-12T11:45:07Z</time>
      </trkpt>
      <trkpt lat="43.66546" lon="1.39281">
        <ele>130</ele>
        <time>2023-11-12T11:45:08Z</time>
      </trkpt>
      <trkpt lat="43.66543" lon="1.39282">
        <ele>130</ele>
        <time>2023-11-12T11:45:09Z</time>
      </trkpt>
      <trkpt lat="43.66541" lon="1.39283">
        <ele>130</ele>
        <time>2023-11-12T11:45:10Z</time>
      </trkpt>
      <trkpt lat="43.66538" lon="1.39282">
        <ele>130</ele>
        <time>2023-11-12T11:45:11Z</time>
      </trkpt>
      <trkpt lat="43.66535" lon="1.39281">
        <ele>130</ele>
        <time>2023-11-12T11:45:12Z</time>
      </trkpt>
      <trkpt lat="43.66532" lon="1.3928">
        <ele>130</ele>
        <time>2023-11-12T11:45:13Z</time>
      </trkpt>
      <trkpt lat="43.6653" lon="1.39278">
        <ele>130</ele>
        <time>2023-11-12T11:45:14Z</time>
      </trkpt>
      <trkpt lat="43.66528" lon="1.39277">
        <ele>130</ele>
        <time>2023-11-12T11:45:15Z</time>
      </trkpt>
      <trkpt lat="43.66526" lon="1.39276">
        <ele>130</ele>
        <time>2023-11-12T11:45:16Z</time>
      </trkpt>
      <trkpt lat="43.66521" lon="1.39275">
        <ele>130</ele>
        <time>2023-11-12T11:45:17Z</time>
      </trkpt>
      <trkpt lat="43.66521" lon="1.39275">
        <ele>130</ele>
        <time>2023-11-12T11:45:18Z</time>
      </trkpt>
      <trkpt lat="43.66519" lon="1.39275">
        <ele>130</ele>
        <time>2023-11-12T11:45:19Z</time>
      </trkpt>
      <trkpt lat="43.66516" lon="1.39276">
        <ele>130</ele>
        <time>2023-11-12T11:45:20Z</time>
      </trkpt>
      <trkpt lat="43.66513" lon="1.3928">
        <ele>130</ele>
        <time>2023-11-12T11:45:21Z</time>
      </trkpt>
      <trkpt lat="43.66513" lon="1.3928">
        <ele>130</ele>
        <time>2023-11-12T11:45:22Z</time>
      </trkpt>
      <trkpt lat="43.66511" lon="1.39282">
        <ele>130</ele>
        <time>2023-11-12T11:45:23Z</time>
      </trkpt>
      <trkpt lat="43.6651" lon="1.39285">
        <ele>130</ele>
        <time>2023-11-12T11:45:24Z</time>
      </trkpt>
      <trkpt lat="43.6651" lon="1.39288">
        <ele>129</ele>
        <time>2023-11-12T11:45:25Z</time>
      </trkpt>
      <trkpt lat="43.6651" lon="1.39288">
        <ele>129</ele>
        <time>2023-11-12T11:45:26Z</time>
      </trkpt>
      <trkpt lat="43.66509" lon="1.39293">
        <ele>129</ele>
        <time>2023-11-12T11:45:27Z</time>
      </trkpt>
      <trkpt lat="43.66507" lon="1.39297">
        <ele>129</ele>
        <time>2023-11-12T11:45:28Z</time>
      </trkpt>
      <trkpt lat="43.66507" lon="1.39298">
        <ele>129</ele>
        <time>2023-11-12T11:45:29Z</time>
      </trkpt>
      <trkpt lat="43.66506" lon="1.39301">
        <ele>129</ele>
        <time>2023-11-12T11:45:30Z</time>
      </trkpt>
      <trkpt lat="43.66505" lon="1.39304">
        <ele>129</ele>
        <time>2023-11-12T11:45:31Z</time>
      </trkpt>
      <trkpt lat="43.66504" lon="1.39307">
        <ele>129</ele>
        <time>2023-11-12T11:45:32Z</time>
      </trkpt>
      <trkpt lat="43.66502" lon="1.3931">
        <ele>129</ele>
        <time>2023-11-12T11:45:33Z</time>
      </trkpt>
      <trkpt lat="43.665" lon="1.39313">
        <ele>129</ele>
        <time>2023-11-12T11:45:34Z</time>
      </trkpt>
      <trkpt lat="43.66496" lon="1.39316">
        <ele>129</ele>
        <time>2023-11-12T11:45:35Z</time>
      </trkpt>
      <trkpt lat="43.66493" lon="1.3932">
        <ele>129</ele>
        <time>2023-11-12T11:45:36Z</time>
      </trkpt>
      <trkpt lat="43.66493" lon="1.3932">
        <ele>129</ele>
        <time>2023-11-12T11:45:37Z</time>
      </trkpt>
      <trkpt lat="43.6649" lon="1.39321">
        <ele>129</ele>
        <time>2023-11-12T11:45:38Z</time>
      </trkpt>
      <trkpt lat="43.66488" lon="1.39323">
        <ele>130</ele>
        <time>2023-11-12T11:45:39Z</time>
      </trkpt>
      <trkpt lat="43.66485" lon="1.39325">
        <ele>130</ele>
        <time>2023-11-12T11:45:40Z</time>
      </trkpt>
      <trkpt lat="43.66483" lon="1.39326">
        <ele>130</ele>
        <time>2023-11-12T11:45:41Z</time>
      </trkpt>
      <trkpt lat="43.6648" lon="1.39327">
        <ele>130</ele>
        <time>2023-11-12T11:45:42Z</time>
      </trkpt>
      <trkpt lat="43.66478" lon="1.39329">
        <ele>130</ele>
        <time>2023-11-12T11:45:43Z</time>
      </trkpt>
      <trkpt lat="43.66475" lon="1.39329">
        <ele>130</ele>
        <time>2023-11-12T11:45:44Z</time>
      </trkpt>
      <trkpt lat="43.66473" lon="1.3933">
        <ele>131</ele>
        <time>2023-11-12T11:45:45Z</time>
      </trkpt>
      <trkpt lat="43.6647" lon="1.3933">
        <ele>131</ele>
        <time>2023-11-12T11:45:46Z</time>
      </trkpt>
      <trkpt lat="43.66468" lon="1.3933">
        <ele>131</ele>
        <time>2023-11-12T11:45:47Z</time>
      </trkpt>
      <trkpt lat="43.66466" lon="1.39331">
        <ele>131</ele>
        <time>2023-11-12T11:45:48Z</time>
      </trkpt>
      <trkpt lat="43.66463" lon="1.39331">
        <ele>131</ele>
        <time>2023-11-12T11:45:49Z</time>
      </trkpt>
      <trkpt lat="43.6646" lon="1.39331">
        <ele>131</ele>
        <time>2023-11-12T11:45:50Z</time>
      </trkpt>
      <trkpt lat="43.66457" lon="1.39331">
        <ele>131</ele>
        <time>2023-11-12T11:45:51Z</time>
      </trkpt>
      <trkpt lat="43.66455" lon="1.39331">
        <ele>131</ele>
        <time>2023-11-12T11:45:52Z</time>
      </trkpt>
      <trkpt lat="43.66451" lon="1.3933">
        <ele>131</ele>
        <time>2023-11-12T11:45:53Z</time>
      </trkpt>
      <trkpt lat="43.66448" lon="1.3933">
        <ele>130</ele>
        <time>2023-11-12T11:45:54Z</time>
      </trkpt>
      <trkpt lat="43.66443" lon="1.3933">
        <ele>130</ele>
        <time>2023-11-12T11:45:55Z</time>
      </trkpt>
      <trkpt lat="43.66443" lon="1.3933">
        <ele>131</ele>
        <time>2023-11-12T11:45:56Z</time>
      </trkpt>
      <trkpt lat="43.6644" lon="1.3933">
        <ele>131</ele>
        <time>2023-11-12T11:45:57Z</time>
      </trkpt>
      <trkpt lat="43.66438" lon="1.39331">
        <ele>131</ele>
        <time>2023-11-12T11:45:58Z</time>
      </trkpt>
      <trkpt lat="43.66435" lon="1.39332">
        <ele>131</ele>
        <time>2023-11-12T11:45:59Z</time>
      </trkpt>
      <trkpt lat="43.66432" lon="1.39332">
        <ele>130</ele>
        <time>2023-11-12T11:46:00Z</time>
      </trkpt>
      <trkpt lat="43.6643" lon="1.39331">
        <ele>130</ele>
        <time>2023-11-12T11:46:01Z</time>
      </trkpt>
      <trkpt lat="43.66427" lon="1.39331">
        <ele>130</ele>
        <time>2023-11-12T11:46:02Z</time>
      </trkpt>
      <trkpt lat="43.66424" lon="1.3933">
        <ele>130</ele>
        <time>2023-11-12T11:46:03Z</time>
      </trkpt>
      <trkpt lat="43.66421" lon="1.39329">
        <ele>130</ele>
        <time>2023-11-12T11:46:04Z</time>
      </trkpt>
      <trkpt lat="43.66419" lon="1.39328">
        <ele>130</ele>
        <time>2023-11-12T11:46:05Z</time>
      </trkpt>
      <trkpt lat="43.66416" lon="1.39327">
        <ele>130</ele>
        <time>2023-11-12T11:46:06Z</time>
      </trkpt>
      <trkpt lat="43.66413" lon="1.39325">
        <ele>130</ele>
        <time>2023-11-12T11:46:07Z</time>
      </trkpt>
      <trkpt lat="43.66411" lon="1.39324">
        <ele>130</ele>
        <time>2023-11-12T11:46:08Z</time>
      </trkpt>
      <trkpt lat="43.66408" lon="1.39323">
        <ele>130</ele>
        <time>2023-11-12T11:46:09Z</time>
      </trkpt>
      <trkpt lat="43.66406" lon="1.39321">
        <ele>130</ele>
        <time>2023-11-12T11:46:10Z</time>
      </trkpt>
      <trkpt lat="43.66404" lon="1.3932">
        <ele>130</ele>
        <time>2023-11-12T11:46:11Z</time>
      </trkpt>
      <trkpt lat="43.66402" lon="1.39318">
        <ele>130</ele>
        <time>2023-11-12T11:46:12Z</time>
      </trkpt>
      <trkpt lat="43.66399" lon="1.39316">
        <ele>130</ele>
        <time>2023-11-12T11:46:13Z</time>
      </trkpt>
      <trkpt lat="43.66395" lon="1.39312">
        <ele>130</ele>
        <time>2023-11-12T11:46:14Z</time>
      </trkpt>
      <trkpt lat="43.66395" lon="1.39312">
        <ele>130</ele>
        <time>2023-11-12T11:46:15Z</time>
      </trkpt>
      <trkpt lat="43.66393" lon="1.3931">
        <ele>130</ele>
        <time>2023-11-12T11:46:16Z</time>
      </trkpt>
      <trkpt lat="43.66391" lon="1.39308">
        <ele>130</ele>
        <time>2023-11-12T11:46:17Z</time>
      </trkpt>
      <trkpt lat="43.66388" lon="1.39306">
        <ele>130</ele>
        <time>2023-11-12T11:46:18Z</time>
      </trkpt>
      <trkpt lat="43.66386" lon="1.39304">
        <ele>130</ele>
        <time>2023-11-12T11:46:19Z</time>
      </trkpt>
      <trkpt lat="43.66384" lon="1.39303">
        <ele>130</ele>
        <time>2023-11-12T11:46:20Z</time>
      </trkpt>
      <trkpt lat="43.66381" lon="1.39301">
        <ele>130</ele>
        <time>2023-11-12T11:46:21Z</time>
      </trkpt>
      <trkpt lat="43.66379" lon="1.39299">
        <ele>130</ele>
        <time>2023-11-12T11:46:22Z</time>
      </trkpt>
      <trkpt lat="43.66377" lon="1.39297">
        <ele>130</ele>
        <time>2023-11-12T11:46:23Z</time>
      </trkpt>
      <trkpt lat="43.66375" lon="1.39295">
        <ele>130</ele>
        <time>2023-11-12T11:46:24Z</time>
      </trkpt>
      <trkpt lat="43.66373" lon="1.39293">
        <ele>130</ele>
        <time>2023-11-12T11:46:25Z</time>
      </trkpt>
      <trkpt lat="43.66371" lon="1.39291">
        <ele>130</ele>
        <time>2023-11-12T11:46:26Z</time>
      </trkpt>
      <trkpt lat="43.66368" lon="1.3929">
        <ele>130</ele>
        <time>2023-11-12T11:46:27Z</time>
      </trkpt>
      <trkpt lat="43.66366" lon="1.39289">
        <ele>130</ele>
        <time>2023-11-12T11:46:28Z</time>
      </trkpt>
      <trkpt lat="43.66364" lon="1.39287">
        <ele>130</ele>
        <time>2023-11-12T11:46:29Z</time>
      </trkpt>
      <trkpt lat="43.66361" lon="1.39286">
        <ele>130</ele>
        <time>2023-11-12T11:46:30Z</time>
      </trkpt>
      <trkpt lat="43.66359" lon="1.39285">
        <ele>130</ele>
        <time>2023-11-12T11:46:31Z</time>
      </trkpt>
      <trkpt lat="43.66357" lon="1.39285">
        <ele>130</ele>
        <time>2023-11-12T11:46:32Z</time>
      </trkpt>
      <trkpt lat="43.66353" lon="1.39286">
        <ele>130</ele>
        <time>2023-11-12T11:46:33Z</time>
      </trkpt>
      <trkpt lat="43.66353" lon="1.39286">
        <ele>130</ele>
        <time>2023-11-12T11:46:34Z</time>
      </trkpt>
      <trkpt lat="43.66351" lon="1.39287">
        <ele>130</ele>
        <time>2023-11-12T11:46:35Z</time>
      </trkpt>
      <trkpt lat="43.66348" lon="1.39289">
        <ele>130</ele>
        <time>2023-11-12T11:46:36Z</time>
      </trkpt>
      <trkpt lat="43.66346" lon="1.3929">
        <ele>130</ele>
        <time>2023-11-12T11:46:37Z</time>
      </trkpt>
      <trkpt lat="43.66344" lon="1.39292">
        <ele>130</ele>
        <time>2023-11-12T11:46:38Z</time>
      </trkpt>
      <trkpt lat="43.66342" lon="1.39294">
        <ele>130</ele>
        <time>2023-11-12T11:46:39Z</time>
      </trkpt>
      <trkpt lat="43.66341" lon="1.39295">
        <ele>130</ele>
        <time>2023-11-12T11:46:40Z</time>
      </trkpt>
      <trkpt lat="43.6634" lon="1.39295">
        <ele>130</ele>
        <time>2023-11-12T11:46:41Z</time>
      </trkpt>
      <trkpt lat="43.66339" lon="1.39296">
        <ele>130</ele>
        <time>2023-11-12T11:46:42Z</time>
      </trkpt>
      <trkpt lat="43.66337" lon="1.39297">
        <ele>130</ele>
        <time>2023-11-12T11:46:43Z</time>
      </trkpt>
      <trkpt lat="43.6633" lon="1.393">
        <ele>130</ele>
        <time>2023-11-12T11:46:44Z</time>
      </trkpt>
      <trkpt lat="43.66327" lon="1.393">
        <ele>130</ele>
        <time>2023-11-12T11:46:45Z</time>
      </trkpt>
      <trkpt lat="43.66324" lon="1.393">
        <ele>130</ele>
        <time>2023-11-12T11:46:46Z</time>
      </trkpt>
      <trkpt lat="43.66322" lon="1.393">
        <ele>130</ele>
        <time>2023-11-12T11:46:47Z</time>
      </trkpt>
      <trkpt lat="43.6632" lon="1.39299">
        <ele>130</ele>
        <time>2023-11-12T11:46:48Z</time>
      </trkpt>
      <trkpt lat="43.66319" lon="1.39298">
        <ele>131</ele>
        <time>2023-11-12T11:46:49Z</time>
      </trkpt>
      <trkpt lat="43.66317" lon="1.39298">
        <ele>131</ele>
        <time>2023-11-12T11:46:50Z</time>
      </trkpt>
      <trkpt lat="43.66316" lon="1.39297">
        <ele>131</ele>
        <time>2023-11-12T11:46:51Z</time>
      </trkpt>
      <trkpt lat="43.66308" lon="1.39292">
        <ele>131</ele>
        <time>2023-11-12T11:46:52Z</time>
      </trkpt>
      <trkpt lat="43.66305" lon="1.39289">
        <ele>131</ele>
        <time>2023-11-12T11:46:53Z</time>
      </trkpt>
      <trkpt lat="43.66303" lon="1.39287">
        <ele>131</ele>
        <time>2023-11-12T11:46:54Z</time>
      </trkpt>
      <trkpt lat="43.66301" lon="1.39285">
        <ele>131</ele>
        <time>2023-11-12T11:46:55Z</time>
      </trkpt>
      <trkpt lat="43.66299" lon="1.39282">
        <ele>131</ele>
        <time>2023-11-12T11:46:56Z</time>
      </trkpt>
      <trkpt lat="43.66297" lon="1.3928">
        <ele>131</ele>
        <time>2023-11-12T11:46:57Z</time>
      </trkpt>
      <trkpt lat="43.66295" lon="1.39277">
        <ele>131</ele>
        <time>2023-11-12T11:46:58Z</time>
      </trkpt>
      <trkpt lat="43.66293" lon="1.39274">
        <ele>131</ele>
        <time>2023-11-12T11:46:59Z</time>
      </trkpt>
      <trkpt lat="43.66292" lon="1.39271">
        <ele>131</ele>
        <time>2023-11-12T11:47:00Z</time>
      </trkpt>
      <trkpt lat="43.6629" lon="1.39268">
        <ele>131</ele>
        <time>2023-11-12T11:47:01Z</time>
      </trkpt>
      <trkpt lat="43.66289" lon="1.39266">
        <ele>131</ele>
        <time>2023-11-12T11:47:02Z</time>
      </trkpt>
      <trkpt lat="43.66288" lon="1.39263">
        <ele>131</ele>
        <time>2023-11-12T11:47:03Z</time>
      </trkpt>
      <trkpt lat="43.66287" lon="1.3926">
        <ele>131</ele>
        <time>2023-11-12T11:47:04Z</time>
      </trkpt>
      <trkpt lat="43.66286" lon="1.39256">
        <ele>131</ele>
        <time>2023-11-12T11:47:05Z</time>
      </trkpt>
      <trkpt lat="43.66285" lon="1.39253">
        <ele>131</ele>
        <time>2023-11-12T11:47:06Z</time>
      </trkpt>
      <trkpt lat="43.66284" lon="1.3925">
        <ele>131</ele>
        <time>2023-11-12T11:47:07Z</time>
      </trkpt>
      <trkpt lat="43.66283" lon="1.39247">
        <ele>130</ele>
        <time>2023-11-12T11:47:08Z</time>
      </trkpt>
      <trkpt lat="43.66282" lon="1.39243">
        <ele>130</ele>
        <time>2023-11-12T11:47:09Z</time>
      </trkpt>
      <trkpt lat="43.66281" lon="1.39239">
        <ele>130</ele>
        <time>2023-11-12T11:47:10Z</time>
      </trkpt>
      <trkpt lat="43.6628" lon="1.39233">
        <ele>130</ele>
        <time>2023-11-12T11:47:11Z</time>
      </trkpt>
      <trkpt lat="43.6628" lon="1.39233">
        <ele>130</ele>
        <time>2023-11-12T11:47:12Z</time>
      </trkpt>
      <trkpt lat="43.66279" lon="1.3923">
        <ele>130</ele>
        <time>2023-11-12T11:47:13Z</time>
      </trkpt>
      <trkpt lat="43.66278" lon="1.39227">
        <ele>130</ele>
        <time>2023-11-12T11:47:14Z</time>
      </trkpt>
      <trkpt lat="43.66278" lon="1.39223">
        <ele>130</ele>
        <time>2023-11-12T11:47:15Z</time>
      </trkpt>
      <trkpt lat="43.66277" lon="1.3922">
        <ele>130</ele>
        <time>2023-11-12T11:47:16Z</time>
      </trkpt>
      <trkpt lat="43.66276" lon="1.39217">
        <ele>130</ele>
        <time>2023-11-12T11:47:17Z</time>
      </trkpt>
      <trkpt lat="43.66276" lon="1.39214">
        <ele>130</ele>
        <time>2023-11-12T11:47:18Z</time>
      </trkpt>
      <trkpt lat="43.66275" lon="1.39209">
        <ele>130</ele>
        <time>2023-11-12T11:47:19Z</time>
      </trkpt>
      <trkpt lat="43.66275" lon="1.39206">
        <ele>130</ele>
        <time>2023-11-12T11:47:20Z</time>
      </trkpt>
      <trkpt lat="43.66275" lon="1.39202">
        <ele>130</ele>
        <time>2023-11-12T11:47:21Z</time>
      </trkpt>
      <trkpt lat="43.66275" lon="1.39199">
        <ele>130</ele>
        <time>2023-11-12T11:47:22Z</time>
      </trkpt>
      <trkpt lat="43.66274" lon="1.39195">
        <ele>130</ele>
        <time>2023-11-12T11:47:23Z</time>
      </trkpt>
      <trkpt lat="43.66274" lon="1.39192">
        <ele>130</ele>
        <time>2023-11-12T11:47:24Z</time>
      </trkpt>
      <trkpt lat="43.66272" lon="1.39189">
        <ele>131</ele>
        <time>2023-11-12T11:47:25Z</time>
      </trkpt>
      <trkpt lat="43.66271" lon="1.39187">
        <ele>131</ele>
        <time>2023-11-12T11:47:26Z</time>
      </trkpt>
      <trkpt lat="43.66269" lon="1.39184">
        <ele>130</ele>
        <time>2023-11-12T11:47:27Z</time>
      </trkpt>
      <trkpt lat="43.66266" lon="1.39182">
        <ele>130</ele>
        <time>2023-11-12T11:47:28Z</time>
      </trkpt>
      <trkpt lat="43.66264" lon="1.3918">
        <ele>130</ele>
        <time>2023-11-12T11:47:29Z</time>
      </trkpt>
      <trkpt lat="43.6626" lon="1.39176">
        <ele>131</ele>
        <time>2023-11-12T11:47:30Z</time>
      </trkpt>
      <trkpt lat="43.6626" lon="1.39176">
        <ele>131</ele>
        <time>2023-11-12T11:47:31Z</time>
      </trkpt>
      <trkpt lat="43.6626" lon="1.39176">
        <ele>131</ele>
        <time>2023-11-12T11:47:32Z</time>
      </trkpt>
      <trkpt lat="43.66256" lon="1.39174">
        <ele>131</ele>
        <time>2023-11-12T11:47:33Z</time>
      </trkpt>
      <trkpt lat="43.66254" lon="1.39173">
        <ele>131</ele>
        <time>2023-11-12T11:47:34Z</time>
      </trkpt>
      <trkpt lat="43.66252" lon="1.39174">
        <ele>131</ele>
        <time>2023-11-12T11:47:35Z</time>
      </trkpt>
      <trkpt lat="43.66249" lon="1.39174">
        <ele>131</ele>
        <time>2023-11-12T11:47:36Z</time>
      </trkpt>
      <trkpt lat="43.66248" lon="1.39175">
        <ele>131</ele>
        <time>2023-11-12T11:47:37Z</time>
      </trkpt>
      <trkpt lat="43.66246" lon="1.39175">
        <ele>131</ele>
        <time>2023-11-12T11:47:38Z</time>
      </trkpt>
      <trkpt lat="43.66244" lon="1.39175">
        <ele>130</ele>
        <time>2023-11-12T11:47:39Z</time>
      </trkpt>
      <trkpt lat="43.66241" lon="1.39175">
        <ele>130</ele>
        <time>2023-11-12T11:47:40Z</time>
      </trkpt>
      <trkpt lat="43.6624" lon="1.39173">
        <ele>131</ele>
        <time>2023-11-12T11:47:41Z</time>
      </trkpt>
      <trkpt lat="43.66237" lon="1.39172">
        <ele>131</ele>
        <time>2023-11-12T11:47:42Z</time>
      </trkpt>
      <trkpt lat="43.66235" lon="1.3917">
        <ele>131</ele>
        <time>2023-11-12T11:47:43Z</time>
      </trkpt>
      <trkpt lat="43.66233" lon="1.39169">
        <ele>131</ele>
        <time>2023-11-12T11:47:44Z</time>
      </trkpt>
      <trkpt lat="43.6623" lon="1.39168">
        <ele>130</ele>
        <time>2023-11-12T11:47:45Z</time>
      </trkpt>
      <trkpt lat="43.66228" lon="1.39167">
        <ele>131</ele>
        <time>2023-11-12T11:47:46Z</time>
      </trkpt>
      <trkpt lat="43.66225" lon="1.39167">
        <ele>131</ele>
        <time>2023-11-12T11:47:47Z</time>
      </trkpt>
      <trkpt lat="43.66223" lon="1.39165">
        <ele>131</ele>
        <time>2023-11-12T11:47:48Z</time>
      </trkpt>
      <trkpt lat="43.66219" lon="1.3916">
        <ele>131</ele>
        <time>2023-11-12T11:47:49Z</time>
      </trkpt>
      <trkpt lat="43.66219" lon="1.3916">
        <ele>131</ele>
        <time>2023-11-12T11:47:50Z</time>
      </trkpt>
      <trkpt lat="43.66218" lon="1.39157">
        <ele>131</ele>
        <time>2023-11-12T11:47:51Z</time>
      </trkpt>
      <trkpt lat="43.66216" lon="1.39154">
        <ele>131</ele>
        <time>2023-11-12T11:47:52Z</time>
      </trkpt>
      <trkpt lat="43.66215" lon="1.3915">
        <ele>131</ele>
        <time>2023-11-12T11:47:53Z</time>
      </trkpt>
      <trkpt lat="43.66214" lon="1.39147">
        <ele>131</ele>
        <time>2023-11-12T11:47:54Z</time>
      </trkpt>
      <trkpt lat="43.66212" lon="1.39145">
        <ele>131</ele>
        <time>2023-11-12T11:47:55Z</time>
      </trkpt>
      <trkpt lat="43.6621" lon="1.39144">
        <ele>131</ele>
        <time>2023-11-12T11:47:56Z</time>
      </trkpt>
      <trkpt lat="43.66207" lon="1.39145">
        <ele>131</ele>
        <time>2023-11-12T11:47:57Z</time>
      </trkpt>
      <trkpt lat="43.66205" lon="1.39146">
        <ele>130</ele>
        <time>2023-11-12T11:47:58Z</time>
      </trkpt>
      <trkpt lat="43.66203" lon="1.39149">
        <ele>130</ele>
        <time>2023-11-12T11:47:59Z</time>
      </trkpt>
      <trkpt lat="43.66201" lon="1.39151">
        <ele>130</ele>
        <time>2023-11-12T11:48:00Z</time>
      </trkpt>
      <trkpt lat="43.66199" lon="1.39153">
        <ele>130</ele>
        <time>2023-11-12T11:48:01Z</time>
      </trkpt>
      <trkpt lat="43.66198" lon="1.39155">
        <ele>130</ele>
        <time>2023-11-12T11:48:02Z</time>
      </trkpt>
      <trkpt lat="43.66198" lon="1.39156">
        <ele>130</ele>
        <time>2023-11-12T11:48:03Z</time>
      </trkpt>
      <trkpt lat="43.66197" lon="1.39157">
        <ele>130</ele>
        <time>2023-11-12T11:48:04Z</time>
      </trkpt>
      <trkpt lat="43.66196" lon="1.39159">
        <ele>130</ele>
        <time>2023-11-12T11:48:05Z</time>
      </trkpt>
      <trkpt lat="43.6619" lon="1.39166">
        <ele>130</ele>
        <time>2023-11-12T11:48:06Z</time>
      </trkpt>
      <trkpt lat="43.66189" lon="1.39169">
        <ele>131</ele>
        <time>2023-11-12T11:48:07Z</time>
      </trkpt>
      <trkpt lat="43.66187" lon="1.39171">
        <ele>131</ele>
        <time>2023-11-12T11:48:08Z</time>
      </trkpt>
      <trkpt lat="43.66185" lon="1.39173">
        <ele>131</ele>
        <time>2023-11-12T11:48:09Z</time>
      </trkpt>
      <trkpt lat="43.66183" lon="1.39175">
        <ele>131</ele>
        <time>2023-11-12T11:48:10Z</time>
      </trkpt>
      <trkpt lat="43.66181" lon="1.39177">
        <ele>131</ele>
        <time>2023-11-12T11:48:11Z</time>
      </trkpt>
      <trkpt lat="43.66179" lon="1.39179">
        <ele>130</ele>
        <time>2023-11-12T11:48:12Z</time>
      </trkpt>
      <trkpt lat="43.66177" lon="1.3918">
        <ele>131</ele>
        <time>2023-11-12T11:48:13Z</time>
      </trkpt>
      <trkpt lat="43.66175" lon="1.39182">
        <ele>131</ele>
        <time>2023-11-12T11:48:14Z</time>
      </trkpt>
      <trkpt lat="43.66172" lon="1.39183">
        <ele>131</ele>
        <time>2023-11-12T11:48:15Z</time>
      </trkpt>
      <trkpt lat="43.66169" lon="1.39185">
        <ele>131</ele>
        <time>2023-11-12T11:48:16Z</time>
      </trkpt>
      <trkpt lat="43.66167" lon="1.39187">
        <ele>131</ele>
        <time>2023-11-12T11:48:17Z</time>
      </trkpt>
      <trkpt lat="43.66164" lon="1.39187">
        <ele>131</ele>
        <time>2023-11-12T11:48:18Z</time>
      </trkpt>
      <trkpt lat="43.66161" lon="1.39189">
        <ele>131</ele>
        <time>2023-11-12T11:48:19Z</time>
      </trkpt>
      <trkpt lat="43.66159" lon="1.39191">
        <ele>131</ele>
        <time>2023-11-12T11:48:20Z</time>
      </trkpt>
      <trkpt lat="43.66157" lon="1.39193">
        <ele>131</ele>
        <time>2023-11-12T11:48:21Z</time>
      </trkpt>
      <trkpt lat="43.66155" lon="1.39195">
        <ele>131</ele>
        <time>2023-11-12T11:48:22Z</time>
      </trkpt>
      <trkpt lat="43.66152" lon="1.39196">
        <ele>131</ele>
        <time>2023-11-12T11:48:23Z</time>
      </trkpt>
      <trkpt lat="43.6615" lon="1.39197">
        <ele>131</ele>
        <time>2023-11-12T11:48:24Z</time>
      </trkpt>
      <trkpt lat="43.66148" lon="1.39198">
        <ele>131</ele>
        <time>2023-11-12T11:48:25Z</time>
      </trkpt>
      <trkpt lat="43.66145" lon="1.39198">
        <ele>131</ele>
        <time>2023-11-12T11:48:26Z</time>
      </trkpt>
      <trkpt lat="43.66144" lon="1.39199">
        <ele>130</ele>
        <time>2023-11-12T11:48:27Z</time>
      </trkpt>
      <trkpt lat="43.66143" lon="1.39199">
        <ele>130</ele>
        <time>2023-11-12T11:48:28Z</time>
      </trkpt>
      <trkpt lat="43.66141" lon="1.392">
        <ele>130</ele>
        <time>2023-11-12T11:48:29Z</time>
      </trkpt>
      <trkpt lat="43.6614" lon="1.392">
        <ele>130</ele>
        <time>2023-11-12T11:48:30Z</time>
      </trkpt>
      <trkpt lat="43.66132" lon="1.39202">
        <ele>130</ele>
        <time>2023-11-12T11:48:31Z</time>
      </trkpt>
      <trkpt lat="43.6613" lon="1.39203">
        <ele>131</ele>
        <time>2023-11-12T11:48:32Z</time>
      </trkpt>
      <trkpt lat="43.66128" lon="1.39204">
        <ele>131</ele>
        <time>2023-11-12T11:48:33Z</time>
      </trkpt>
      <trkpt lat="43.66125" lon="1.39205">
        <ele>131</ele>
        <time>2023-11-12T11:48:34Z</time>
      </trkpt>
      <trkpt lat="43.66123" lon="1.39205">
        <ele>131</ele>
        <time>2023-11-12T11:48:35Z</time>
      </trkpt>
      <trkpt lat="43.6612" lon="1.39205">
        <ele>131</ele>
        <time>2023-11-12T11:48:36Z</time>
      </trkpt>
      <trkpt lat="43.66118" lon="1.39205">
        <ele>131</ele>
        <time>2023-11-12T11:48:37Z</time>
      </trkpt>
      <trkpt lat="43.66115" lon="1.39205">
        <ele>131</ele>
        <time>2023-11-12T11:48:38Z</time>
      </trkpt>
      <trkpt lat="43.66112" lon="1.39205">
        <ele>131</ele>
        <time>2023-11-12T11:48:39Z</time>
      </trkpt>
      <trkpt lat="43.6611" lon="1.39206">
        <ele>131</ele>
        <time>2023-11-12T11:48:40Z</time>
      </trkpt>
      <trkpt lat="43.66107" lon="1.39206">
        <ele>131</ele>
        <time>2023-11-12T11:48:41Z</time>
      </trkpt>
      <trkpt lat="43.66105" lon="1.39207">
        <ele>131</ele>
        <time>2023-11-12T11:48:42Z</time>
      </trkpt>
      <trkpt lat="43.66103" lon="1.39209">
        <ele>131</ele>
        <time>2023-11-12T11:48:43Z</time>
      </trkpt>
      <trkpt lat="43.661" lon="1.3921">
        <ele>131</ele>
        <time>2023-11-12T11:48:44Z</time>
      </trkpt>
      <trkpt lat="43.66098" lon="1.39213">
        <ele>131</ele>
        <time>2023-11-12T11:48:45Z</time>
      </trkpt>
      <trkpt lat="43.66096" lon="1.39215">
        <ele>132</ele>
        <time>2023-11-12T11:48:46Z</time>
      </trkpt>
      <trkpt lat="43.66094" lon="1.39217">
        <ele>132</ele>
        <time>2023-11-12T11:48:47Z</time>
      </trkpt>
      <trkpt lat="43.66092" lon="1.39218">
        <ele>132</ele>
        <time>2023-11-12T11:48:48Z</time>
      </trkpt>
      <trkpt lat="43.66091" lon="1.3922">
        <ele>131</ele>
        <time>2023-11-12T11:48:49Z</time>
      </trkpt>
      <trkpt lat="43.66089" lon="1.39221">
        <ele>131</ele>
        <time>2023-11-12T11:48:50Z</time>
      </trkpt>
      <trkpt lat="43.66088" lon="1.39222">
        <ele>131</ele>
        <time>2023-11-12T11:48:51Z</time>
      </trkpt>
      <trkpt lat="43.66087" lon="1.39223">
        <ele>131</ele>
        <time>2023-11-12T11:48:52Z</time>
      </trkpt>
      <trkpt lat="43.66086" lon="1.39224">
        <ele>131</ele>
        <time>2023-11-12T11:48:53Z</time>
      </trkpt>
      <trkpt lat="43.66079" lon="1.39227">
        <ele>131</ele>
        <time>2023-11-12T11:48:54Z</time>
      </trkpt>
      <trkpt lat="43.66078" lon="1.39227">
        <ele>131</ele>
        <time>2023-11-12T11:48:55Z</time>
      </trkpt>
      <trkpt lat="43.66076" lon="1.39227">
        <ele>131</ele>
        <time>2023-11-12T11:48:56Z</time>
      </trkpt>
      <trkpt lat="43.66075" lon="1.39228">
        <ele>131</ele>
        <time>2023-11-12T11:48:57Z</time>
      </trkpt>
      <trkpt lat="43.66065" lon="1.39229">
        <ele>131</ele>
        <time>2023-11-12T11:48:58Z</time>
      </trkpt>
      <trkpt lat="43.66062" lon="1.39229">
        <ele>131</ele>
        <time>2023-11-12T11:48:59Z</time>
      </trkpt>
      <trkpt lat="43.66059" lon="1.39229">
        <ele>132</ele>
        <time>2023-11-12T11:49:00Z</time>
      </trkpt>
      <trkpt lat="43.66056" lon="1.39229">
        <ele>132</ele>
        <time>2023-11-12T11:49:01Z</time>
      </trkpt>
      <trkpt lat="43.66054" lon="1.39229">
        <ele>132</ele>
        <time>2023-11-12T11:49:02Z</time>
      </trkpt>
      <trkpt lat="43.66051" lon="1.39229">
        <ele>132</ele>
        <time>2023-11-12T11:49:03Z</time>
      </trkpt>
      <trkpt lat="43.66049" lon="1.3923">
        <ele>132</ele>
        <time>2023-11-12T11:49:04Z</time>
      </trkpt>
      <trkpt lat="43.66047" lon="1.3923">
        <ele>132</ele>
        <time>2023-11-12T11:49:05Z</time>
      </trkpt>
      <trkpt lat="43.66044" lon="1.3923">
        <ele>132</ele>
        <time>2023-11-12T11:49:06Z</time>
      </trkpt>
      <trkpt lat="43.66042" lon="1.3923">
        <ele>132</ele>
        <time>2023-11-12T11:49:07Z</time>
      </trkpt>
      <trkpt lat="43.66039" lon="1.39231">
        <ele>132</ele>
        <time>2023-11-12T11:49:08Z</time>
      </trkpt>
      <trkpt lat="43.66038" lon="1.39231">
        <ele>131</ele>
        <time>2023-11-12T11:49:09Z</time>
      </trkpt>
      <trkpt lat="43.66036" lon="1.39232">
        <ele>131</ele>
        <time>2023-11-12T11:49:10Z</time>
      </trkpt>
      <trkpt lat="43.66034" lon="1.39232">
        <ele>131</ele>
        <time>2023-11-12T11:49:11Z</time>
      </trkpt>
      <trkpt lat="43.66032" lon="1.39232">
        <ele>131</ele>
        <time>2023-11-12T11:49:12Z</time>
      </trkpt>
      <trkpt lat="43.66025" lon="1.39234">
        <ele>131</ele>
        <time>2023-11-12T11:49:13Z</time>
      </trkpt>
      <trkpt lat="43.66023" lon="1.39235">
        <ele>131</ele>
        <time>2023-11-12T11:49:14Z</time>
      </trkpt>
      <trkpt lat="43.66021" lon="1.39236">
        <ele>131</ele>
        <time>2023-11-12T11:49:15Z</time>
      </trkpt>
      <trkpt lat="43.66019" lon="1.39237">
        <ele>131</ele>
        <time>2023-11-12T11:49:16Z</time>
      </trkpt>
      <trkpt lat="43.66016" lon="1.39238">
        <ele>131</ele>
        <time>2023-11-12T11:49:17Z</time>
      </trkpt>
      <trkpt lat="43.66015" lon="1.39239">
        <ele>132</ele>
        <time>2023-11-12T11:49:18Z</time>
      </trkpt>
      <trkpt lat="43.66013" lon="1.39239">
        <ele>132</ele>
        <time>2023-11-12T11:49:19Z</time>
      </trkpt>
      <trkpt lat="43.66011" lon="1.3924">
        <ele>132</ele>
        <time>2023-11-12T11:49:20Z</time>
      </trkpt>
      <trkpt lat="43.6601" lon="1.3924">
        <ele>132</ele>
        <time>2023-11-12T11:49:21Z</time>
      </trkpt>
      <trkpt lat="43.66003" lon="1.39242">
        <ele>132</ele>
        <time>2023-11-12T11:49:22Z</time>
      </trkpt>
      <trkpt lat="43.66001" lon="1.39244">
        <ele>132</ele>
        <time>2023-11-12T11:49:23Z</time>
      </trkpt>
      <trkpt lat="43.65999" lon="1.39245">
        <ele>132</ele>
        <time>2023-11-12T11:49:24Z</time>
      </trkpt>
      <trkpt lat="43.65997" lon="1.39247">
        <ele>132</ele>
        <time>2023-11-12T11:49:25Z</time>
      </trkpt>
      <trkpt lat="43.65995" lon="1.39248">
        <ele>132</ele>
        <time>2023-11-12T11:49:26Z</time>
      </trkpt>
      <trkpt lat="43.65992" lon="1.39249">
        <ele>132</ele>
        <time>2023-11-12T11:49:27Z</time>
      </trkpt>
      <trkpt lat="43.65989" lon="1.39249">
        <ele>132</ele>
        <time>2023-11-12T11:49:28Z</time>
      </trkpt>
      <trkpt lat="43.65986" lon="1.3925">
        <ele>131</ele>
        <time>2023-11-12T11:49:29Z</time>
      </trkpt>
      <trkpt lat="43.65984" lon="1.3925">
        <ele>131</ele>
        <time>2023-11-12T11:49:30Z</time>
      </trkpt>
      <trkpt lat="43.65982" lon="1.3925">
        <ele>131</ele>
        <time>2023-11-12T11:49:31Z</time>
      </trkpt>
      <trkpt lat="43.65979" lon="1.3925">
        <ele>132</ele>
        <time>2023-11-12T11:49:32Z</time>
      </trkpt>
      <trkpt lat="43.65977" lon="1.39252">
        <ele>132</ele>
        <time>2023-11-12T11:49:33Z</time>
      </trkpt>
      <trkpt lat="43.65974" lon="1.39254">
        <ele>132</ele>
        <time>2023-11-12T11:49:34Z</time>
      </trkpt>
      <trkpt lat="43.65973" lon="1.39254">
        <ele>132</ele>
        <time>2023-11-12T11:49:35Z</time>
      </trkpt>
      <trkpt lat="43.65972" lon="1.39254">
        <ele>132</ele>
        <time>2023-11-12T11:49:36Z</time>
      </trkpt>
      <trkpt lat="43.6597" lon="1.39254">
        <ele>132</ele>
        <time>2023-11-12T11:49:37Z</time>
      </trkpt>
      <trkpt lat="43.65969" lon="1.39254">
        <ele>132</ele>
        <time>2023-11-12T11:49:38Z</time>
      </trkpt>
      <trkpt lat="43.65962" lon="1.39255">
        <ele>132</ele>
        <time>2023-11-12T11:49:39Z</time>
      </trkpt>
      <trkpt lat="43.65961" lon="1.39255">
        <ele>132</ele>
        <time>2023-11-12T11:49:40Z</time>
      </trkpt>
      <trkpt lat="43.6596" lon="1.39255">
        <ele>132</ele>
        <time>2023-11-12T11:49:41Z</time>
      </trkpt>
      <trkpt lat="43.65958" lon="1.39255">
        <ele>132</ele>
        <time>2023-11-12T11:49:42Z</time>
      </trkpt>
      <trkpt lat="43.65952" lon="1.39256">
        <ele>132</ele>
        <time>2023-11-12T11:49:43Z</time>
      </trkpt>
      <trkpt lat="43.6595" lon="1.39256">
        <ele>132</ele>
        <time>2023-11-12T11:49:44Z</time>
      </trkpt>
      <trkpt lat="43.65949" lon="1.39256">
        <ele>132</ele>
        <time>2023-11-12T11:49:45Z</time>
      </trkpt>
      <trkpt lat="43.65948" lon="1.39256">
        <ele>132</ele>
        <time>2023-11-12T11:49:46Z</time>
      </trkpt>
      <trkpt lat="43.65941" lon="1.39257">
        <ele>132</ele>
        <time>2023-11-12T11:49:47Z</time>
      </trkpt>
      <trkpt lat="43.6594" lon="1.39257">
        <ele>132</ele>
        <time>2023-11-12T11:49:48Z</time>
      </trkpt>
      <trkpt lat="43.65939" lon="1.39258">
        <ele>132</ele>
        <time>2023-11-12T11:49:49Z</time>
      </trkpt>
      <trkpt lat="43.65938" lon="1.39258">
        <ele>131</ele>
        <time>2023-11-12T11:49:50Z</time>
      </trkpt>
      <trkpt lat="43.65937" lon="1.39258">
        <ele>131</ele>
        <time>2023-11-12T11:49:51Z</time>
      </trkpt>
      <trkpt lat="43.6593" lon="1.39259">
        <ele>132</ele>
        <time>2023-11-12T11:49:52Z</time>
      </trkpt>
      <trkpt lat="43.65928" lon="1.39259">
        <ele>132</ele>
        <time>2023-11-12T11:49:53Z</time>
      </trkpt>
      <trkpt lat="43.65927" lon="1.39259">
        <ele>132</ele>
        <time>2023-11-12T11:49:54Z</time>
      </trkpt>
      <trkpt lat="43.65926" lon="1.3926">
        <ele>132</ele>
        <time>2023-11-12T11:49:55Z</time>
      </trkpt>
      <trkpt lat="43.65917" lon="1.3926">
        <ele>132</ele>
        <time>2023-11-12T11:49:56Z</time>
      </trkpt>
      <trkpt lat="43.65914" lon="1.3926">
        <ele>131</ele>
        <time>2023-11-12T11:49:57Z</time>
      </trkpt>
      <trkpt lat="43.65912" lon="1.3926">
        <ele>132</ele>
        <time>2023-11-12T11:49:58Z</time>
      </trkpt>
      <trkpt lat="43.65909" lon="1.39259">
        <ele>132</ele>
        <time>2023-11-12T11:49:59Z</time>
      </trkpt>
      <trkpt lat="43.65907" lon="1.39258">
        <ele>131</ele>
        <time>2023-11-12T11:50:00Z</time>
      </trkpt>
      <trkpt lat="43.65904" lon="1.39257">
        <ele>131</ele>
        <time>2023-11-12T11:50:01Z</time>
      </trkpt>
      <trkpt lat="43.65901" lon="1.39257">
        <ele>131</ele>
        <time>2023-11-12T11:50:02Z</time>
      </trkpt>
      <trkpt lat="43.65899" lon="1.39257">
        <ele>131</ele>
        <time>2023-11-12T11:50:03Z</time>
      </trkpt>
      <trkpt lat="43.65897" lon="1.39257">
        <ele>131</ele>
        <time>2023-11-12T11:50:04Z</time>
      </trkpt>
      <trkpt lat="43.65895" lon="1.39256">
        <ele>132</ele>
        <time>2023-11-12T11:50:05Z</time>
      </trkpt>
      <trkpt lat="43.65893" lon="1.39256">
        <ele>132</ele>
        <time>2023-11-12T11:50:06Z</time>
      </trkpt>
      <trkpt lat="43.6589" lon="1.39256">
        <ele>132</ele>
        <time>2023-11-12T11:50:07Z</time>
      </trkpt>
      <trkpt lat="43.65888" lon="1.39256">
        <ele>133</ele>
        <time>2023-11-12T11:50:08Z</time>
      </trkpt>
      <trkpt lat="43.65885" lon="1.39255">
        <ele>133</ele>
        <time>2023-11-12T11:50:09Z</time>
      </trkpt>
      <trkpt lat="43.65882" lon="1.39255">
        <ele>133</ele>
        <time>2023-11-12T11:50:10Z</time>
      </trkpt>
      <trkpt lat="43.6588" lon="1.39256">
        <ele>132</ele>
        <time>2023-11-12T11:50:11Z</time>
      </trkpt>
      <trkpt lat="43.65878" lon="1.39256">
        <ele>132</ele>
        <time>2023-11-12T11:50:12Z</time>
      </trkpt>
      <trkpt lat="43.65875" lon="1.39256">
        <ele>132</ele>
        <time>2023-11-12T11:50:13Z</time>
      </trkpt>
      <trkpt lat="43.65872" lon="1.39256">
        <ele>132</ele>
        <time>2023-11-12T11:50:14Z</time>
      </trkpt>
      <trkpt lat="43.6587" lon="1.39256">
        <ele>132</ele>
        <time>2023-11-12T11:50:15Z</time>
      </trkpt>
      <trkpt lat="43.65867" lon="1.39255">
        <ele>132</ele>
        <time>2023-11-12T11:50:16Z</time>
      </trkpt>
      <trkpt lat="43.65865" lon="1.39253">
        <ele>132</ele>
        <time>2023-11-12T11:50:17Z</time>
      </trkpt>
      <trkpt lat="43.65862" lon="1.39253">
        <ele>132</ele>
        <time>2023-11-12T11:50:18Z</time>
      </trkpt>
      <trkpt lat="43.6586" lon="1.39252">
        <ele>132</ele>
        <time>2023-11-12T11:50:19Z</time>
      </trkpt>
      <trkpt lat="43.65858" lon="1.3925">
        <ele>132</ele>
        <time>2023-11-12T11:50:20Z</time>
      </trkpt>
      <trkpt lat="43.65853" lon="1.39247">
        <ele>132</ele>
        <time>2023-11-12T11:50:21Z</time>
      </trkpt>
      <trkpt lat="43.65853" lon="1.39247">
        <ele>132</ele>
        <time>2023-11-12T11:50:22Z</time>
      </trkpt>
      <trkpt lat="43.65851" lon="1.39245">
        <ele>132</ele>
        <time>2023-11-12T11:50:23Z</time>
      </trkpt>
      <trkpt lat="43.65849" lon="1.39243">
        <ele>132</ele>
        <time>2023-11-12T11:50:24Z</time>
      </trkpt>
      <trkpt lat="43.65846" lon="1.39242">
        <ele>132</ele>
        <time>2023-11-12T11:50:25Z</time>
      </trkpt>
      <trkpt lat="43.65844" lon="1.3924">
        <ele>132</ele>
        <time>2023-11-12T11:50:26Z</time>
      </trkpt>
      <trkpt lat="43.65842" lon="1.3924">
        <ele>132</ele>
        <time>2023-11-12T11:50:27Z</time>
      </trkpt>
      <trkpt lat="43.6584" lon="1.39239">
        <ele>132</ele>
        <time>2023-11-12T11:50:28Z</time>
      </trkpt>
      <trkpt lat="43.65837" lon="1.39238">
        <ele>132</ele>
        <time>2023-11-12T11:50:29Z</time>
      </trkpt>
      <trkpt lat="43.65835" lon="1.39237">
        <ele>132</ele>
        <time>2023-11-12T11:50:30Z</time>
      </trkpt>
      <trkpt lat="43.65833" lon="1.39237">
        <ele>132</ele>
        <time>2023-11-12T11:50:31Z</time>
      </trkpt>
      <trkpt lat="43.65831" lon="1.39236">
        <ele>132</ele>
        <time>2023-11-12T11:50:32Z</time>
      </trkpt>
      <trkpt lat="43.65829" lon="1.39235">
        <ele>132</ele>
        <time>2023-11-12T11:50:33Z</time>
      </trkpt>
      <trkpt lat="43.65826" lon="1.39235">
        <ele>132</ele>
        <time>2023-11-12T11:50:34Z</time>
      </trkpt>
      <trkpt lat="43.65824" lon="1.39234">
        <ele>132</ele>
        <time>2023-11-12T11:50:35Z</time>
      </trkpt>
      <trkpt lat="43.65821" lon="1.39232">
        <ele>132</ele>
        <time>2023-11-12T11:50:36Z</time>
      </trkpt>
      <trkpt lat="43.65818" lon="1.39231">
        <ele>132</ele>
        <time>2023-11-12T11:50:37Z</time>
      </trkpt>
      <trkpt lat="43.65816" lon="1.39229">
        <ele>132</ele>
        <time>2023-11-12T11:50:38Z</time>
      </trkpt>
      <trkpt lat="43.65813" lon="1.39228">
        <ele>132</ele>
        <time>2023-11-12T11:50:39Z</time>
      </trkpt>
      <trkpt lat="43.65809" lon="1.39226">
        <ele>132</ele>
        <time>2023-11-12T11:50:40Z</time>
      </trkpt>
      <trkpt lat="43.65809" lon="1.39226">
        <ele>132</ele>
        <time>2023-11-12T11:50:41Z</time>
      </trkpt>
      <trkpt lat="43.65806" lon="1.39225">
        <ele>132</ele>
        <time>2023-11-12T11:50:42Z</time>
      </trkpt>
      <trkpt lat="43.65804" lon="1.39225">
        <ele>133</ele>
        <time>2023-11-12T11:50:43Z</time>
      </trkpt>
      <trkpt lat="43.65801" lon="1.39225">
        <ele>133</ele>
        <time>2023-11-12T11:50:44Z</time>
      </trkpt>
      <trkpt lat="43.65795" lon="1.39225">
        <ele>132</ele>
        <time>2023-11-12T11:50:45Z</time>
      </trkpt>
      <trkpt lat="43.65795" lon="1.39225">
        <ele>132</ele>
        <time>2023-11-12T11:50:46Z</time>
      </trkpt>
      <trkpt lat="43.65792" lon="1.39225">
        <ele>132</ele>
        <time>2023-11-12T11:50:47Z</time>
      </trkpt>
      <trkpt lat="43.6579" lon="1.39225">
        <ele>132</ele>
        <time>2023-11-12T11:50:48Z</time>
      </trkpt>
      <trkpt lat="43.65788" lon="1.39223">
        <ele>133</ele>
        <time>2023-11-12T11:50:49Z</time>
      </trkpt>
      <trkpt lat="43.65786" lon="1.39221">
        <ele>133</ele>
        <time>2023-11-12T11:50:50Z</time>
      </trkpt>
      <trkpt lat="43.65784" lon="1.39219">
        <ele>133</ele>
        <time>2023-11-12T11:50:51Z</time>
      </trkpt>
      <trkpt lat="43.65781" lon="1.39216">
        <ele>134</ele>
        <time>2023-11-12T11:50:52Z</time>
      </trkpt>
      <trkpt lat="43.65779" lon="1.39214">
        <ele>134</ele>
        <time>2023-11-12T11:50:53Z</time>
      </trkpt>
      <trkpt lat="43.65777" lon="1.39211">
        <ele>134</ele>
        <time>2023-11-12T11:50:54Z</time>
      </trkpt>
      <trkpt lat="43.65775" lon="1.39209">
        <ele>134</ele>
        <time>2023-11-12T11:50:55Z</time>
      </trkpt>
      <trkpt lat="43.65772" lon="1.39206">
        <ele>134</ele>
        <time>2023-11-12T11:50:56Z</time>
      </trkpt>
      <trkpt lat="43.6577" lon="1.39204">
        <ele>134</ele>
        <time>2023-11-12T11:50:57Z</time>
      </trkpt>
      <trkpt lat="43.65768" lon="1.39202">
        <ele>134</ele>
        <time>2023-11-12T11:50:58Z</time>
      </trkpt>
      <trkpt lat="43.65764" lon="1.39197">
        <ele>134</ele>
        <time>2023-11-12T11:50:59Z</time>
      </trkpt>
      <trkpt lat="43.65764" lon="1.39197">
        <ele>133</ele>
        <time>2023-11-12T11:51:00Z</time>
      </trkpt>
      <trkpt lat="43.65761" lon="1.39195">
        <ele>133</ele>
        <time>2023-11-12T11:51:01Z</time>
      </trkpt>
      <trkpt lat="43.65759" lon="1.39193">
        <ele>133</ele>
        <time>2023-11-12T11:51:02Z</time>
      </trkpt>
      <trkpt lat="43.65756" lon="1.39191">
        <ele>134</ele>
        <time>2023-11-12T11:51:03Z</time>
      </trkpt>
      <trkpt lat="43.65754" lon="1.39189">
        <ele>134</ele>
        <time>2023-11-12T11:51:04Z</time>
      </trkpt>
      <trkpt lat="43.65751" lon="1.39187">
        <ele>134</ele>
        <time>2023-11-12T11:51:05Z</time>
      </trkpt>
      <trkpt lat="43.65747" lon="1.39185">
        <ele>134</ele>
        <time>2023-11-12T11:51:06Z</time>
      </trkpt>
      <trkpt lat="43.65746" lon="1.39184">
        <ele>134</ele>
        <time>2023-11-12T11:51:07Z</time>
      </trkpt>
      <trkpt lat="43.65743" lon="1.39182">
        <ele>134</ele>
        <time>2023-11-12T11:51:08Z</time>
      </trkpt>
      <trkpt lat="43.65741" lon="1.39181">
        <ele>134</ele>
        <time>2023-11-12T11:51:09Z</time>
      </trkpt>
      <trkpt lat="43.65739" lon="1.39179">
        <ele>134</ele>
        <time>2023-11-12T11:51:10Z</time>
      </trkpt>
      <trkpt lat="43.65736" lon="1.39178">
        <ele>134</ele>
        <time>2023-11-12T11:51:11Z</time>
      </trkpt>
      <trkpt lat="43.65734" lon="1.39176">
        <ele>133</ele>
        <time>2023-11-12T11:51:12Z</time>
      </trkpt>
      <trkpt lat="43.65731" lon="1.39175">
        <ele>133</ele>
        <time>2023-11-12T11:51:13Z</time>
      </trkpt>
      <trkpt lat="43.65729" lon="1.39174">
        <ele>133</ele>
        <time>2023-11-12T11:51:14Z</time>
      </trkpt>
      <trkpt lat="43.65727" lon="1.39172">
        <ele>133</ele>
        <time>2023-11-12T11:51:15Z</time>
      </trkpt>
      <trkpt lat="43.65723" lon="1.3917">
        <ele>133</ele>
        <time>2023-11-12T11:51:16Z</time>
      </trkpt>
      <trkpt lat="43.65722" lon="1.3917">
        <ele>133</ele>
        <time>2023-11-12T11:51:17Z</time>
      </trkpt>
      <trkpt lat="43.65718" lon="1.39166">
        <ele>133</ele>
        <time>2023-11-12T11:51:18Z</time>
      </trkpt>
      <trkpt lat="43.65718" lon="1.39166">
        <ele>133</ele>
        <time>2023-11-12T11:51:19Z</time>
      </trkpt>
      <trkpt lat="43.65716" lon="1.39165">
        <ele>133</ele>
        <time>2023-11-12T11:51:20Z</time>
      </trkpt>
      <trkpt lat="43.65714" lon="1.39164">
        <ele>133</ele>
        <time>2023-11-12T11:51:21Z</time>
      </trkpt>
      <trkpt lat="43.65712" lon="1.39162">
        <ele>133</ele>
        <time>2023-11-12T11:51:22Z</time>
      </trkpt>
      <trkpt lat="43.6571" lon="1.39162">
        <ele>133</ele>
        <time>2023-11-12T11:51:23Z</time>
      </trkpt>
      <trkpt lat="43.65708" lon="1.3916">
        <ele>133</ele>
        <time>2023-11-12T11:51:24Z</time>
      </trkpt>
      <trkpt lat="43.65706" lon="1.39158">
        <ele>133</ele>
        <time>2023-11-12T11:51:25Z</time>
      </trkpt>
      <trkpt lat="43.65703" lon="1.39156">
        <ele>133</ele>
        <time>2023-11-12T11:51:26Z</time>
      </trkpt>
      <trkpt lat="43.65701" lon="1.39153">
        <ele>133</ele>
        <time>2023-11-12T11:51:27Z</time>
      </trkpt>
      <trkpt lat="43.65699" lon="1.39151">
        <ele>133</ele>
        <time>2023-11-12T11:51:28Z</time>
      </trkpt>
      <trkpt lat="43.65696" lon="1.39148">
        <ele>133</ele>
        <time>2023-11-12T11:51:29Z</time>
      </trkpt>
      <trkpt lat="43.65695" lon="1.39146">
        <ele>133</ele>
        <time>2023-11-12T11:51:30Z</time>
      </trkpt>
      <trkpt lat="43.65693" lon="1.39145">
        <ele>132</ele>
        <time>2023-11-12T11:51:31Z</time>
      </trkpt>
      <trkpt lat="43.6569" lon="1.39143">
        <ele>132</ele>
        <time>2023-11-12T11:51:32Z</time>
      </trkpt>
      <trkpt lat="43.65688" lon="1.39141">
        <ele>132</ele>
        <time>2023-11-12T11:51:33Z</time>
      </trkpt>
      <trkpt lat="43.65686" lon="1.3914">
        <ele>132</ele>
        <time>2023-11-12T11:51:34Z</time>
      </trkpt>
      <trkpt lat="43.65683" lon="1.39139">
        <ele>132</ele>
        <time>2023-11-12T11:51:35Z</time>
      </trkpt>
      <trkpt lat="43.65681" lon="1.39139">
        <ele>132</ele>
        <time>2023-11-12T11:51:36Z</time>
      </trkpt>
      <trkpt lat="43.65676" lon="1.39135">
        <ele>132</ele>
        <time>2023-11-12T11:51:37Z</time>
      </trkpt>
      <trkpt lat="43.65676" lon="1.39135">
        <ele>132</ele>
        <time>2023-11-12T11:51:38Z</time>
      </trkpt>
      <trkpt lat="43.65673" lon="1.39134">
        <ele>132</ele>
        <time>2023-11-12T11:51:39Z</time>
      </trkpt>
      <trkpt lat="43.65671" lon="1.39132">
        <ele>132</ele>
        <time>2023-11-12T11:51:40Z</time>
      </trkpt>
      <trkpt lat="43.65668" lon="1.3913">
        <ele>132</ele>
        <time>2023-11-12T11:51:41Z</time>
      </trkpt>
      <trkpt lat="43.65666" lon="1.39129">
        <ele>133</ele>
        <time>2023-11-12T11:51:42Z</time>
      </trkpt>
      <trkpt lat="43.65663" lon="1.39128">
        <ele>133</ele>
        <time>2023-11-12T11:51:43Z</time>
      </trkpt>
      <trkpt lat="43.65661" lon="1.39126">
        <ele>133</ele>
        <time>2023-11-12T11:51:44Z</time>
      </trkpt>
      <trkpt lat="43.65658" lon="1.39125">
        <ele>133</ele>
        <time>2023-11-12T11:51:45Z</time>
      </trkpt>
      <trkpt lat="43.65656" lon="1.39123">
        <ele>133</ele>
        <time>2023-11-12T11:51:46Z</time>
      </trkpt>
      <trkpt lat="43.65654" lon="1.39121">
        <ele>133</ele>
        <time>2023-11-12T11:51:47Z</time>
      </trkpt>
      <trkpt lat="43.65651" lon="1.39119">
        <ele>133</ele>
        <time>2023-11-12T11:51:48Z</time>
      </trkpt>
      <trkpt lat="43.65649" lon="1.39117">
        <ele>133</ele>
        <time>2023-11-12T11:51:49Z</time>
      </trkpt>
      <trkpt lat="43.65647" lon="1.39115">
        <ele>133</ele>
        <time>2023-11-12T11:51:50Z</time>
      </trkpt>
      <trkpt lat="43.65645" lon="1.39113">
        <ele>133</ele>
        <time>2023-11-12T11:51:51Z</time>
      </trkpt>
      <trkpt lat="43.65643" lon="1.39111">
        <ele>133</ele>
        <time>2023-11-12T11:51:52Z</time>
      </trkpt>
      <trkpt lat="43.65641" lon="1.39109">
        <ele>134</ele>
        <time>2023-11-12T11:51:53Z</time>
      </trkpt>
      <trkpt lat="43.65638" lon="1.39108">
        <ele>134</ele>
        <time>2023-11-12T11:51:54Z</time>
      </trkpt>
      <trkpt lat="43.65636" lon="1.39106">
        <ele>134</ele>
        <time>2023-11-12T11:51:55Z</time>
      </trkpt>
      <trkpt lat="43.65631" lon="1.39102">
        <ele>134</ele>
        <time>2023-11-12T11:51:56Z</time>
      </trkpt>
      <trkpt lat="43.65631" lon="1.39102">
        <ele>134</ele>
        <time>2023-11-12T11:51:57Z</time>
      </trkpt>
      <trkpt lat="43.65629" lon="1.391">
        <ele>134</ele>
        <time>2023-11-12T11:51:58Z</time>
      </trkpt>
      <trkpt lat="43.65626" lon="1.39098">
        <ele>134</ele>
        <time>2023-11-12T11:51:59Z</time>
      </trkpt>
      <trkpt lat="43.65624" lon="1.39096">
        <ele>134</ele>
        <time>2023-11-12T11:52:00Z</time>
      </trkpt>
      <trkpt lat="43.65621" lon="1.39094">
        <ele>134</ele>
        <time>2023-11-12T11:52:01Z</time>
      </trkpt>
      <trkpt lat="43.65619" lon="1.39092">
        <ele>134</ele>
        <time>2023-11-12T11:52:02Z</time>
      </trkpt>
      <trkpt lat="43.65617" lon="1.39091">
        <ele>134</ele>
        <time>2023-11-12T11:52:03Z</time>
      </trkpt>
      <trkpt lat="43.65615" lon="1.39089">
        <ele>134</ele>
        <time>2023-11-12T11:52:04Z</time>
      </trkpt>
      <trkpt lat="43.65612" lon="1.39087">
        <ele>133</ele>
        <time>2023-11-12T11:52:05Z</time>
      </trkpt>
      <trkpt lat="43.6561" lon="1.39086">
        <ele>134</ele>
        <time>2023-11-12T11:52:06Z</time>
      </trkpt>
      <trkpt lat="43.65608" lon="1.39085">
        <ele>134</ele>
        <time>2023-11-12T11:52:07Z</time>
      </trkpt>
      <trkpt lat="43.65606" lon="1.39084">
        <ele>133</ele>
        <time>2023-11-12T11:52:08Z</time>
      </trkpt>
      <trkpt lat="43.65603" lon="1.39082">
        <ele>133</ele>
        <time>2023-11-12T11:52:09Z</time>
      </trkpt>
      <trkpt lat="43.65601" lon="1.39081">
        <ele>134</ele>
        <time>2023-11-12T11:52:10Z</time>
      </trkpt>
      <trkpt lat="43.65599" lon="1.39079">
        <ele>134</ele>
        <time>2023-11-12T11:52:11Z</time>
      </trkpt>
      <trkpt lat="43.65597" lon="1.39078">
        <ele>134</ele>
        <time>2023-11-12T11:52:12Z</time>
      </trkpt>
      <trkpt lat="43.65594" lon="1.39077">
        <ele>133</ele>
        <time>2023-11-12T11:52:13Z</time>
      </trkpt>
      <trkpt lat="43.65592" lon="1.39076">
        <ele>133</ele>
        <time>2023-11-12T11:52:14Z</time>
      </trkpt>
      <trkpt lat="43.65587" lon="1.39074">
        <ele>133</ele>
        <time>2023-11-12T11:52:15Z</time>
      </trkpt>
      <trkpt lat="43.65587" lon="1.39074">
        <ele>133</ele>
        <time>2023-11-12T11:52:16Z</time>
      </trkpt>
      <trkpt lat="43.65585" lon="1.39073">
        <ele>133</ele>
        <time>2023-11-12T11:52:17Z</time>
      </trkpt>
      <trkpt lat="43.65582" lon="1.39071">
        <ele>133</ele>
        <time>2023-11-12T11:52:18Z</time>
      </trkpt>
      <trkpt lat="43.65579" lon="1.39069">
        <ele>133</ele>
        <time>2023-11-12T11:52:19Z</time>
      </trkpt>
      <trkpt lat="43.65577" lon="1.39068">
        <ele>133</ele>
        <time>2023-11-12T11:52:20Z</time>
      </trkpt>
      <trkpt lat="43.65572" lon="1.39063">
        <ele>134</ele>
        <time>2023-11-12T11:52:21Z</time>
      </trkpt>
      <trkpt lat="43.65572" lon="1.39063">
        <ele>134</ele>
        <time>2023-11-12T11:52:22Z</time>
      </trkpt>
      <trkpt lat="43.6557" lon="1.39061">
        <ele>134</ele>
        <time>2023-11-12T11:52:23Z</time>
      </trkpt>
      <trkpt lat="43.65568" lon="1.39059">
        <ele>134</ele>
        <time>2023-11-12T11:52:24Z</time>
      </trkpt>
      <trkpt lat="43.65566" lon="1.39057">
        <ele>134</ele>
        <time>2023-11-12T11:52:25Z</time>
      </trkpt>
      <trkpt lat="43.65563" lon="1.39055">
        <ele>134</ele>
        <time>2023-11-12T11:52:26Z</time>
      </trkpt>
      <trkpt lat="43.65561" lon="1.39054">
        <ele>134</ele>
        <time>2023-11-12T11:52:27Z</time>
      </trkpt>
      <trkpt lat="43.65558" lon="1.39052">
        <ele>134</ele>
        <time>2023-11-12T11:52:28Z</time>
      </trkpt>
      <trkpt lat="43.65556" lon="1.3905">
        <ele>134</ele>
        <time>2023-11-12T11:52:29Z</time>
      </trkpt>
      <trkpt lat="43.65554" lon="1.39049">
        <ele>134</ele>
        <time>2023-11-12T11:52:30Z</time>
      </trkpt>
      <trkpt lat="43.65552" lon="1.39048">
        <ele>134</ele>
        <time>2023-11-12T11:52:31Z</time>
      </trkpt>
      <trkpt lat="43.6555" lon="1.39046">
        <ele>134</ele>
        <time>2023-11-12T11:52:32Z</time>
      </trkpt>
      <trkpt lat="43.65547" lon="1.39044">
        <ele>134</ele>
        <time>2023-11-12T11:52:33Z</time>
      </trkpt>
      <trkpt lat="43.65543" lon="1.39041">
        <ele>134</ele>
        <time>2023-11-12T11:52:34Z</time>
      </trkpt>
      <trkpt lat="43.65543" lon="1.39041">
        <ele>134</ele>
        <time>2023-11-12T11:52:35Z</time>
      </trkpt>
      <trkpt lat="43.65541" lon="1.39039">
        <ele>134</ele>
        <time>2023-11-12T11:52:36Z</time>
      </trkpt>
      <trkpt lat="43.65538" lon="1.39038">
        <ele>134</ele>
        <time>2023-11-12T11:52:37Z</time>
      </trkpt>
      <trkpt lat="43.65536" lon="1.39036">
        <ele>134</ele>
        <time>2023-11-12T11:52:38Z</time>
      </trkpt>
      <trkpt lat="43.65534" lon="1.39034">
        <ele>134</ele>
        <time>2023-11-12T11:52:39Z</time>
      </trkpt>
      <trkpt lat="43.65531" lon="1.39033">
        <ele>134</ele>
        <time>2023-11-12T11:52:40Z</time>
      </trkpt>
      <trkpt lat="43.65529" lon="1.39031">
        <ele>134</ele>
        <time>2023-11-12T11:52:41Z</time>
      </trkpt>
      <trkpt lat="43.65526" lon="1.3903">
        <ele>134</ele>
        <time>2023-11-12T11:52:42Z</time>
      </trkpt>
      <trkpt lat="43.65524" lon="1.39029">
        <ele>134</ele>
        <time>2023-11-12T11:52:43Z</time>
      </trkpt>
      <trkpt lat="43.65522" lon="1.39028">
        <ele>134</ele>
        <time>2023-11-12T11:52:44Z</time>
      </trkpt>
      <trkpt lat="43.65519" lon="1.39026">
        <ele>134</ele>
        <time>2023-11-12T11:52:45Z</time>
      </trkpt>
      <trkpt lat="43.65517" lon="1.39025">
        <ele>134</ele>
        <time>2023-11-12T11:52:46Z</time>
      </trkpt>
      <trkpt lat="43.65514" lon="1.39024">
        <ele>134</ele>
        <time>2023-11-12T11:52:47Z</time>
      </trkpt>
      <trkpt lat="43.65512" lon="1.39023">
        <ele>134</ele>
        <time>2023-11-12T11:52:48Z</time>
      </trkpt>
      <trkpt lat="43.6551" lon="1.39023">
        <ele>134</ele>
        <time>2023-11-12T11:52:49Z</time>
      </trkpt>
      <trkpt lat="43.65507" lon="1.39022">
        <ele>134</ele>
        <time>2023-11-12T11:52:50Z</time>
      </trkpt>
      <trkpt lat="43.65502" lon="1.39021">
        <ele>134</ele>
        <time>2023-11-12T11:52:51Z</time>
      </trkpt>
      <trkpt lat="43.65502" lon="1.39021">
        <ele>134</ele>
        <time>2023-11-12T11:52:52Z</time>
      </trkpt>
      <trkpt lat="43.65497" lon="1.39019">
        <ele>134</ele>
        <time>2023-11-12T11:52:53Z</time>
      </trkpt>
      <trkpt lat="43.65497" lon="1.39019">
        <ele>134</ele>
        <time>2023-11-12T11:52:54Z</time>
      </trkpt>
      <trkpt lat="43.65494" lon="1.39018">
        <ele>134</ele>
        <time>2023-11-12T11:52:55Z</time>
      </trkpt>
      <trkpt lat="43.65492" lon="1.39017">
        <ele>134</ele>
        <time>2023-11-12T11:52:56Z</time>
      </trkpt>
      <trkpt lat="43.65489" lon="1.39015">
        <ele>134</ele>
        <time>2023-11-12T11:52:57Z</time>
      </trkpt>
      <trkpt lat="43.65487" lon="1.39014">
        <ele>134</ele>
        <time>2023-11-12T11:52:58Z</time>
      </trkpt>
      <trkpt lat="43.65485" lon="1.39013">
        <ele>134</ele>
        <time>2023-11-12T11:52:59Z</time>
      </trkpt>
      <trkpt lat="43.65483" lon="1.39012">
        <ele>134</ele>
        <time>2023-11-12T11:53:00Z</time>
      </trkpt>
      <trkpt lat="43.65481" lon="1.3901">
        <ele>134</ele>
        <time>2023-11-12T11:53:01Z</time>
      </trkpt>
      <trkpt lat="43.65481" lon="1.3901">
        <ele>134</ele>
        <time>2023-11-12T11:53:02Z</time>
      </trkpt>
      <trkpt lat="43.65478" lon="1.39007">
        <ele>134</ele>
        <time>2023-11-12T11:53:03Z</time>
      </trkpt>
      <trkpt lat="43.65476" lon="1.39005">
        <ele>134</ele>
        <time>2023-11-12T11:53:04Z</time>
      </trkpt>
      <trkpt lat="43.65473" lon="1.39004">
        <ele>134</ele>
        <time>2023-11-12T11:53:05Z</time>
      </trkpt>
      <trkpt lat="43.65471" lon="1.39003">
        <ele>134</ele>
        <time>2023-11-12T11:53:06Z</time>
      </trkpt>
      <trkpt lat="43.65469" lon="1.39001">
        <ele>134</ele>
        <time>2023-11-12T11:53:07Z</time>
      </trkpt>
      <trkpt lat="43.65467" lon="1.38999">
        <ele>134</ele>
        <time>2023-11-12T11:53:08Z</time>
      </trkpt>
      <trkpt lat="43.65465" lon="1.38997">
        <ele>138</ele>
        <time>2023-11-12T11:53:09Z</time>
      </trkpt>
      <trkpt lat="43.65463" lon="1.38994">
        <ele>138</ele>
        <time>2023-11-12T11:53:10Z</time>
      </trkpt>
      <trkpt lat="43.65462" lon="1.38992">
        <ele>138</ele>
        <time>2023-11-12T11:53:11Z</time>
      </trkpt>
      <trkpt lat="43.65459" lon="1.38987">
        <ele>138</ele>
        <time>2023-11-12T11:53:12Z</time>
      </trkpt>
      <trkpt lat="43.65459" lon="1.38987">
        <ele>138</ele>
        <time>2023-11-12T11:53:13Z</time>
      </trkpt>
      <trkpt lat="43.65458" lon="1.38984">
        <ele>138</ele>
        <time>2023-11-12T11:53:14Z</time>
      </trkpt>
      <trkpt lat="43.65458" lon="1.38981">
        <ele>138</ele>
        <time>2023-11-12T11:53:15Z</time>
      </trkpt>
      <trkpt lat="43.65457" lon="1.38978">
        <ele>138</ele>
        <time>2023-11-12T11:53:16Z</time>
      </trkpt>
      <trkpt lat="43.65456" lon="1.38974">
        <ele>138</ele>
        <time>2023-11-12T11:53:17Z</time>
      </trkpt>
      <trkpt lat="43.65455" lon="1.3897">
        <ele>138</ele>
        <time>2023-11-12T11:53:18Z</time>
      </trkpt>
      <trkpt lat="43.65455" lon="1.38967">
        <ele>138</ele>
        <time>2023-11-12T11:53:19Z</time>
      </trkpt>
      <trkpt lat="43.65454" lon="1.38964">
        <ele>138</ele>
        <time>2023-11-12T11:53:20Z</time>
      </trkpt>
      <trkpt lat="43.65453" lon="1.3896">
        <ele>138</ele>
        <time>2023-11-12T11:53:21Z</time>
      </trkpt>
      <trkpt lat="43.65451" lon="1.38957">
        <ele>139</ele>
        <time>2023-11-12T11:53:22Z</time>
      </trkpt>
      <trkpt lat="43.65451" lon="1.38955">
        <ele>139</ele>
        <time>2023-11-12T11:53:23Z</time>
      </trkpt>
      <trkpt lat="43.65451" lon="1.38955">
        <ele>139</ele>
        <time>2023-11-12T11:53:24Z</time>
      </trkpt>
      <trkpt lat="43.65449" lon="1.3895">
        <ele>139</ele>
        <time>2023-11-12T11:53:25Z</time>
      </trkpt>
      <trkpt lat="43.65448" lon="1.38948">
        <ele>140</ele>
        <time>2023-11-12T11:53:26Z</time>
      </trkpt>
      <trkpt lat="43.65446" lon="1.38945">
        <ele>140</ele>
        <time>2023-11-12T11:53:27Z</time>
      </trkpt>
      <trkpt lat="43.65444" lon="1.38942">
        <ele>141</ele>
        <time>2023-11-12T11:53:28Z</time>
      </trkpt>
      <trkpt lat="43.65443" lon="1.3894">
        <ele>141</ele>
        <time>2023-11-12T11:53:29Z</time>
      </trkpt>
      <trkpt lat="43.65442" lon="1.38937">
        <ele>142</ele>
        <time>2023-11-12T11:53:30Z</time>
      </trkpt>
      <trkpt lat="43.65439" lon="1.38933">
        <ele>142</ele>
        <time>2023-11-12T11:53:31Z</time>
      </trkpt>
      <trkpt lat="43.65439" lon="1.38933">
        <ele>142</ele>
        <time>2023-11-12T11:53:32Z</time>
      </trkpt>
      <trkpt lat="43.65437" lon="1.38931">
        <ele>142</ele>
        <time>2023-11-12T11:53:33Z</time>
      </trkpt>
      <trkpt lat="43.65436" lon="1.38929">
        <ele>144</ele>
        <time>2023-11-12T11:53:34Z</time>
      </trkpt>
      <trkpt lat="43.65434" lon="1.38928">
        <ele>144</ele>
        <time>2023-11-12T11:53:35Z</time>
      </trkpt>
      <trkpt lat="43.65433" lon="1.38925">
        <ele>145</ele>
        <time>2023-11-12T11:53:36Z</time>
      </trkpt>
      <trkpt lat="43.65431" lon="1.38923">
        <ele>145</ele>
        <time>2023-11-12T11:53:37Z</time>
      </trkpt>
      <trkpt lat="43.65429" lon="1.3892">
        <ele>145</ele>
        <time>2023-11-12T11:53:38Z</time>
      </trkpt>
      <trkpt lat="43.65428" lon="1.38918">
        <ele>146</ele>
        <time>2023-11-12T11:53:39Z</time>
      </trkpt>
      <trkpt lat="43.65426" lon="1.38916">
        <ele>146</ele>
        <time>2023-11-12T11:53:40Z</time>
      </trkpt>
      <trkpt lat="43.65424" lon="1.38913">
        <ele>146</ele>
        <time>2023-11-12T11:53:41Z</time>
      </trkpt>
      <trkpt lat="43.65423" lon="1.3891">
        <ele>146</ele>
        <time>2023-11-12T11:53:42Z</time>
      </trkpt>
      <trkpt lat="43.65421" lon="1.38907">
        <ele>146</ele>
        <time>2023-11-12T11:53:43Z</time>
      </trkpt>
      <trkpt lat="43.6542" lon="1.38904">
        <ele>147</ele>
        <time>2023-11-12T11:53:44Z</time>
      </trkpt>
      <trkpt lat="43.65419" lon="1.389">
        <ele>147</ele>
        <time>2023-11-12T11:53:45Z</time>
      </trkpt>
      <trkpt lat="43.65419" lon="1.38897">
        <ele>147</ele>
        <time>2023-11-12T11:53:46Z</time>
      </trkpt>
      <trkpt lat="43.65418" lon="1.38894">
        <ele>146</ele>
        <time>2023-11-12T11:53:47Z</time>
      </trkpt>
      <trkpt lat="43.65418" lon="1.38891">
        <ele>146</ele>
        <time>2023-11-12T11:53:48Z</time>
      </trkpt>
      <trkpt lat="43.65418" lon="1.38889">
        <ele>146</ele>
        <time>2023-11-12T11:53:49Z</time>
      </trkpt>
      <trkpt lat="43.65417" lon="1.38882">
        <ele>146</ele>
        <time>2023-11-12T11:53:50Z</time>
      </trkpt>
      <trkpt lat="43.65417" lon="1.38882">
        <ele>147</ele>
        <time>2023-11-12T11:53:51Z</time>
      </trkpt>
      <trkpt lat="43.65417" lon="1.38879">
        <ele>147</ele>
        <time>2023-11-12T11:53:52Z</time>
      </trkpt>
      <trkpt lat="43.65416" lon="1.38876">
        <ele>147</ele>
        <time>2023-11-12T11:53:53Z</time>
      </trkpt>
      <trkpt lat="43.65416" lon="1.38873">
        <ele>147</ele>
        <time>2023-11-12T11:53:54Z</time>
      </trkpt>
      <trkpt lat="43.65415" lon="1.38871">
        <ele>148</ele>
        <time>2023-11-12T11:53:55Z</time>
      </trkpt>
      <trkpt lat="43.65413" lon="1.38868">
        <ele>149</ele>
        <time>2023-11-12T11:53:56Z</time>
      </trkpt>
      <trkpt lat="43.65412" lon="1.38866">
        <ele>149</ele>
        <time>2023-11-12T11:53:57Z</time>
      </trkpt>
      <trkpt lat="43.65411" lon="1.38865">
        <ele>149</ele>
        <time>2023-11-12T11:53:58Z</time>
      </trkpt>
      <trkpt lat="43.65408" lon="1.38863">
        <ele>149</ele>
        <time>2023-11-12T11:53:59Z</time>
      </trkpt>
      <trkpt lat="43.65406" lon="1.38861">
        <ele>149</ele>
        <time>2023-11-12T11:54:00Z</time>
      </trkpt>
      <trkpt lat="43.65404" lon="1.3886">
        <ele>149</ele>
        <time>2023-11-12T11:54:01Z</time>
      </trkpt>
      <trkpt lat="43.65401" lon="1.38859">
        <ele>150</ele>
        <time>2023-11-12T11:54:02Z</time>
      </trkpt>
      <trkpt lat="43.654" lon="1.38859">
        <ele>150</ele>
        <time>2023-11-12T11:54:03Z</time>
      </trkpt>
      <trkpt lat="43.65397" lon="1.38859">
        <ele>150</ele>
        <time>2023-11-12T11:54:04Z</time>
      </trkpt>
      <trkpt lat="43.65395" lon="1.3886">
        <ele>150</ele>
        <time>2023-11-12T11:54:05Z</time>
      </trkpt>
      <trkpt lat="43.65393" lon="1.3886">
        <ele>150</ele>
        <time>2023-11-12T11:54:06Z</time>
      </trkpt>
      <trkpt lat="43.6539" lon="1.38861">
        <ele>150</ele>
        <time>2023-11-12T11:54:07Z</time>
      </trkpt>
      <trkpt lat="43.65388" lon="1.38861">
        <ele>149</ele>
        <time>2023-11-12T11:54:08Z</time>
      </trkpt>
      <trkpt lat="43.65382" lon="1.3886">
        <ele>149</ele>
        <time>2023-11-12T11:54:09Z</time>
      </trkpt>
      <trkpt lat="43.65382" lon="1.3886">
        <ele>149</ele>
        <time>2023-11-12T11:54:10Z</time>
      </trkpt>
      <trkpt lat="43.6538" lon="1.3886">
        <ele>149</ele>
        <time>2023-11-12T11:54:11Z</time>
      </trkpt>
      <trkpt lat="43.65377" lon="1.3886">
        <ele>149</ele>
        <time>2023-11-12T11:54:12Z</time>
      </trkpt>
      <trkpt lat="43.65375" lon="1.38858">
        <ele>150</ele>
        <time>2023-11-12T11:54:13Z</time>
      </trkpt>
      <trkpt lat="43.65373" lon="1.38857">
        <ele>150</ele>
        <time>2023-11-12T11:54:14Z</time>
      </trkpt>
      <trkpt lat="43.65371" lon="1.38856">
        <ele>150</ele>
        <time>2023-11-12T11:54:15Z</time>
      </trkpt>
      <trkpt lat="43.65369" lon="1.38855">
        <ele>150</ele>
        <time>2023-11-12T11:54:16Z</time>
      </trkpt>
      <trkpt lat="43.65367" lon="1.38853">
        <ele>150</ele>
        <time>2023-11-12T11:54:17Z</time>
      </trkpt>
      <trkpt lat="43.65365" lon="1.38851">
        <ele>150</ele>
        <time>2023-11-12T11:54:18Z</time>
      </trkpt>
      <trkpt lat="43.65363" lon="1.3885">
        <ele>150</ele>
        <time>2023-11-12T11:54:19Z</time>
      </trkpt>
      <trkpt lat="43.65361" lon="1.38849">
        <ele>150</ele>
        <time>2023-11-12T11:54:20Z</time>
      </trkpt>
      <trkpt lat="43.65359" lon="1.38847">
        <ele>150</ele>
        <time>2023-11-12T11:54:21Z</time>
      </trkpt>
      <trkpt lat="43.65358" lon="1.38845">
        <ele>150</ele>
        <time>2023-11-12T11:54:22Z</time>
      </trkpt>
      <trkpt lat="43.65356" lon="1.38842">
        <ele>150</ele>
        <time>2023-11-12T11:54:23Z</time>
      </trkpt>
      <trkpt lat="43.65353" lon="1.38839">
        <ele>151</ele>
        <time>2023-11-12T11:54:24Z</time>
      </trkpt>
      <trkpt lat="43.65352" lon="1.38838">
        <ele>151</ele>
        <time>2023-11-12T11:54:25Z</time>
      </trkpt>
      <trkpt lat="43.65351" lon="1.38836">
        <ele>150</ele>
        <time>2023-11-12T11:54:26Z</time>
      </trkpt>
      <trkpt lat="43.65349" lon="1.38833">
        <ele>151</ele>
        <time>2023-11-12T11:54:27Z</time>
      </trkpt>
      <trkpt lat="43.65347" lon="1.3883">
        <ele>151</ele>
        <time>2023-11-12T11:54:28Z</time>
      </trkpt>
      <trkpt lat="43.65346" lon="1.38827">
        <ele>150</ele>
        <time>2023-11-12T11:54:29Z</time>
      </trkpt>
      <trkpt lat="43.65344" lon="1.38825">
        <ele>150</ele>
        <time>2023-11-12T11:54:30Z</time>
      </trkpt>
      <trkpt lat="43.65342" lon="1.38821">
        <ele>150</ele>
        <time>2023-11-12T11:54:31Z</time>
      </trkpt>
      <trkpt lat="43.65341" lon="1.38818">
        <ele>150</ele>
        <time>2023-11-12T11:54:32Z</time>
      </trkpt>
      <trkpt lat="43.65338" lon="1.38811">
        <ele>150</ele>
        <time>2023-11-12T11:54:33Z</time>
      </trkpt>
      <trkpt lat="43.65338" lon="1.38811">
        <ele>150</ele>
        <time>2023-11-12T11:54:34Z</time>
      </trkpt>
      <trkpt lat="43.65337" lon="1.38808">
        <ele>150</ele>
        <time>2023-11-12T11:54:35Z</time>
      </trkpt>
      <trkpt lat="43.65336" lon="1.38806">
        <ele>151</ele>
        <time>2023-11-12T11:54:36Z</time>
      </trkpt>
      <trkpt lat="43.65335" lon="1.38803">
        <ele>151</ele>
        <time>2023-11-12T11:54:37Z</time>
      </trkpt>
      <trkpt lat="43.65333" lon="1.38799">
        <ele>150</ele>
        <time>2023-11-12T11:54:38Z</time>
      </trkpt>
      <trkpt lat="43.65332" lon="1.38796">
        <ele>150</ele>
        <time>2023-11-12T11:54:39Z</time>
      </trkpt>
      <trkpt lat="43.65331" lon="1.38793">
        <ele>150</ele>
        <time>2023-11-12T11:54:40Z</time>
      </trkpt>
      <trkpt lat="43.6533" lon="1.38789">
        <ele>150</ele>
        <time>2023-11-12T11:54:41Z</time>
      </trkpt>
      <trkpt lat="43.65329" lon="1.38786">
        <ele>150</ele>
        <time>2023-11-12T11:54:42Z</time>
      </trkpt>
      <trkpt lat="43.65328" lon="1.38782">
        <ele>151</ele>
        <time>2023-11-12T11:54:43Z</time>
      </trkpt>
      <trkpt lat="43.65327" lon="1.38779">
        <ele>151</ele>
        <time>2023-11-12T11:54:44Z</time>
      </trkpt>
      <trkpt lat="43.65326" lon="1.38776">
        <ele>151</ele>
        <time>2023-11-12T11:54:45Z</time>
      </trkpt>
      <trkpt lat="43.65326" lon="1.38773">
        <ele>151</ele>
        <time>2023-11-12T11:54:46Z</time>
      </trkpt>
      <trkpt lat="43.65325" lon="1.3877">
        <ele>151</ele>
        <time>2023-11-12T11:54:47Z</time>
      </trkpt>
      <trkpt lat="43.65324" lon="1.38767">
        <ele>151</ele>
        <time>2023-11-12T11:54:48Z</time>
      </trkpt>
      <trkpt lat="43.65323" lon="1.38763">
        <ele>151</ele>
        <time>2023-11-12T11:54:49Z</time>
      </trkpt>
      <trkpt lat="43.65322" lon="1.38759">
        <ele>151</ele>
        <time>2023-11-12T11:54:50Z</time>
      </trkpt>
      <trkpt lat="43.65322" lon="1.38756">
        <ele>151</ele>
        <time>2023-11-12T11:54:51Z</time>
      </trkpt>
      <trkpt lat="43.65321" lon="1.38753">
        <ele>151</ele>
        <time>2023-11-12T11:54:52Z</time>
      </trkpt>
      <trkpt lat="43.6532" lon="1.3875">
        <ele>150</ele>
        <time>2023-11-12T11:54:53Z</time>
      </trkpt>
      <trkpt lat="43.65319" lon="1.38746">
        <ele>150</ele>
        <time>2023-11-12T11:54:54Z</time>
      </trkpt>
      <trkpt lat="43.65318" lon="1.38743">
        <ele>150</ele>
        <time>2023-11-12T11:54:55Z</time>
      </trkpt>
      <trkpt lat="43.65318" lon="1.38739">
        <ele>150</ele>
        <time>2023-11-12T11:54:56Z</time>
      </trkpt>
      <trkpt lat="43.65317" lon="1.38736">
        <ele>150</ele>
        <time>2023-11-12T11:54:57Z</time>
      </trkpt>
      <trkpt lat="43.65316" lon="1.38733">
        <ele>150</ele>
        <time>2023-11-12T11:54:58Z</time>
      </trkpt>
      <trkpt lat="43.65315" lon="1.3873">
        <ele>150</ele>
        <time>2023-11-12T11:54:59Z</time>
      </trkpt>
      <trkpt lat="43.65314" lon="1.38727">
        <ele>150</ele>
        <time>2023-11-12T11:55:00Z</time>
      </trkpt>
      <trkpt lat="43.65312" lon="1.38724">
        <ele>150</ele>
        <time>2023-11-12T11:55:01Z</time>
      </trkpt>
      <trkpt lat="43.65311" lon="1.38721">
        <ele>149</ele>
        <time>2023-11-12T11:55:02Z</time>
      </trkpt>
      <trkpt lat="43.65311" lon="1.38718">
        <ele>149</ele>
        <time>2023-11-12T11:55:03Z</time>
      </trkpt>
      <trkpt lat="43.6531" lon="1.38715">
        <ele>149</ele>
        <time>2023-11-12T11:55:04Z</time>
      </trkpt>
      <trkpt lat="43.65309" lon="1.38712">
        <ele>149</ele>
        <time>2023-11-12T11:55:05Z</time>
      </trkpt>
      <trkpt lat="43.65308" lon="1.38705">
        <ele>149</ele>
        <time>2023-11-12T11:55:06Z</time>
      </trkpt>
      <trkpt lat="43.65308" lon="1.38705">
        <ele>149</ele>
        <time>2023-11-12T11:55:07Z</time>
      </trkpt>
      <trkpt lat="43.65307" lon="1.38702">
        <ele>149</ele>
        <time>2023-11-12T11:55:08Z</time>
      </trkpt>
      <trkpt lat="43.65306" lon="1.38699">
        <ele>149</ele>
        <time>2023-11-12T11:55:09Z</time>
      </trkpt>
      <trkpt lat="43.65305" lon="1.38696">
        <ele>149</ele>
        <time>2023-11-12T11:55:10Z</time>
      </trkpt>
      <trkpt lat="43.65304" lon="1.38693">
        <ele>149</ele>
        <time>2023-11-12T11:55:11Z</time>
      </trkpt>
      <trkpt lat="43.65303" lon="1.3869">
        <ele>149</ele>
        <time>2023-11-12T11:55:12Z</time>
      </trkpt>
      <trkpt lat="43.65302" lon="1.38686">
        <ele>149</ele>
        <time>2023-11-12T11:55:13Z</time>
      </trkpt>
      <trkpt lat="43.65301" lon="1.38683">
        <ele>149</ele>
        <time>2023-11-12T11:55:14Z</time>
      </trkpt>
      <trkpt lat="43.653" lon="1.3868">
        <ele>149</ele>
        <time>2023-11-12T11:55:15Z</time>
      </trkpt>
      <trkpt lat="43.65299" lon="1.38676">
        <ele>149</ele>
        <time>2023-11-12T11:55:16Z</time>
      </trkpt>
      <trkpt lat="43.65298" lon="1.38673">
        <ele>149</ele>
        <time>2023-11-12T11:55:17Z</time>
      </trkpt>
      <trkpt lat="43.65297" lon="1.3867">
        <ele>149</ele>
        <time>2023-11-12T11:55:18Z</time>
      </trkpt>
      <trkpt lat="43.65296" lon="1.38667">
        <ele>150</ele>
        <time>2023-11-12T11:55:19Z</time>
      </trkpt>
      <trkpt lat="43.65296" lon="1.38664">
        <ele>150</ele>
        <time>2023-11-12T11:55:20Z</time>
      </trkpt>
      <trkpt lat="43.65294" lon="1.38661">
        <ele>150</ele>
        <time>2023-11-12T11:55:21Z</time>
      </trkpt>
      <trkpt lat="43.65293" lon="1.38658">
        <ele>150</ele>
        <time>2023-11-12T11:55:22Z</time>
      </trkpt>
      <trkpt lat="43.65291" lon="1.38655">
        <ele>150</ele>
        <time>2023-11-12T11:55:23Z</time>
      </trkpt>
      <trkpt lat="43.6529" lon="1.38652">
        <ele>150</ele>
        <time>2023-11-12T11:55:24Z</time>
      </trkpt>
      <trkpt lat="43.65288" lon="1.38649">
        <ele>150</ele>
        <time>2023-11-12T11:55:25Z</time>
      </trkpt>
      <trkpt lat="43.65287" lon="1.38646">
        <ele>150</ele>
        <time>2023-11-12T11:55:26Z</time>
      </trkpt>
      <trkpt lat="43.65285" lon="1.38643">
        <ele>150</ele>
        <time>2023-11-12T11:55:27Z</time>
      </trkpt>
      <trkpt lat="43.65284" lon="1.38641">
        <ele>150</ele>
        <time>2023-11-12T11:55:28Z</time>
      </trkpt>
      <trkpt lat="43.65282" lon="1.38638">
        <ele>150</ele>
        <time>2023-11-12T11:55:29Z</time>
      </trkpt>
      <trkpt lat="43.6528" lon="1.38636">
        <ele>150</ele>
        <time>2023-11-12T11:55:30Z</time>
      </trkpt>
      <trkpt lat="43.65278" lon="1.38633">
        <ele>150</ele>
        <time>2023-11-12T11:55:31Z</time>
      </trkpt>
      <trkpt lat="43.65277" lon="1.38631">
        <ele>150</ele>
        <time>2023-11-12T11:55:32Z</time>
      </trkpt>
      <trkpt lat="43.65275" lon="1.38628">
        <ele>150</ele>
        <time>2023-11-12T11:55:33Z</time>
      </trkpt>
      <trkpt lat="43.65274" lon="1.38626">
        <ele>150</ele>
        <time>2023-11-12T11:55:34Z</time>
      </trkpt>
      <trkpt lat="43.65271" lon="1.38622">
        <ele>150</ele>
        <time>2023-11-12T11:55:35Z</time>
      </trkpt>
      <trkpt lat="43.65271" lon="1.38622">
        <ele>150</ele>
        <time>2023-11-12T11:55:36Z</time>
      </trkpt>
      <trkpt lat="43.6527" lon="1.38619">
        <ele>150</ele>
        <time>2023-11-12T11:55:37Z</time>
      </trkpt>
      <trkpt lat="43.65268" lon="1.38616">
        <ele>150</ele>
        <time>2023-11-12T11:55:38Z</time>
      </trkpt>
      <trkpt lat="43.65266" lon="1.38613">
        <ele>149</ele>
        <time>2023-11-12T11:55:39Z</time>
      </trkpt>
      <trkpt lat="43.65265" lon="1.3861">
        <ele>149</ele>
        <time>2023-11-12T11:55:40Z</time>
      </trkpt>
      <trkpt lat="43.65264" lon="1.38607">
        <ele>149</ele>
        <time>2023-11-12T11:55:41Z</time>
      </trkpt>
      <trkpt lat="43.65263" lon="1.38604">
        <ele>149</ele>
        <time>2023-11-12T11:55:42Z</time>
      </trkpt>
      <trkpt lat="43.65262" lon="1.38602">
        <ele>149</ele>
        <time>2023-11-12T11:55:43Z</time>
      </trkpt>
      <trkpt lat="43.6526" lon="1.38596">
        <ele>149</ele>
        <time>2023-11-12T11:55:44Z</time>
      </trkpt>
      <trkpt lat="43.6526" lon="1.38596">
        <ele>149</ele>
        <time>2023-11-12T11:55:45Z</time>
      </trkpt>
      <trkpt lat="43.65259" lon="1.38594">
        <ele>149</ele>
        <time>2023-11-12T11:55:46Z</time>
      </trkpt>
      <trkpt lat="43.65258" lon="1.3859">
        <ele>149</ele>
        <time>2023-11-12T11:55:47Z</time>
      </trkpt>
      <trkpt lat="43.65257" lon="1.38587">
        <ele>149</ele>
        <time>2023-11-12T11:55:48Z</time>
      </trkpt>
      <trkpt lat="43.65256" lon="1.38584">
        <ele>149</ele>
        <time>2023-11-12T11:55:49Z</time>
      </trkpt>
      <trkpt lat="43.65254" lon="1.3858">
        <ele>149</ele>
        <time>2023-11-12T11:55:50Z</time>
      </trkpt>
      <trkpt lat="43.65253" lon="1.38577">
        <ele>149</ele>
        <time>2023-11-12T11:55:51Z</time>
      </trkpt>
      <trkpt lat="43.65253" lon="1.38574">
        <ele>149</ele>
        <time>2023-11-12T11:55:52Z</time>
      </trkpt>
      <trkpt lat="43.65252" lon="1.38571">
        <ele>149</ele>
        <time>2023-11-12T11:55:53Z</time>
      </trkpt>
      <trkpt lat="43.65251" lon="1.38568">
        <ele>149</ele>
        <time>2023-11-12T11:55:54Z</time>
      </trkpt>
      <trkpt lat="43.65251" lon="1.38564">
        <ele>149</ele>
        <time>2023-11-12T11:55:55Z</time>
      </trkpt>
      <trkpt lat="43.6525" lon="1.38561">
        <ele>149</ele>
        <time>2023-11-12T11:55:56Z</time>
      </trkpt>
      <trkpt lat="43.65249" lon="1.38557">
        <ele>149</ele>
        <time>2023-11-12T11:55:57Z</time>
      </trkpt>
      <trkpt lat="43.65248" lon="1.38554">
        <ele>149</ele>
        <time>2023-11-12T11:55:58Z</time>
      </trkpt>
      <trkpt lat="43.65247" lon="1.3855">
        <ele>149</ele>
        <time>2023-11-12T11:55:59Z</time>
      </trkpt>
      <trkpt lat="43.65245" lon="1.38547">
        <ele>149</ele>
        <time>2023-11-12T11:56:00Z</time>
      </trkpt>
      <trkpt lat="43.65244" lon="1.38544">
        <ele>149</ele>
        <time>2023-11-12T11:56:01Z</time>
      </trkpt>
      <trkpt lat="43.65243" lon="1.3854">
        <ele>149</ele>
        <time>2023-11-12T11:56:02Z</time>
      </trkpt>
      <trkpt lat="43.65242" lon="1.38537">
        <ele>149</ele>
        <time>2023-11-12T11:56:03Z</time>
      </trkpt>
      <trkpt lat="43.6524" lon="1.38533">
        <ele>149</ele>
        <time>2023-11-12T11:56:04Z</time>
      </trkpt>
      <trkpt lat="43.6524" lon="1.38529">
        <ele>149</ele>
        <time>2023-11-12T11:56:05Z</time>
      </trkpt>
      <trkpt lat="43.65238" lon="1.38526">
        <ele>149</ele>
        <time>2023-11-12T11:56:06Z</time>
      </trkpt>
      <trkpt lat="43.65238" lon="1.38522">
        <ele>149</ele>
        <time>2023-11-12T11:56:07Z</time>
      </trkpt>
      <trkpt lat="43.65237" lon="1.38518">
        <ele>149</ele>
        <time>2023-11-12T11:56:08Z</time>
      </trkpt>
      <trkpt lat="43.65236" lon="1.38515">
        <ele>149</ele>
        <time>2023-11-12T11:56:09Z</time>
      </trkpt>
      <trkpt lat="43.65235" lon="1.38512">
        <ele>149</ele>
        <time>2023-11-12T11:56:10Z</time>
      </trkpt>
      <trkpt lat="43.65234" lon="1.38508">
        <ele>149</ele>
        <time>2023-11-12T11:56:11Z</time>
      </trkpt>
      <trkpt lat="43.65232" lon="1.38504">
        <ele>149</ele>
        <time>2023-11-12T11:56:12Z</time>
      </trkpt>
      <trkpt lat="43.65231" lon="1.38501">
        <ele>149</ele>
        <time>2023-11-12T11:56:13Z</time>
      </trkpt>
      <trkpt lat="43.6523" lon="1.38497">
        <ele>149</ele>
        <time>2023-11-12T11:56:14Z</time>
      </trkpt>
      <trkpt lat="43.6523" lon="1.38493">
        <ele>149</ele>
        <time>2023-11-12T11:56:15Z</time>
      </trkpt>
      <trkpt lat="43.65229" lon="1.38489">
        <ele>149</ele>
        <time>2023-11-12T11:56:16Z</time>
      </trkpt>
      <trkpt lat="43.65228" lon="1.38486">
        <ele>149</ele>
        <time>2023-11-12T11:56:17Z</time>
      </trkpt>
      <trkpt lat="43.65227" lon="1.38483">
        <ele>149</ele>
        <time>2023-11-12T11:56:18Z</time>
      </trkpt>
      <trkpt lat="43.65226" lon="1.38479">
        <ele>149</ele>
        <time>2023-11-12T11:56:19Z</time>
      </trkpt>
      <trkpt lat="43.65225" lon="1.38475">
        <ele>149</ele>
        <time>2023-11-12T11:56:20Z</time>
      </trkpt>
      <trkpt lat="43.65224" lon="1.38472">
        <ele>149</ele>
        <time>2023-11-12T11:56:21Z</time>
      </trkpt>
      <trkpt lat="43.65221" lon="1.38465">
        <ele>149</ele>
        <time>2023-11-12T11:56:22Z</time>
      </trkpt>
      <trkpt lat="43.65221" lon="1.38465">
        <ele>149</ele>
        <time>2023-11-12T11:56:23Z</time>
      </trkpt>
      <trkpt lat="43.6522" lon="1.38462">
        <ele>149</ele>
        <time>2023-11-12T11:56:24Z</time>
      </trkpt>
      <trkpt lat="43.65219" lon="1.38459">
        <ele>149</ele>
        <time>2023-11-12T11:56:25Z</time>
      </trkpt>
      <trkpt lat="43.65217" lon="1.38456">
        <ele>149</ele>
        <time>2023-11-12T11:56:26Z</time>
      </trkpt>
      <trkpt lat="43.65216" lon="1.38453">
        <ele>149</ele>
        <time>2023-11-12T11:56:27Z</time>
      </trkpt>
      <trkpt lat="43.65215" lon="1.3845">
        <ele>150</ele>
        <time>2023-11-12T11:56:28Z</time>
      </trkpt>
      <trkpt lat="43.65214" lon="1.38447">
        <ele>150</ele>
        <time>2023-11-12T11:56:29Z</time>
      </trkpt>
      <trkpt lat="43.65213" lon="1.38443">
        <ele>150</ele>
        <time>2023-11-12T11:56:30Z</time>
      </trkpt>
      <trkpt lat="43.65212" lon="1.38439">
        <ele>150</ele>
        <time>2023-11-12T11:56:31Z</time>
      </trkpt>
      <trkpt lat="43.65211" lon="1.38436">
        <ele>150</ele>
        <time>2023-11-12T11:56:32Z</time>
      </trkpt>
      <trkpt lat="43.6521" lon="1.38432">
        <ele>150</ele>
        <time>2023-11-12T11:56:33Z</time>
      </trkpt>
      <trkpt lat="43.65209" lon="1.38429">
        <ele>149</ele>
        <time>2023-11-12T11:56:34Z</time>
      </trkpt>
      <trkpt lat="43.65208" lon="1.38426">
        <ele>150</ele>
        <time>2023-11-12T11:56:35Z</time>
      </trkpt>
      <trkpt lat="43.65206" lon="1.38423">
        <ele>150</ele>
        <time>2023-11-12T11:56:36Z</time>
      </trkpt>
      <trkpt lat="43.65205" lon="1.38419">
        <ele>151</ele>
        <time>2023-11-12T11:56:37Z</time>
      </trkpt>
      <trkpt lat="43.65203" lon="1.38416">
        <ele>151</ele>
        <time>2023-11-12T11:56:38Z</time>
      </trkpt>
      <trkpt lat="43.65202" lon="1.38413">
        <ele>151</ele>
        <time>2023-11-12T11:56:39Z</time>
      </trkpt>
      <trkpt lat="43.652" lon="1.3841">
        <ele>151</ele>
        <time>2023-11-12T11:56:40Z</time>
      </trkpt>
      <trkpt lat="43.65197" lon="1.38405">
        <ele>151</ele>
        <time>2023-11-12T11:56:41Z</time>
      </trkpt>
      <trkpt lat="43.65197" lon="1.38405">
        <ele>152</ele>
        <time>2023-11-12T11:56:42Z</time>
      </trkpt>
      <trkpt lat="43.65195" lon="1.38402">
        <ele>152</ele>
        <time>2023-11-12T11:56:43Z</time>
      </trkpt>
      <trkpt lat="43.65194" lon="1.384">
        <ele>152</ele>
        <time>2023-11-12T11:56:44Z</time>
      </trkpt>
      <trkpt lat="43.65192" lon="1.38396">
        <ele>151</ele>
        <time>2023-11-12T11:56:45Z</time>
      </trkpt>
      <trkpt lat="43.65191" lon="1.38393">
        <ele>151</ele>
        <time>2023-11-12T11:56:46Z</time>
      </trkpt>
      <trkpt lat="43.6519" lon="1.3839">
        <ele>151</ele>
        <time>2023-11-12T11:56:47Z</time>
      </trkpt>
      <trkpt lat="43.65189" lon="1.38387">
        <ele>151</ele>
        <time>2023-11-12T11:56:48Z</time>
      </trkpt>
      <trkpt lat="43.65188" lon="1.38384">
        <ele>151</ele>
        <time>2023-11-12T11:56:49Z</time>
      </trkpt>
      <trkpt lat="43.65188" lon="1.3838">
        <ele>152</ele>
        <time>2023-11-12T11:56:50Z</time>
      </trkpt>
      <trkpt lat="43.65187" lon="1.38376">
        <ele>152</ele>
        <time>2023-11-12T11:56:51Z</time>
      </trkpt>
      <trkpt lat="43.65186" lon="1.38373">
        <ele>153</ele>
        <time>2023-11-12T11:56:52Z</time>
      </trkpt>
      <trkpt lat="43.65186" lon="1.38369">
        <ele>153</ele>
        <time>2023-11-12T11:56:53Z</time>
      </trkpt>
      <trkpt lat="43.65185" lon="1.38365">
        <ele>153</ele>
        <time>2023-11-12T11:56:54Z</time>
      </trkpt>
      <trkpt lat="43.65185" lon="1.38362">
        <ele>153</ele>
        <time>2023-11-12T11:56:55Z</time>
      </trkpt>
      <trkpt lat="43.65184" lon="1.38358">
        <ele>153</ele>
        <time>2023-11-12T11:56:56Z</time>
      </trkpt>
      <trkpt lat="43.65184" lon="1.38355">
        <ele>153</ele>
        <time>2023-11-12T11:56:57Z</time>
      </trkpt>
      <trkpt lat="43.65184" lon="1.38351">
        <ele>153</ele>
        <time>2023-11-12T11:56:58Z</time>
      </trkpt>
      <trkpt lat="43.65183" lon="1.38348">
        <ele>153</ele>
        <time>2023-11-12T11:56:59Z</time>
      </trkpt>
      <trkpt lat="43.65183" lon="1.3834">
        <ele>152</ele>
        <time>2023-11-12T11:57:00Z</time>
      </trkpt>
      <trkpt lat="43.65183" lon="1.3834">
        <ele>152</ele>
        <time>2023-11-12T11:57:01Z</time>
      </trkpt>
      <trkpt lat="43.65182" lon="1.38337">
        <ele>152</ele>
        <time>2023-11-12T11:57:02Z</time>
      </trkpt>
      <trkpt lat="43.65182" lon="1.38333">
        <ele>152</ele>
        <time>2023-11-12T11:57:03Z</time>
      </trkpt>
      <trkpt lat="43.65181" lon="1.38329">
        <ele>153</ele>
        <time>2023-11-12T11:57:04Z</time>
      </trkpt>
      <trkpt lat="43.65181" lon="1.38326">
        <ele>153</ele>
        <time>2023-11-12T11:57:05Z</time>
      </trkpt>
      <trkpt lat="43.6518" lon="1.38323">
        <ele>153</ele>
        <time>2023-11-12T11:57:06Z</time>
      </trkpt>
      <trkpt lat="43.6518" lon="1.38319">
        <ele>153</ele>
        <time>2023-11-12T11:57:07Z</time>
      </trkpt>
      <trkpt lat="43.65179" lon="1.38316">
        <ele>153</ele>
        <time>2023-11-12T11:57:08Z</time>
      </trkpt>
      <trkpt lat="43.65179" lon="1.38312">
        <ele>153</ele>
        <time>2023-11-12T11:57:09Z</time>
      </trkpt>
      <trkpt lat="43.65178" lon="1.38306">
        <ele>153</ele>
        <time>2023-11-12T11:57:10Z</time>
      </trkpt>
      <trkpt lat="43.65178" lon="1.38306">
        <ele>153</ele>
        <time>2023-11-12T11:57:11Z</time>
      </trkpt>
      <trkpt lat="43.65177" lon="1.38302">
        <ele>153</ele>
        <time>2023-11-12T11:57:12Z</time>
      </trkpt>
      <trkpt lat="43.65177" lon="1.38299">
        <ele>153</ele>
        <time>2023-11-12T11:57:13Z</time>
      </trkpt>
      <trkpt lat="43.65176" lon="1.38296">
        <ele>153</ele>
        <time>2023-11-12T11:57:14Z</time>
      </trkpt>
      <trkpt lat="43.65176" lon="1.38293">
        <ele>152</ele>
        <time>2023-11-12T11:57:15Z</time>
      </trkpt>
      <trkpt lat="43.65175" lon="1.38289">
        <ele>152</ele>
        <time>2023-11-12T11:57:16Z</time>
      </trkpt>
      <trkpt lat="43.65174" lon="1.38286">
        <ele>152</ele>
        <time>2023-11-12T11:57:17Z</time>
      </trkpt>
      <trkpt lat="43.65173" lon="1.38283">
        <ele>152</ele>
        <time>2023-11-12T11:57:18Z</time>
      </trkpt>
      <trkpt lat="43.65172" lon="1.38276">
        <ele>152</ele>
        <time>2023-11-12T11:57:19Z</time>
      </trkpt>
      <trkpt lat="43.65172" lon="1.38276">
        <ele>153</ele>
        <time>2023-11-12T11:57:20Z</time>
      </trkpt>
      <trkpt lat="43.65172" lon="1.38273">
        <ele>153</ele>
        <time>2023-11-12T11:57:21Z</time>
      </trkpt>
      <trkpt lat="43.65171" lon="1.38269">
        <ele>153</ele>
        <time>2023-11-12T11:57:22Z</time>
      </trkpt>
      <trkpt lat="43.6517" lon="1.38266">
        <ele>153</ele>
        <time>2023-11-12T11:57:23Z</time>
      </trkpt>
      <trkpt lat="43.65169" lon="1.38262">
        <ele>153</ele>
        <time>2023-11-12T11:57:24Z</time>
      </trkpt>
      <trkpt lat="43.65169" lon="1.38259">
        <ele>153</ele>
        <time>2023-11-12T11:57:25Z</time>
      </trkpt>
      <trkpt lat="43.65168" lon="1.38255">
        <ele>152</ele>
        <time>2023-11-12T11:57:26Z</time>
      </trkpt>
      <trkpt lat="43.65167" lon="1.38252">
        <ele>152</ele>
        <time>2023-11-12T11:57:27Z</time>
      </trkpt>
      <trkpt lat="43.65166" lon="1.38249">
        <ele>152</ele>
        <time>2023-11-12T11:57:28Z</time>
      </trkpt>
      <trkpt lat="43.65166" lon="1.38246">
        <ele>152</ele>
        <time>2023-11-12T11:57:29Z</time>
      </trkpt>
      <trkpt lat="43.65165" lon="1.38242">
        <ele>152</ele>
        <time>2023-11-12T11:57:30Z</time>
      </trkpt>
      <trkpt lat="43.65165" lon="1.38238">
        <ele>153</ele>
        <time>2023-11-12T11:57:31Z</time>
      </trkpt>
      <trkpt lat="43.65164" lon="1.38235">
        <ele>153</ele>
        <time>2023-11-12T11:57:32Z</time>
      </trkpt>
      <trkpt lat="43.65164" lon="1.38231">
        <ele>153</ele>
        <time>2023-11-12T11:57:33Z</time>
      </trkpt>
      <trkpt lat="43.65164" lon="1.38228">
        <ele>153</ele>
        <time>2023-11-12T11:57:34Z</time>
      </trkpt>
      <trkpt lat="43.65164" lon="1.38224">
        <ele>152</ele>
        <time>2023-11-12T11:57:35Z</time>
      </trkpt>
      <trkpt lat="43.65164" lon="1.38221">
        <ele>152</ele>
        <time>2023-11-12T11:57:36Z</time>
      </trkpt>
      <trkpt lat="43.65164" lon="1.38217">
        <ele>153</ele>
        <time>2023-11-12T11:57:37Z</time>
      </trkpt>
      <trkpt lat="43.65164" lon="1.3821">
        <ele>153</ele>
        <time>2023-11-12T11:57:38Z</time>
      </trkpt>
      <trkpt lat="43.65164" lon="1.3821">
        <ele>153</ele>
        <time>2023-11-12T11:57:39Z</time>
      </trkpt>
      <trkpt lat="43.65164" lon="1.38206">
        <ele>153</ele>
        <time>2023-11-12T11:57:40Z</time>
      </trkpt>
      <trkpt lat="43.65164" lon="1.38203">
        <ele>153</ele>
        <time>2023-11-12T11:57:41Z</time>
      </trkpt>
      <trkpt lat="43.65165" lon="1.38199">
        <ele>153</ele>
        <time>2023-11-12T11:57:42Z</time>
      </trkpt>
      <trkpt lat="43.65166" lon="1.38196">
        <ele>153</ele>
        <time>2023-11-12T11:57:43Z</time>
      </trkpt>
      <trkpt lat="43.65168" lon="1.38193">
        <ele>153</ele>
        <time>2023-11-12T11:57:44Z</time>
      </trkpt>
      <trkpt lat="43.65171" lon="1.3819">
        <ele>153</ele>
        <time>2023-11-12T11:57:45Z</time>
      </trkpt>
      <trkpt lat="43.65173" lon="1.38188">
        <ele>153</ele>
        <time>2023-11-12T11:57:46Z</time>
      </trkpt>
      <trkpt lat="43.65175" lon="1.38185">
        <ele>153</ele>
        <time>2023-11-12T11:57:47Z</time>
      </trkpt>
      <trkpt lat="43.65177" lon="1.38183">
        <ele>153</ele>
        <time>2023-11-12T11:57:48Z</time>
      </trkpt>
      <trkpt lat="43.65179" lon="1.3818">
        <ele>153</ele>
        <time>2023-11-12T11:57:49Z</time>
      </trkpt>
      <trkpt lat="43.65181" lon="1.38178">
        <ele>153</ele>
        <time>2023-11-12T11:57:50Z</time>
      </trkpt>
      <trkpt lat="43.65183" lon="1.38176">
        <ele>153</ele>
        <time>2023-11-12T11:57:51Z</time>
      </trkpt>
      <trkpt lat="43.65185" lon="1.38174">
        <ele>153</ele>
        <time>2023-11-12T11:57:52Z</time>
      </trkpt>
      <trkpt lat="43.65188" lon="1.38172">
        <ele>153</ele>
        <time>2023-11-12T11:57:53Z</time>
      </trkpt>
      <trkpt lat="43.6519" lon="1.3817">
        <ele>153</ele>
        <time>2023-11-12T11:57:54Z</time>
      </trkpt>
      <trkpt lat="43.65192" lon="1.38168">
        <ele>153</ele>
        <time>2023-11-12T11:57:55Z</time>
      </trkpt>
      <trkpt lat="43.65194" lon="1.38165">
        <ele>153</ele>
        <time>2023-11-12T11:57:56Z</time>
      </trkpt>
      <trkpt lat="43.65196" lon="1.38163">
        <ele>153</ele>
        <time>2023-11-12T11:57:57Z</time>
      </trkpt>
      <trkpt lat="43.65198" lon="1.38161">
        <ele>153</ele>
        <time>2023-11-12T11:57:58Z</time>
      </trkpt>
      <trkpt lat="43.652" lon="1.38158">
        <ele>153</ele>
        <time>2023-11-12T11:57:59Z</time>
      </trkpt>
      <trkpt lat="43.65202" lon="1.38156">
        <ele>153</ele>
        <time>2023-11-12T11:58:00Z</time>
      </trkpt>
      <trkpt lat="43.65204" lon="1.38154">
        <ele>153</ele>
        <time>2023-11-12T11:58:01Z</time>
      </trkpt>
      <trkpt lat="43.65207" lon="1.38152">
        <ele>153</ele>
        <time>2023-11-12T11:58:02Z</time>
      </trkpt>
      <trkpt lat="43.65209" lon="1.3815">
        <ele>153</ele>
        <time>2023-11-12T11:58:03Z</time>
      </trkpt>
      <trkpt lat="43.65211" lon="1.38148">
        <ele>153</ele>
        <time>2023-11-12T11:58:04Z</time>
      </trkpt>
      <trkpt lat="43.65213" lon="1.38146">
        <ele>154</ele>
        <time>2023-11-12T11:58:05Z</time>
      </trkpt>
      <trkpt lat="43.65216" lon="1.38145">
        <ele>154</ele>
        <time>2023-11-12T11:58:06Z</time>
      </trkpt>
      <trkpt lat="43.65218" lon="1.38143">
        <ele>154</ele>
        <time>2023-11-12T11:58:07Z</time>
      </trkpt>
      <trkpt lat="43.6522" lon="1.38141">
        <ele>154</ele>
        <time>2023-11-12T11:58:08Z</time>
      </trkpt>
      <trkpt lat="43.65222" lon="1.3814">
        <ele>154</ele>
        <time>2023-11-12T11:58:09Z</time>
      </trkpt>
      <trkpt lat="43.65225" lon="1.38138">
        <ele>154</ele>
        <time>2023-11-12T11:58:10Z</time>
      </trkpt>
      <trkpt lat="43.65227" lon="1.38136">
        <ele>154</ele>
        <time>2023-11-12T11:58:11Z</time>
      </trkpt>
      <trkpt lat="43.65229" lon="1.38134">
        <ele>154</ele>
        <time>2023-11-12T11:58:12Z</time>
      </trkpt>
      <trkpt lat="43.65232" lon="1.38133">
        <ele>154</ele>
        <time>2023-11-12T11:58:13Z</time>
      </trkpt>
      <trkpt lat="43.65234" lon="1.38131">
        <ele>154</ele>
        <time>2023-11-12T11:58:14Z</time>
      </trkpt>
      <trkpt lat="43.65236" lon="1.3813">
        <ele>154</ele>
        <time>2023-11-12T11:58:15Z</time>
      </trkpt>
      <trkpt lat="43.65238" lon="1.38128">
        <ele>154</ele>
        <time>2023-11-12T11:58:16Z</time>
      </trkpt>
      <trkpt lat="43.6524" lon="1.38127">
        <ele>153</ele>
        <time>2023-11-12T11:58:17Z</time>
      </trkpt>
      <trkpt lat="43.65242" lon="1.38125">
        <ele>153</ele>
        <time>2023-11-12T11:58:18Z</time>
      </trkpt>
      <trkpt lat="43.65244" lon="1.38122">
        <ele>153</ele>
        <time>2023-11-12T11:58:19Z</time>
      </trkpt>
      <trkpt lat="43.65244" lon="1.38119">
        <ele>153</ele>
        <time>2023-11-12T11:58:20Z</time>
      </trkpt>
      <trkpt lat="43.65245" lon="1.38116">
        <ele>153</ele>
        <time>2023-11-12T11:58:21Z</time>
      </trkpt>
      <trkpt lat="43.65245" lon="1.38113">
        <ele>153</ele>
        <time>2023-11-12T11:58:22Z</time>
      </trkpt>
      <trkpt lat="43.65244" lon="1.3811">
        <ele>153</ele>
        <time>2023-11-12T11:58:23Z</time>
      </trkpt>
      <trkpt lat="43.65243" lon="1.38107">
        <ele>154</ele>
        <time>2023-11-12T11:58:24Z</time>
      </trkpt>
      <trkpt lat="43.65241" lon="1.38101">
        <ele>154</ele>
        <time>2023-11-12T11:58:25Z</time>
      </trkpt>
      <trkpt lat="43.65241" lon="1.38101">
        <ele>154</ele>
        <time>2023-11-12T11:58:26Z</time>
      </trkpt>
      <trkpt lat="43.6524" lon="1.38098">
        <ele>154</ele>
        <time>2023-11-12T11:58:27Z</time>
      </trkpt>
      <trkpt lat="43.6524" lon="1.38098">
        <ele>154</ele>
        <time>2023-11-12T11:58:28Z</time>
      </trkpt>
      <trkpt lat="43.65238" lon="1.38094">
        <ele>155</ele>
        <time>2023-11-12T11:58:29Z</time>
      </trkpt>
      <trkpt lat="43.65237" lon="1.38091">
        <ele>155</ele>
        <time>2023-11-12T11:58:30Z</time>
      </trkpt>
      <trkpt lat="43.65236" lon="1.38088">
        <ele>154</ele>
        <time>2023-11-12T11:58:31Z</time>
      </trkpt>
      <trkpt lat="43.65234" lon="1.38083">
        <ele>154</ele>
        <time>2023-11-12T11:58:32Z</time>
      </trkpt>
      <trkpt lat="43.65234" lon="1.38081">
        <ele>155</ele>
        <time>2023-11-12T11:58:33Z</time>
      </trkpt>
      <trkpt lat="43.65233" lon="1.38078">
        <ele>155</ele>
        <time>2023-11-12T11:58:34Z</time>
      </trkpt>
      <trkpt lat="43.65232" lon="1.38075">
        <ele>155</ele>
        <time>2023-11-12T11:58:35Z</time>
      </trkpt>
      <trkpt lat="43.6523" lon="1.38072">
        <ele>155</ele>
        <time>2023-11-12T11:58:36Z</time>
      </trkpt>
      <trkpt lat="43.65229" lon="1.38069">
        <ele>155</ele>
        <time>2023-11-12T11:58:37Z</time>
      </trkpt>
      <trkpt lat="43.65228" lon="1.38066">
        <ele>155</ele>
        <time>2023-11-12T11:58:38Z</time>
      </trkpt>
      <trkpt lat="43.65227" lon="1.38063">
        <ele>155</ele>
        <time>2023-11-12T11:58:39Z</time>
      </trkpt>
      <trkpt lat="43.65226" lon="1.3806">
        <ele>155</ele>
        <time>2023-11-12T11:58:40Z</time>
      </trkpt>
      <trkpt lat="43.65225" lon="1.38056">
        <ele>155</ele>
        <time>2023-11-12T11:58:41Z</time>
      </trkpt>
      <trkpt lat="43.65224" lon="1.38053">
        <ele>155</ele>
        <time>2023-11-12T11:58:42Z</time>
      </trkpt>
      <trkpt lat="43.65223" lon="1.3805">
        <ele>155</ele>
        <time>2023-11-12T11:58:43Z</time>
      </trkpt>
      <trkpt lat="43.65222" lon="1.38047">
        <ele>155</ele>
        <time>2023-11-12T11:58:44Z</time>
      </trkpt>
      <trkpt lat="43.65221" lon="1.38044">
        <ele>155</ele>
        <time>2023-11-12T11:58:45Z</time>
      </trkpt>
      <trkpt lat="43.6522" lon="1.3804">
        <ele>155</ele>
        <time>2023-11-12T11:58:46Z</time>
      </trkpt>
      <trkpt lat="43.65218" lon="1.38038">
        <ele>155</ele>
        <time>2023-11-12T11:58:47Z</time>
      </trkpt>
      <trkpt lat="43.65217" lon="1.38035">
        <ele>155</ele>
        <time>2023-11-12T11:58:48Z</time>
      </trkpt>
      <trkpt lat="43.65215" lon="1.38033">
        <ele>155</ele>
        <time>2023-11-12T11:58:49Z</time>
      </trkpt>
      <trkpt lat="43.65213" lon="1.38031">
        <ele>155</ele>
        <time>2023-11-12T11:58:50Z</time>
      </trkpt>
      <trkpt lat="43.6521" lon="1.3803">
        <ele>155</ele>
        <time>2023-11-12T11:58:51Z</time>
      </trkpt>
      <trkpt lat="43.65207" lon="1.38031">
        <ele>155</ele>
        <time>2023-11-12T11:58:52Z</time>
      </trkpt>
      <trkpt lat="43.65204" lon="1.38032">
        <ele>155</ele>
        <time>2023-11-12T11:58:53Z</time>
      </trkpt>
      <trkpt lat="43.652" lon="1.38035">
        <ele>155</ele>
        <time>2023-11-12T11:58:54Z</time>
      </trkpt>
      <trkpt lat="43.652" lon="1.38035">
        <ele>155</ele>
        <time>2023-11-12T11:58:55Z</time>
      </trkpt>
      <trkpt lat="43.65196" lon="1.38038">
        <ele>155</ele>
        <time>2023-11-12T11:58:56Z</time>
      </trkpt>
      <trkpt lat="43.65195" lon="1.38039">
        <ele>156</ele>
        <time>2023-11-12T11:58:57Z</time>
      </trkpt>
      <trkpt lat="43.65193" lon="1.38041">
        <ele>156</ele>
        <time>2023-11-12T11:58:58Z</time>
      </trkpt>
      <trkpt lat="43.6519" lon="1.38043">
        <ele>155</ele>
        <time>2023-11-12T11:58:59Z</time>
      </trkpt>
      <trkpt lat="43.65188" lon="1.38044">
        <ele>155</ele>
        <time>2023-11-12T11:59:00Z</time>
      </trkpt>
      <trkpt lat="43.65185" lon="1.38045">
        <ele>155</ele>
        <time>2023-11-12T11:59:01Z</time>
      </trkpt>
      <trkpt lat="43.65182" lon="1.38045">
        <ele>155</ele>
        <time>2023-11-12T11:59:02Z</time>
      </trkpt>
      <trkpt lat="43.6518" lon="1.38045">
        <ele>155</ele>
        <time>2023-11-12T11:59:03Z</time>
      </trkpt>
      <trkpt lat="43.65177" lon="1.38046">
        <ele>155</ele>
        <time>2023-11-12T11:59:04Z</time>
      </trkpt>
      <trkpt lat="43.65175" lon="1.38048">
        <ele>155</ele>
        <time>2023-11-12T11:59:05Z</time>
      </trkpt>
      <trkpt lat="43.65173" lon="1.3805">
        <ele>155</ele>
        <time>2023-11-12T11:59:06Z</time>
      </trkpt>
      <trkpt lat="43.6517" lon="1.38052">
        <ele>155</ele>
        <time>2023-11-12T11:59:07Z</time>
      </trkpt>
      <trkpt lat="43.65168" lon="1.38053">
        <ele>155</ele>
        <time>2023-11-12T11:59:08Z</time>
      </trkpt>
      <trkpt lat="43.65166" lon="1.38055">
        <ele>155</ele>
        <time>2023-11-12T11:59:09Z</time>
      </trkpt>
      <trkpt lat="43.65163" lon="1.38057">
        <ele>156</ele>
        <time>2023-11-12T11:59:10Z</time>
      </trkpt>
      <trkpt lat="43.65161" lon="1.38059">
        <ele>156</ele>
        <time>2023-11-12T11:59:11Z</time>
      </trkpt>
      <trkpt lat="43.65159" lon="1.38061">
        <ele>156</ele>
        <time>2023-11-12T11:59:12Z</time>
      </trkpt>
      <trkpt lat="43.65154" lon="1.38064">
        <ele>156</ele>
        <time>2023-11-12T11:59:13Z</time>
      </trkpt>
      <trkpt lat="43.65154" lon="1.38064">
        <ele>156</ele>
        <time>2023-11-12T11:59:14Z</time>
      </trkpt>
      <trkpt lat="43.65151" lon="1.38066">
        <ele>156</ele>
        <time>2023-11-12T11:59:15Z</time>
      </trkpt>
      <trkpt lat="43.65149" lon="1.38068">
        <ele>156</ele>
        <time>2023-11-12T11:59:16Z</time>
      </trkpt>
      <trkpt lat="43.65147" lon="1.38069">
        <ele>156</ele>
        <time>2023-11-12T11:59:17Z</time>
      </trkpt>
      <trkpt lat="43.65144" lon="1.38071">
        <ele>156</ele>
        <time>2023-11-12T11:59:18Z</time>
      </trkpt>
      <trkpt lat="43.65142" lon="1.38073">
        <ele>156</ele>
        <time>2023-11-12T11:59:19Z</time>
      </trkpt>
      <trkpt lat="43.6514" lon="1.38074">
        <ele>156</ele>
        <time>2023-11-12T11:59:20Z</time>
      </trkpt>
      <trkpt lat="43.65138" lon="1.38076">
        <ele>156</ele>
        <time>2023-11-12T11:59:21Z</time>
      </trkpt>
      <trkpt lat="43.65136" lon="1.38078">
        <ele>156</ele>
        <time>2023-11-12T11:59:22Z</time>
      </trkpt>
      <trkpt lat="43.65133" lon="1.3808">
        <ele>156</ele>
        <time>2023-11-12T11:59:23Z</time>
      </trkpt>
      <trkpt lat="43.65131" lon="1.38081">
        <ele>156</ele>
        <time>2023-11-12T11:59:24Z</time>
      </trkpt>
      <trkpt lat="43.65129" lon="1.38083">
        <ele>156</ele>
        <time>2023-11-12T11:59:25Z</time>
      </trkpt>
      <trkpt lat="43.65126" lon="1.38085">
        <ele>157</ele>
        <time>2023-11-12T11:59:26Z</time>
      </trkpt>
      <trkpt lat="43.65124" lon="1.38086">
        <ele>157</ele>
        <time>2023-11-12T11:59:27Z</time>
      </trkpt>
      <trkpt lat="43.65122" lon="1.38088">
        <ele>157</ele>
        <time>2023-11-12T11:59:28Z</time>
      </trkpt>
      <trkpt lat="43.6512" lon="1.38089">
        <ele>156</ele>
        <time>2023-11-12T11:59:29Z</time>
      </trkpt>
      <trkpt lat="43.65117" lon="1.38091">
        <ele>156</ele>
        <time>2023-11-12T11:59:30Z</time>
      </trkpt>
      <trkpt lat="43.65115" lon="1.38092">
        <ele>156</ele>
        <time>2023-11-12T11:59:31Z</time>
      </trkpt>
      <trkpt lat="43.65111" lon="1.38095">
        <ele>156</ele>
        <time>2023-11-12T11:59:32Z</time>
      </trkpt>
      <trkpt lat="43.65111" lon="1.38095">
        <ele>156</ele>
        <time>2023-11-12T11:59:33Z</time>
      </trkpt>
      <trkpt lat="43.65109" lon="1.38096">
        <ele>156</ele>
        <time>2023-11-12T11:59:34Z</time>
      </trkpt>
      <trkpt lat="43.65107" lon="1.38097">
        <ele>156</ele>
        <time>2023-11-12T11:59:35Z</time>
      </trkpt>
      <trkpt lat="43.65105" lon="1.38099">
        <ele>155</ele>
        <time>2023-11-12T11:59:36Z</time>
      </trkpt>
      <trkpt lat="43.65103" lon="1.381">
        <ele>155</ele>
        <time>2023-11-12T11:59:37Z</time>
      </trkpt>
      <trkpt lat="43.651" lon="1.38101">
        <ele>155</ele>
        <time>2023-11-12T11:59:38Z</time>
      </trkpt>
      <trkpt lat="43.65098" lon="1.38103">
        <ele>155</ele>
        <time>2023-11-12T11:59:39Z</time>
      </trkpt>
      <trkpt lat="43.65096" lon="1.38104">
        <ele>155</ele>
        <time>2023-11-12T11:59:40Z</time>
      </trkpt>
      <trkpt lat="43.65094" lon="1.38105">
        <ele>155</ele>
        <time>2023-11-12T11:59:41Z</time>
      </trkpt>
      <trkpt lat="43.65091" lon="1.38107">
        <ele>155</ele>
        <time>2023-11-12T11:59:42Z</time>
      </trkpt>
      <trkpt lat="43.65089" lon="1.38108">
        <ele>155</ele>
        <time>2023-11-12T11:59:43Z</time>
      </trkpt>
      <trkpt lat="43.65087" lon="1.3811">
        <ele>156</ele>
        <time>2023-11-12T11:59:44Z</time>
      </trkpt>
      <trkpt lat="43.65085" lon="1.38112">
        <ele>156</ele>
        <time>2023-11-12T11:59:45Z</time>
      </trkpt>
      <trkpt lat="43.65083" lon="1.38113">
        <ele>155</ele>
        <time>2023-11-12T11:59:46Z</time>
      </trkpt>
      <trkpt lat="43.6508" lon="1.38115">
        <ele>155</ele>
        <time>2023-11-12T11:59:47Z</time>
      </trkpt>
      <trkpt lat="43.65078" lon="1.38117">
        <ele>155</ele>
        <time>2023-11-12T11:59:48Z</time>
      </trkpt>
      <trkpt lat="43.65076" lon="1.38119">
        <ele>155</ele>
        <time>2023-11-12T11:59:49Z</time>
      </trkpt>
      <trkpt lat="43.65074" lon="1.38121">
        <ele>155</ele>
        <time>2023-11-12T11:59:50Z</time>
      </trkpt>
      <trkpt lat="43.65069" lon="1.38125">
        <ele>155</ele>
        <time>2023-11-12T11:59:51Z</time>
      </trkpt>
      <trkpt lat="43.65069" lon="1.38125">
        <ele>155</ele>
        <time>2023-11-12T11:59:52Z</time>
      </trkpt>
      <trkpt lat="43.65066" lon="1.38125">
        <ele>155</ele>
        <time>2023-11-12T11:59:53Z</time>
      </trkpt>
      <trkpt lat="43.65065" lon="1.38123">
        <ele>155</ele>
        <time>2023-11-12T11:59:54Z</time>
      </trkpt>
      <trkpt lat="43.65064" lon="1.3812">
        <ele>154</ele>
        <time>2023-11-12T11:59:55Z</time>
      </trkpt>
      <trkpt lat="43.65063" lon="1.38117">
        <ele>153</ele>
        <time>2023-11-12T11:59:56Z</time>
      </trkpt>
      <trkpt lat="43.65062" lon="1.38114">
        <ele>153</ele>
        <time>2023-11-12T11:59:57Z</time>
      </trkpt>
      <trkpt lat="43.65061" lon="1.38111">
        <ele>152</ele>
        <time>2023-11-12T11:59:58Z</time>
      </trkpt>
      <trkpt lat="43.6506" lon="1.38107">
        <ele>152</ele>
        <time>2023-11-12T11:59:59Z</time>
      </trkpt>
      <trkpt lat="43.65059" lon="1.38104">
        <ele>152</ele>
        <time>2023-11-12T12:00:00Z</time>
      </trkpt>
      <trkpt lat="43.65058" lon="1.38101">
        <ele>152</ele>
        <time>2023-11-12T12:00:01Z</time>
      </trkpt>
      <trkpt lat="43.65056" lon="1.38098">
        <ele>152</ele>
        <time>2023-11-12T12:00:02Z</time>
      </trkpt>
      <trkpt lat="43.65055" lon="1.38095">
        <ele>153</ele>
        <time>2023-11-12T12:00:03Z</time>
      </trkpt>
      <trkpt lat="43.65053" lon="1.38091">
        <ele>153</ele>
        <time>2023-11-12T12:00:04Z</time>
      </trkpt>
      <trkpt lat="43.65052" lon="1.38088">
        <ele>153</ele>
        <time>2023-11-12T12:00:05Z</time>
      </trkpt>
      <trkpt lat="43.6505" lon="1.38084">
        <ele>153</ele>
        <time>2023-11-12T12:00:06Z</time>
      </trkpt>
      <trkpt lat="43.65049" lon="1.3808">
        <ele>152</ele>
        <time>2023-11-12T12:00:07Z</time>
      </trkpt>
      <trkpt lat="43.65047" lon="1.38077">
        <ele>152</ele>
        <time>2023-11-12T12:00:08Z</time>
      </trkpt>
      <trkpt lat="43.65045" lon="1.38074">
        <ele>152</ele>
        <time>2023-11-12T12:00:09Z</time>
      </trkpt>
      <trkpt lat="43.65042" lon="1.38067">
        <ele>152</ele>
        <time>2023-11-12T12:00:10Z</time>
      </trkpt>
      <trkpt lat="43.65042" lon="1.38067">
        <ele>151</ele>
        <time>2023-11-12T12:00:11Z</time>
      </trkpt>
      <trkpt lat="43.6504" lon="1.38064">
        <ele>151</ele>
        <time>2023-11-12T12:00:12Z</time>
      </trkpt>
      <trkpt lat="43.65038" lon="1.3806">
        <ele>151</ele>
        <time>2023-11-12T12:00:13Z</time>
      </trkpt>
      <trkpt lat="43.65036" lon="1.38058">
        <ele>152</ele>
        <time>2023-11-12T12:00:14Z</time>
      </trkpt>
      <trkpt lat="43.65034" lon="1.38055">
        <ele>152</ele>
        <time>2023-11-12T12:00:15Z</time>
      </trkpt>
      <trkpt lat="43.65032" lon="1.38052">
        <ele>152</ele>
        <time>2023-11-12T12:00:16Z</time>
      </trkpt>
      <trkpt lat="43.6503" lon="1.38049">
        <ele>152</ele>
        <time>2023-11-12T12:00:17Z</time>
      </trkpt>
      <trkpt lat="43.65029" lon="1.38047">
        <ele>152</ele>
        <time>2023-11-12T12:00:18Z</time>
      </trkpt>
      <trkpt lat="43.65027" lon="1.38044">
        <ele>152</ele>
        <time>2023-11-12T12:00:19Z</time>
      </trkpt>
      <trkpt lat="43.65025" lon="1.38041">
        <ele>152</ele>
        <time>2023-11-12T12:00:20Z</time>
      </trkpt>
      <trkpt lat="43.65022" lon="1.38036">
        <ele>152</ele>
        <time>2023-11-12T12:00:21Z</time>
      </trkpt>
      <trkpt lat="43.65021" lon="1.38035">
        <ele>152</ele>
        <time>2023-11-12T12:00:22Z</time>
      </trkpt>
      <trkpt lat="43.65019" lon="1.38032">
        <ele>152</ele>
        <time>2023-11-12T12:00:23Z</time>
      </trkpt>
      <trkpt lat="43.65018" lon="1.38029">
        <ele>151</ele>
        <time>2023-11-12T12:00:24Z</time>
      </trkpt>
      <trkpt lat="43.65016" lon="1.38026">
        <ele>152</ele>
        <time>2023-11-12T12:00:25Z</time>
      </trkpt>
      <trkpt lat="43.65014" lon="1.38023">
        <ele>152</ele>
        <time>2023-11-12T12:00:26Z</time>
      </trkpt>
      <trkpt lat="43.65013" lon="1.3802">
        <ele>152</ele>
        <time>2023-11-12T12:00:27Z</time>
      </trkpt>
      <trkpt lat="43.65011" lon="1.38017">
        <ele>152</ele>
        <time>2023-11-12T12:00:28Z</time>
      </trkpt>
      <trkpt lat="43.65007" lon="1.38012">
        <ele>152</ele>
        <time>2023-11-12T12:00:29Z</time>
      </trkpt>
      <trkpt lat="43.65007" lon="1.38012">
        <ele>152</ele>
        <time>2023-11-12T12:00:30Z</time>
      </trkpt>
      <trkpt lat="43.65006" lon="1.3801">
        <ele>152</ele>
        <time>2023-11-12T12:00:31Z</time>
      </trkpt>
      <trkpt lat="43.65004" lon="1.38007">
        <ele>152</ele>
        <time>2023-11-12T12:00:32Z</time>
      </trkpt>
      <trkpt lat="43.65002" lon="1.38004">
        <ele>152</ele>
        <time>2023-11-12T12:00:33Z</time>
      </trkpt>
      <trkpt lat="43.65001" lon="1.38002">
        <ele>152</ele>
        <time>2023-11-12T12:00:34Z</time>
      </trkpt>
      <trkpt lat="43.64999" lon="1.37999">
        <ele>152</ele>
        <time>2023-11-12T12:00:35Z</time>
      </trkpt>
      <trkpt lat="43.64998" lon="1.37996">
        <ele>152</ele>
        <time>2023-11-12T12:00:36Z</time>
      </trkpt>
      <trkpt lat="43.64996" lon="1.37994">
        <ele>152</ele>
        <time>2023-11-12T12:00:37Z</time>
      </trkpt>
      <trkpt lat="43.64994" lon="1.37991">
        <ele>152</ele>
        <time>2023-11-12T12:00:38Z</time>
      </trkpt>
      <trkpt lat="43.64992" lon="1.37989">
        <ele>152</ele>
        <time>2023-11-12T12:00:39Z</time>
      </trkpt>
      <trkpt lat="43.64991" lon="1.37986">
        <ele>152</ele>
        <time>2023-11-12T12:00:40Z</time>
      </trkpt>
      <trkpt lat="43.64989" lon="1.37984">
        <ele>152</ele>
        <time>2023-11-12T12:00:41Z</time>
      </trkpt>
      <trkpt lat="43.64988" lon="1.37981">
        <ele>152</ele>
        <time>2023-11-12T12:00:42Z</time>
      </trkpt>
      <trkpt lat="43.64986" lon="1.37978">
        <ele>152</ele>
        <time>2023-11-12T12:00:43Z</time>
      </trkpt>
      <trkpt lat="43.64984" lon="1.37975">
        <ele>152</ele>
        <time>2023-11-12T12:00:44Z</time>
      </trkpt>
      <trkpt lat="43.64983" lon="1.37973">
        <ele>152</ele>
        <time>2023-11-12T12:00:45Z</time>
      </trkpt>
      <trkpt lat="43.64981" lon="1.3797">
        <ele>152</ele>
        <time>2023-11-12T12:00:46Z</time>
      </trkpt>
      <trkpt lat="43.6498" lon="1.37967">
        <ele>152</ele>
        <time>2023-11-12T12:00:47Z</time>
      </trkpt>
      <trkpt lat="43.64977" lon="1.37962">
        <ele>153</ele>
        <time>2023-11-12T12:00:48Z</time>
      </trkpt>
      <trkpt lat="43.64977" lon="1.37962">
        <ele>153</ele>
        <time>2023-11-12T12:00:49Z</time>
      </trkpt>
      <trkpt lat="43.64975" lon="1.37959">
        <ele>153</ele>
        <time>2023-11-12T12:00:50Z</time>
      </trkpt>
      <trkpt lat="43.64974" lon="1.37956">
        <ele>154</ele>
        <time>2023-11-12T12:00:51Z</time>
      </trkpt>
      <trkpt lat="43.64972" lon="1.37954">
        <ele>154</ele>
        <time>2023-11-12T12:00:52Z</time>
      </trkpt>
      <trkpt lat="43.6497" lon="1.37951">
        <ele>154</ele>
        <time>2023-11-12T12:00:53Z</time>
      </trkpt>
      <trkpt lat="43.64969" lon="1.37948">
        <ele>154</ele>
        <time>2023-11-12T12:00:54Z</time>
      </trkpt>
      <trkpt lat="43.64967" lon="1.37946">
        <ele>154</ele>
        <time>2023-11-12T12:00:55Z</time>
      </trkpt>
      <trkpt lat="43.64966" lon="1.37943">
        <ele>154</ele>
        <time>2023-11-12T12:00:56Z</time>
      </trkpt>
      <trkpt lat="43.64964" lon="1.37941">
        <ele>154</ele>
        <time>2023-11-12T12:00:57Z</time>
      </trkpt>
      <trkpt lat="43.64963" lon="1.37938">
        <ele>154</ele>
        <time>2023-11-12T12:00:58Z</time>
      </trkpt>
      <trkpt lat="43.64961" lon="1.37935">
        <ele>153</ele>
        <time>2023-11-12T12:00:59Z</time>
      </trkpt>
      <trkpt lat="43.64959" lon="1.37933">
        <ele>153</ele>
        <time>2023-11-12T12:01:00Z</time>
      </trkpt>
      <trkpt lat="43.64957" lon="1.3793">
        <ele>154</ele>
        <time>2023-11-12T12:01:01Z</time>
      </trkpt>
      <trkpt lat="43.64956" lon="1.37928">
        <ele>154</ele>
        <time>2023-11-12T12:01:02Z</time>
      </trkpt>
      <trkpt lat="43.64955" lon="1.37925">
        <ele>154</ele>
        <time>2023-11-12T12:01:03Z</time>
      </trkpt>
      <trkpt lat="43.64954" lon="1.37921">
        <ele>154</ele>
        <time>2023-11-12T12:01:04Z</time>
      </trkpt>
      <trkpt lat="43.64953" lon="1.37918">
        <ele>154</ele>
        <time>2023-11-12T12:01:05Z</time>
      </trkpt>
      <trkpt lat="43.64953" lon="1.37915">
        <ele>154</ele>
        <time>2023-11-12T12:01:06Z</time>
      </trkpt>
      <trkpt lat="43.64952" lon="1.37911">
        <ele>154</ele>
        <time>2023-11-12T12:01:07Z</time>
      </trkpt>
      <trkpt lat="43.64951" lon="1.37908">
        <ele>154</ele>
        <time>2023-11-12T12:01:08Z</time>
      </trkpt>
      <trkpt lat="43.6495" lon="1.37904">
        <ele>154</ele>
        <time>2023-11-12T12:01:09Z</time>
      </trkpt>
      <trkpt lat="43.64949" lon="1.37901">
        <ele>154</ele>
        <time>2023-11-12T12:01:10Z</time>
      </trkpt>
      <trkpt lat="43.64948" lon="1.37897">
        <ele>154</ele>
        <time>2023-11-12T12:01:11Z</time>
      </trkpt>
      <trkpt lat="43.64947" lon="1.37893">
        <ele>154</ele>
        <time>2023-11-12T12:01:12Z</time>
      </trkpt>
      <trkpt lat="43.64946" lon="1.37889">
        <ele>154</ele>
        <time>2023-11-12T12:01:13Z</time>
      </trkpt>
      <trkpt lat="43.64945" lon="1.37885">
        <ele>154</ele>
        <time>2023-11-12T12:01:14Z</time>
      </trkpt>
      <trkpt lat="43.64944" lon="1.37882">
        <ele>154</ele>
        <time>2023-11-12T12:01:15Z</time>
      </trkpt>
      <trkpt lat="43.64942" lon="1.3788">
        <ele>154</ele>
        <time>2023-11-12T12:01:16Z</time>
      </trkpt>
      <trkpt lat="43.6494" lon="1.37879">
        <ele>154</ele>
        <time>2023-11-12T12:01:17Z</time>
      </trkpt>
      <trkpt lat="43.64937" lon="1.37877">
        <ele>154</ele>
        <time>2023-11-12T12:01:18Z</time>
      </trkpt>
      <trkpt lat="43.64936" lon="1.37874">
        <ele>154</ele>
        <time>2023-11-12T12:01:19Z</time>
      </trkpt>
      <trkpt lat="43.64934" lon="1.37872">
        <ele>154</ele>
        <time>2023-11-12T12:01:20Z</time>
      </trkpt>
      <trkpt lat="43.64931" lon="1.3787">
        <ele>154</ele>
        <time>2023-11-12T12:01:21Z</time>
      </trkpt>
      <trkpt lat="43.64929" lon="1.37868">
        <ele>154</ele>
        <time>2023-11-12T12:01:22Z</time>
      </trkpt>
      <trkpt lat="43.64926" lon="1.37866">
        <ele>155</ele>
        <time>2023-11-12T12:01:23Z</time>
      </trkpt>
      <trkpt lat="43.64923" lon="1.37863">
        <ele>155</ele>
        <time>2023-11-12T12:01:24Z</time>
      </trkpt>
      <trkpt lat="43.64922" lon="1.37862">
        <ele>155</ele>
        <time>2023-11-12T12:01:25Z</time>
      </trkpt>
      <trkpt lat="43.6492" lon="1.37855">
        <ele>155</ele>
        <time>2023-11-12T12:01:26Z</time>
      </trkpt>
      <trkpt lat="43.6492" lon="1.37855">
        <ele>155</ele>
        <time>2023-11-12T12:01:27Z</time>
      </trkpt>
      <trkpt lat="43.64919" lon="1.37852">
        <ele>155</ele>
        <time>2023-11-12T12:01:28Z</time>
      </trkpt>
      <trkpt lat="43.64918" lon="1.37848">
        <ele>155</ele>
        <time>2023-11-12T12:01:29Z</time>
      </trkpt>
      <trkpt lat="43.64918" lon="1.37845">
        <ele>155</ele>
        <time>2023-11-12T12:01:30Z</time>
      </trkpt>
      <trkpt lat="43.64917" lon="1.37842">
        <ele>155</ele>
        <time>2023-11-12T12:01:31Z</time>
      </trkpt>
      <trkpt lat="43.64916" lon="1.37838">
        <ele>155</ele>
        <time>2023-11-12T12:01:32Z</time>
      </trkpt>
      <trkpt lat="43.64915" lon="1.37835">
        <ele>156</ele>
        <time>2023-11-12T12:01:33Z</time>
      </trkpt>
      <trkpt lat="43.64914" lon="1.37832">
        <ele>156</ele>
        <time>2023-11-12T12:01:34Z</time>
      </trkpt>
      <trkpt lat="43.64914" lon="1.37828">
        <ele>155</ele>
        <time>2023-11-12T12:01:35Z</time>
      </trkpt>
      <trkpt lat="43.64913" lon="1.37825">
        <ele>155</ele>
        <time>2023-11-12T12:01:36Z</time>
      </trkpt>
      <trkpt lat="43.64912" lon="1.37822">
        <ele>155</ele>
        <time>2023-11-12T12:01:37Z</time>
      </trkpt>
      <trkpt lat="43.64912" lon="1.37819">
        <ele>155</ele>
        <time>2023-11-12T12:01:38Z</time>
      </trkpt>
      <trkpt lat="43.64911" lon="1.37815">
        <ele>155</ele>
        <time>2023-11-12T12:01:39Z</time>
      </trkpt>
      <trkpt lat="43.6491" lon="1.37812">
        <ele>155</ele>
        <time>2023-11-12T12:01:40Z</time>
      </trkpt>
      <trkpt lat="43.64909" lon="1.37808">
        <ele>155</ele>
        <time>2023-11-12T12:01:41Z</time>
      </trkpt>
      <trkpt lat="43.64909" lon="1.37805">
        <ele>155</ele>
        <time>2023-11-12T12:01:42Z</time>
      </trkpt>
      <trkpt lat="43.64908" lon="1.37802">
        <ele>155</ele>
        <time>2023-11-12T12:01:43Z</time>
      </trkpt>
      <trkpt lat="43.64907" lon="1.37798">
        <ele>155</ele>
        <time>2023-11-12T12:01:44Z</time>
      </trkpt>
      <trkpt lat="43.64906" lon="1.37791">
        <ele>155</ele>
        <time>2023-11-12T12:01:45Z</time>
      </trkpt>
      <trkpt lat="43.64906" lon="1.37791">
        <ele>155</ele>
        <time>2023-11-12T12:01:46Z</time>
      </trkpt>
      <trkpt lat="43.64905" lon="1.37788">
        <ele>155</ele>
        <time>2023-11-12T12:01:47Z</time>
      </trkpt>
      <trkpt lat="43.64904" lon="1.37784">
        <ele>155</ele>
        <time>2023-11-12T12:01:48Z</time>
      </trkpt>
      <trkpt lat="43.64903" lon="1.37781">
        <ele>155</ele>
        <time>2023-11-12T12:01:49Z</time>
      </trkpt>
      <trkpt lat="43.64902" lon="1.37777">
        <ele>155</ele>
        <time>2023-11-12T12:01:50Z</time>
      </trkpt>
      <trkpt lat="43.64901" lon="1.37774">
        <ele>155</ele>
        <time>2023-11-12T12:01:51Z</time>
      </trkpt>
      <trkpt lat="43.649" lon="1.3777">
        <ele>155</ele>
        <time>2023-11-12T12:01:52Z</time>
      </trkpt>
      <trkpt lat="43.64899" lon="1.37767">
        <ele>155</ele>
        <time>2023-11-12T12:01:53Z</time>
      </trkpt>
      <trkpt lat="43.64898" lon="1.37764">
        <ele>155</ele>
        <time>2023-11-12T12:01:54Z</time>
      </trkpt>
      <trkpt lat="43.64897" lon="1.3776">
        <ele>155</ele>
        <time>2023-11-12T12:01:55Z</time>
      </trkpt>
      <trkpt lat="43.64896" lon="1.37757">
        <ele>155</ele>
        <time>2023-11-12T12:01:56Z</time>
      </trkpt>
      <trkpt lat="43.64895" lon="1.37753">
        <ele>155</ele>
        <time>2023-11-12T12:01:57Z</time>
      </trkpt>
      <trkpt lat="43.64895" lon="1.3775">
        <ele>155</ele>
        <time>2023-11-12T12:01:58Z</time>
      </trkpt>
      <trkpt lat="43.64894" lon="1.37747">
        <ele>155</ele>
        <time>2023-11-12T12:01:59Z</time>
      </trkpt>
      <trkpt lat="43.64893" lon="1.37743">
        <ele>155</ele>
        <time>2023-11-12T12:02:00Z</time>
      </trkpt>
      <trkpt lat="43.64892" lon="1.3774">
        <ele>155</ele>
        <time>2023-11-12T12:02:01Z</time>
      </trkpt>
      <trkpt lat="43.64891" lon="1.37737">
        <ele>155</ele>
        <time>2023-11-12T12:02:02Z</time>
      </trkpt>
      <trkpt lat="43.6489" lon="1.37733">
        <ele>155</ele>
        <time>2023-11-12T12:02:03Z</time>
      </trkpt>
      <trkpt lat="43.64889" lon="1.37727">
        <ele>155</ele>
        <time>2023-11-12T12:02:04Z</time>
      </trkpt>
      <trkpt lat="43.64889" lon="1.37727">
        <ele>155</ele>
        <time>2023-11-12T12:02:05Z</time>
      </trkpt>
      <trkpt lat="43.64888" lon="1.37724">
        <ele>155</ele>
        <time>2023-11-12T12:02:06Z</time>
      </trkpt>
      <trkpt lat="43.64888" lon="1.37721">
        <ele>155</ele>
        <time>2023-11-12T12:02:07Z</time>
      </trkpt>
      <trkpt lat="43.64887" lon="1.37717">
        <ele>155</ele>
        <time>2023-11-12T12:02:08Z</time>
      </trkpt>
      <trkpt lat="43.64887" lon="1.37714">
        <ele>155</ele>
        <time>2023-11-12T12:02:09Z</time>
      </trkpt>
      <trkpt lat="43.64886" lon="1.3771">
        <ele>155</ele>
        <time>2023-11-12T12:02:10Z</time>
      </trkpt>
      <trkpt lat="43.64885" lon="1.37707">
        <ele>155</ele>
        <time>2023-11-12T12:02:11Z</time>
      </trkpt>
      <trkpt lat="43.64883" lon="1.37704">
        <ele>155</ele>
        <time>2023-11-12T12:02:12Z</time>
      </trkpt>
      <trkpt lat="43.64882" lon="1.377">
        <ele>155</ele>
        <time>2023-11-12T12:02:13Z</time>
      </trkpt>
      <trkpt lat="43.64882" lon="1.37697">
        <ele>155</ele>
        <time>2023-11-12T12:02:14Z</time>
      </trkpt>
      <trkpt lat="43.64881" lon="1.37693">
        <ele>155</ele>
        <time>2023-11-12T12:02:15Z</time>
      </trkpt>
      <trkpt lat="43.6488" lon="1.37689">
        <ele>155</ele>
        <time>2023-11-12T12:02:16Z</time>
      </trkpt>
      <trkpt lat="43.6488" lon="1.37686">
        <ele>155</ele>
        <time>2023-11-12T12:02:17Z</time>
      </trkpt>
      <trkpt lat="43.64879" lon="1.37683">
        <ele>155</ele>
        <time>2023-11-12T12:02:18Z</time>
      </trkpt>
      <trkpt lat="43.64879" lon="1.37679">
        <ele>155</ele>
        <time>2023-11-12T12:02:19Z</time>
      </trkpt>
      <trkpt lat="43.64878" lon="1.37676">
        <ele>155</ele>
        <time>2023-11-12T12:02:20Z</time>
      </trkpt>
      <trkpt lat="43.64878" lon="1.37673">
        <ele>155</ele>
        <time>2023-11-12T12:02:21Z</time>
      </trkpt>
      <trkpt lat="43.64877" lon="1.37669">
        <ele>155</ele>
        <time>2023-11-12T12:02:22Z</time>
      </trkpt>
      <trkpt lat="43.64875" lon="1.37662">
        <ele>155</ele>
        <time>2023-11-12T12:02:23Z</time>
      </trkpt>
      <trkpt lat="43.64875" lon="1.37662">
        <ele>155</ele>
        <time>2023-11-12T12:02:24Z</time>
      </trkpt>
      <trkpt lat="43.64874" lon="1.37659">
        <ele>155</ele>
        <time>2023-11-12T12:02:25Z</time>
      </trkpt>
      <trkpt lat="43.64873" lon="1.37656">
        <ele>155</ele>
        <time>2023-11-12T12:02:26Z</time>
      </trkpt>
      <trkpt lat="43.64871" lon="1.37654">
        <ele>155</ele>
        <time>2023-11-12T12:02:27Z</time>
      </trkpt>
      <trkpt lat="43.64869" lon="1.37652">
        <ele>156</ele>
        <time>2023-11-12T12:02:28Z</time>
      </trkpt>
      <trkpt lat="43.64867" lon="1.3765">
        <ele>156</ele>
        <time>2023-11-12T12:02:29Z</time>
      </trkpt>
      <trkpt lat="43.64865" lon="1.37649">
        <ele>156</ele>
        <time>2023-11-12T12:02:30Z</time>
      </trkpt>
      <trkpt lat="43.64862" lon="1.37647">
        <ele>156</ele>
        <time>2023-11-12T12:02:31Z</time>
      </trkpt>
      <trkpt lat="43.6486" lon="1.37645">
        <ele>156</ele>
        <time>2023-11-12T12:02:32Z</time>
      </trkpt>
      <trkpt lat="43.64858" lon="1.37643">
        <ele>156</ele>
        <time>2023-11-12T12:02:33Z</time>
      </trkpt>
      <trkpt lat="43.64856" lon="1.37642">
        <ele>156</ele>
        <time>2023-11-12T12:02:34Z</time>
      </trkpt>
      <trkpt lat="43.64854" lon="1.3764">
        <ele>156</ele>
        <time>2023-11-12T12:02:35Z</time>
      </trkpt>
      <trkpt lat="43.64852" lon="1.37638">
        <ele>156</ele>
        <time>2023-11-12T12:02:36Z</time>
      </trkpt>
      <trkpt lat="43.64849" lon="1.37637">
        <ele>155</ele>
        <time>2023-11-12T12:02:37Z</time>
      </trkpt>
      <trkpt lat="43.64847" lon="1.37635">
        <ele>155</ele>
        <time>2023-11-12T12:02:38Z</time>
      </trkpt>
      <trkpt lat="43.64844" lon="1.37634">
        <ele>155</ele>
        <time>2023-11-12T12:02:39Z</time>
      </trkpt>
      <trkpt lat="43.64842" lon="1.37632">
        <ele>155</ele>
        <time>2023-11-12T12:02:40Z</time>
      </trkpt>
      <trkpt lat="43.6484" lon="1.37631">
        <ele>155</ele>
        <time>2023-11-12T12:02:41Z</time>
      </trkpt>
      <trkpt lat="43.64834" lon="1.37629">
        <ele>155</ele>
        <time>2023-11-12T12:02:42Z</time>
      </trkpt>
      <trkpt lat="43.64834" lon="1.37629">
        <ele>155</ele>
        <time>2023-11-12T12:02:43Z</time>
      </trkpt>
      <trkpt lat="43.64831" lon="1.37627">
        <ele>155</ele>
        <time>2023-11-12T12:02:44Z</time>
      </trkpt>
      <trkpt lat="43.64829" lon="1.37626">
        <ele>155</ele>
        <time>2023-11-12T12:02:45Z</time>
      </trkpt>
      <trkpt lat="43.64827" lon="1.37624">
        <ele>156</ele>
        <time>2023-11-12T12:02:46Z</time>
      </trkpt>
      <trkpt lat="43.64825" lon="1.37623">
        <ele>156</ele>
        <time>2023-11-12T12:02:47Z</time>
      </trkpt>
      <trkpt lat="43.64823" lon="1.37621">
        <ele>155</ele>
        <time>2023-11-12T12:02:48Z</time>
      </trkpt>
      <trkpt lat="43.64821" lon="1.37618">
        <ele>155</ele>
        <time>2023-11-12T12:02:49Z</time>
      </trkpt>
      <trkpt lat="43.64818" lon="1.37616">
        <ele>155</ele>
        <time>2023-11-12T12:02:50Z</time>
      </trkpt>
      <trkpt lat="43.64816" lon="1.37614">
        <ele>155</ele>
        <time>2023-11-12T12:02:51Z</time>
      </trkpt>
      <trkpt lat="43.64813" lon="1.37613">
        <ele>155</ele>
        <time>2023-11-12T12:02:52Z</time>
      </trkpt>
      <trkpt lat="43.6481" lon="1.37611">
        <ele>155</ele>
        <time>2023-11-12T12:02:53Z</time>
      </trkpt>
      <trkpt lat="43.64807" lon="1.37609">
        <ele>156</ele>
        <time>2023-11-12T12:02:54Z</time>
      </trkpt>
      <trkpt lat="43.64805" lon="1.37608">
        <ele>156</ele>
        <time>2023-11-12T12:02:55Z</time>
      </trkpt>
      <trkpt lat="43.64802" lon="1.37608">
        <ele>156</ele>
        <time>2023-11-12T12:02:56Z</time>
      </trkpt>
      <trkpt lat="43.648" lon="1.37607">
        <ele>156</ele>
        <time>2023-11-12T12:02:57Z</time>
      </trkpt>
      <trkpt lat="43.64798" lon="1.37606">
        <ele>156</ele>
        <time>2023-11-12T12:02:58Z</time>
      </trkpt>
    </trkseg>
  </trk>
</gpx>